<?xml version="1.0" encoding="UTF-8" standalone="no" ?>
<gpx xmlns="http://www.topografix.com/GPX/1/1" xmlns:xsi="http://www.w3.org/2001/XMLSchema-instance" xsi:schemaLocation="http://www.topografix.com/GPX/1/1 http://www.topografix.com/GPX/1/1/gpx.xsd" version="1.1" creator="VisuGPX - https://www.visugpx.com">
  <metadata>
    <name>Trace Cougoir au départ de Miélandre</name>
    <desc><![CDATA[Sortie du dimanche 8 mars 2015 effectuée par 11 membres du SCLapalud]]></desc>
  </metadata>
  <trk>
    <name><![CDATA[ACTIVE LOG 001-2]]></name>
    <trkseg>
      <trkpt lat="44.45324" lon="5.15529">
        <ele>536.553101</ele>
        <time>2015-03-08T09:09:57Z</time>
      </trkpt>
      <trkpt lat="44.45324" lon="5.15529">
        <ele>536.553101</ele>
        <time>2015-03-08T09:09:58Z</time>
      </trkpt>
      <trkpt lat="44.45324" lon="5.15529">
        <ele>540.398315</ele>
        <time>2015-03-08T09:10:02Z</time>
      </trkpt>
      <trkpt lat="44.45324" lon="5.15529">
        <ele>543.282104</ele>
        <time>2015-03-08T09:10:03Z</time>
      </trkpt>
      <trkpt lat="44.45324" lon="5.15529">
        <ele>546.646851</ele>
        <time>2015-03-08T09:10:04Z</time>
      </trkpt>
      <trkpt lat="44.45324" lon="5.15529">
        <ele>552.414551</ele>
        <time>2015-03-08T09:10:06Z</time>
      </trkpt>
      <trkpt lat="44.45324" lon="5.15529">
        <ele>558.182861</ele>
        <time>2015-03-08T09:10:08Z</time>
      </trkpt>
      <trkpt lat="44.45324" lon="5.15529">
        <ele>562.989258</ele>
        <time>2015-03-08T09:10:10Z</time>
      </trkpt>
      <trkpt lat="44.45324" lon="5.15529">
        <ele>567.795654</ele>
        <time>2015-03-08T09:10:12Z</time>
      </trkpt>
      <trkpt lat="44.45324" lon="5.15529">
        <ele>572.121826</ele>
        <time>2015-03-08T09:10:14Z</time>
      </trkpt>
      <trkpt lat="44.45324" lon="5.15529">
        <ele>576.447754</ele>
        <time>2015-03-08T09:10:16Z</time>
      </trkpt>
      <trkpt lat="44.45324" lon="5.15529">
        <ele>580.292969</ele>
        <time>2015-03-08T09:10:18Z</time>
      </trkpt>
      <trkpt lat="44.45324" lon="5.15529">
        <ele>584.138184</ele>
        <time>2015-03-08T09:10:20Z</time>
      </trkpt>
      <trkpt lat="44.45324" lon="5.15529">
        <ele>587.502686</ele>
        <time>2015-03-08T09:10:22Z</time>
      </trkpt>
      <trkpt lat="44.45324" lon="5.15529">
        <ele>590.386963</ele>
        <time>2015-03-08T09:10:24Z</time>
      </trkpt>
      <trkpt lat="44.45324" lon="5.15529">
        <ele>594.712646</ele>
        <time>2015-03-08T09:10:27Z</time>
      </trkpt>
      <trkpt lat="44.45324" lon="5.15529">
        <ele>599.038574</ele>
        <time>2015-03-08T09:10:30Z</time>
      </trkpt>
      <trkpt lat="44.45324" lon="5.15529">
        <ele>602.883789</ele>
        <time>2015-03-08T09:10:33Z</time>
      </trkpt>
      <trkpt lat="44.45324" lon="5.15528">
        <ele>605.768066</ele>
        <time>2015-03-08T09:10:36Z</time>
      </trkpt>
      <trkpt lat="44.45322" lon="5.15527">
        <ele>609.613281</ele>
        <time>2015-03-08T09:10:40Z</time>
      </trkpt>
      <trkpt lat="44.45321" lon="5.15526">
        <ele>612.49707</ele>
        <time>2015-03-08T09:10:44Z</time>
      </trkpt>
      <trkpt lat="44.45321" lon="5.15523">
        <ele>614.419678</ele>
        <time>2015-03-08T09:10:47Z</time>
      </trkpt>
      <trkpt lat="44.45322" lon="5.15523">
        <ele>617.303711</ele>
        <time>2015-03-08T09:10:53Z</time>
      </trkpt>
      <trkpt lat="44.45322" lon="5.15523">
        <ele>620.668457</ele>
        <time>2015-03-08T09:11:00Z</time>
      </trkpt>
      <trkpt lat="44.45322" lon="5.1552">
        <ele>623.55249</ele>
        <time>2015-03-08T09:11:10Z</time>
      </trkpt>
      <trkpt lat="44.45322" lon="5.15523">
        <ele>626.916992</ele>
        <time>2015-03-08T09:11:27Z</time>
      </trkpt>
      <trkpt lat="44.45324" lon="5.15525">
        <ele>628.8396</ele>
        <time>2015-03-08T09:12:36Z</time>
      </trkpt>
      <trkpt lat="44.45323" lon="5.15528">
        <ele>627.397705</ele>
        <time>2015-03-08T09:12:52Z</time>
      </trkpt>
      <trkpt lat="44.45323" lon="5.15531">
        <ele>627.878174</ele>
        <time>2015-03-08T09:13:06Z</time>
      </trkpt>
      <trkpt lat="44.45323" lon="5.1553">
        <ele>628.8396</ele>
        <time>2015-03-08T09:13:12Z</time>
      </trkpt>
      <trkpt lat="44.45324" lon="5.15532">
        <ele>628.8396</ele>
        <time>2015-03-08T09:13:22Z</time>
      </trkpt>
      <trkpt lat="44.45326" lon="5.15536">
        <ele>628.358887</ele>
        <time>2015-03-08T09:13:33Z</time>
      </trkpt>
      <trkpt lat="44.45325" lon="5.15536">
        <ele>628.8396</ele>
        <time>2015-03-08T09:13:51Z</time>
      </trkpt>
      <trkpt lat="44.45328" lon="5.15537">
        <ele>627.878174</ele>
        <time>2015-03-08T09:13:57Z</time>
      </trkpt>
      <trkpt lat="44.4533" lon="5.15538">
        <ele>628.358887</ele>
        <time>2015-03-08T09:14:04Z</time>
      </trkpt>
      <trkpt lat="44.45332" lon="5.15536">
        <ele>627.878174</ele>
        <time>2015-03-08T09:14:14Z</time>
      </trkpt>
      <trkpt lat="44.45332" lon="5.15537">
        <ele>627.878174</ele>
        <time>2015-03-08T09:14:37Z</time>
      </trkpt>
      <trkpt lat="44.45331" lon="5.1554">
        <ele>628.358887</ele>
        <time>2015-03-08T09:14:40Z</time>
      </trkpt>
      <trkpt lat="44.45331" lon="5.15543">
        <ele>628.8396</ele>
        <time>2015-03-08T09:14:42Z</time>
      </trkpt>
      <trkpt lat="44.45333" lon="5.15548">
        <ele>630.281494</ele>
        <time>2015-03-08T09:14:49Z</time>
      </trkpt>
      <trkpt lat="44.45333" lon="5.15552">
        <ele>630.762207</ele>
        <time>2015-03-08T09:14:54Z</time>
      </trkpt>
      <trkpt lat="44.45335" lon="5.15556">
        <ele>631.24292</ele>
        <time>2015-03-08T09:14:59Z</time>
      </trkpt>
      <trkpt lat="44.45339" lon="5.15556">
        <ele>632.684814</ele>
        <time>2015-03-08T09:15:08Z</time>
      </trkpt>
      <trkpt lat="44.45342" lon="5.15558">
        <ele>632.684814</ele>
        <time>2015-03-08T09:15:20Z</time>
      </trkpt>
      <trkpt lat="44.45347" lon="5.1556">
        <ele>634.607422</ele>
        <time>2015-03-08T09:15:28Z</time>
      </trkpt>
      <trkpt lat="44.45352" lon="5.15562">
        <ele>636.049561</ele>
        <time>2015-03-08T09:15:36Z</time>
      </trkpt>
      <trkpt lat="44.45355" lon="5.15563">
        <ele>637.491455</ele>
        <time>2015-03-08T09:15:42Z</time>
      </trkpt>
      <trkpt lat="44.4536" lon="5.15566">
        <ele>638.933594</ele>
        <time>2015-03-08T09:15:50Z</time>
      </trkpt>
      <trkpt lat="44.45363" lon="5.15571">
        <ele>639.414063</ele>
        <time>2015-03-08T09:15:56Z</time>
      </trkpt>
      <trkpt lat="44.45365" lon="5.15583">
        <ele>640.855957</ele>
        <time>2015-03-08T09:16:04Z</time>
      </trkpt>
      <trkpt lat="44.4536" lon="5.15588">
        <ele>642.298096</ele>
        <time>2015-03-08T09:16:13Z</time>
      </trkpt>
      <trkpt lat="44.45356" lon="5.15589">
        <ele>643.259277</ele>
        <time>2015-03-08T09:16:19Z</time>
      </trkpt>
      <trkpt lat="44.45353" lon="5.15591">
        <ele>644.220703</ele>
        <time>2015-03-08T09:16:24Z</time>
      </trkpt>
      <trkpt lat="44.4535" lon="5.15597">
        <ele>645.662598</ele>
        <time>2015-03-08T09:16:31Z</time>
      </trkpt>
      <trkpt lat="44.45348" lon="5.156">
        <ele>645.662598</ele>
        <time>2015-03-08T09:16:38Z</time>
      </trkpt>
      <trkpt lat="44.45346" lon="5.15603">
        <ele>647.104492</ele>
        <time>2015-03-08T09:16:44Z</time>
      </trkpt>
      <trkpt lat="44.45341" lon="5.15614">
        <ele>648.546387</ele>
        <time>2015-03-08T09:16:55Z</time>
      </trkpt>
      <trkpt lat="44.45341" lon="5.15632">
        <ele>651.911133</ele>
        <time>2015-03-08T09:17:08Z</time>
      </trkpt>
      <trkpt lat="44.45341" lon="5.15633">
        <ele>651.911133</ele>
        <time>2015-03-08T09:17:09Z</time>
      </trkpt>
      <trkpt lat="44.45341" lon="5.15649">
        <ele>653.833984</ele>
        <time>2015-03-08T09:17:23Z</time>
      </trkpt>
      <trkpt lat="44.45339" lon="5.15656">
        <ele>655.756592</ele>
        <time>2015-03-08T09:17:31Z</time>
      </trkpt>
      <trkpt lat="44.45333" lon="5.15669">
        <ele>658.159912</ele>
        <time>2015-03-08T09:17:45Z</time>
      </trkpt>
      <trkpt lat="44.45325" lon="5.15677">
        <ele>660.082275</ele>
        <time>2015-03-08T09:17:57Z</time>
      </trkpt>
      <trkpt lat="44.45322" lon="5.15684">
        <ele>661.043701</ele>
        <time>2015-03-08T09:18:04Z</time>
      </trkpt>
      <trkpt lat="44.45316" lon="5.15692">
        <ele>662.966309</ele>
        <time>2015-03-08T09:18:16Z</time>
      </trkpt>
      <trkpt lat="44.45311" lon="5.15697">
        <ele>664.888916</ele>
        <time>2015-03-08T09:18:25Z</time>
      </trkpt>
      <trkpt lat="44.4531" lon="5.15702">
        <ele>665.850342</ele>
        <time>2015-03-08T09:18:32Z</time>
      </trkpt>
      <trkpt lat="44.45303" lon="5.15707">
        <ele>668.253662</ele>
        <time>2015-03-08T09:18:43Z</time>
      </trkpt>
      <trkpt lat="44.45303" lon="5.15708">
        <ele>668.734375</ele>
        <time>2015-03-08T09:18:49Z</time>
      </trkpt>
      <trkpt lat="44.45301" lon="5.1571">
        <ele>668.734375</ele>
        <time>2015-03-08T09:19:01Z</time>
      </trkpt>
      <trkpt lat="44.45299" lon="5.15712">
        <ele>670.656982</ele>
        <time>2015-03-08T09:19:50Z</time>
      </trkpt>
      <trkpt lat="44.45294" lon="5.15717">
        <ele>671.618164</ele>
        <time>2015-03-08T09:19:59Z</time>
      </trkpt>
      <trkpt lat="44.45287" lon="5.15723">
        <ele>672.57959</ele>
        <time>2015-03-08T09:20:08Z</time>
      </trkpt>
      <trkpt lat="44.45279" lon="5.15728">
        <ele>674.021484</ele>
        <time>2015-03-08T09:20:19Z</time>
      </trkpt>
      <trkpt lat="44.45275" lon="5.15736">
        <ele>674.502197</ele>
        <time>2015-03-08T09:20:27Z</time>
      </trkpt>
      <trkpt lat="44.45265" lon="5.15745">
        <ele>676.424805</ele>
        <time>2015-03-08T09:20:42Z</time>
      </trkpt>
      <trkpt lat="44.45259" lon="5.15751">
        <ele>678.347412</ele>
        <time>2015-03-08T09:20:52Z</time>
      </trkpt>
      <trkpt lat="44.45249" lon="5.15758">
        <ele>680.27002</ele>
        <time>2015-03-08T09:21:04Z</time>
      </trkpt>
      <trkpt lat="44.45247" lon="5.15759">
        <ele>680.27002</ele>
        <time>2015-03-08T09:21:14Z</time>
      </trkpt>
      <trkpt lat="44.45242" lon="5.15763">
        <ele>681.711914</ele>
        <time>2015-03-08T09:21:23Z</time>
      </trkpt>
      <trkpt lat="44.45234" lon="5.15764">
        <ele>682.67334</ele>
        <time>2015-03-08T09:21:32Z</time>
      </trkpt>
      <trkpt lat="44.45228" lon="5.15769">
        <ele>683.634521</ele>
        <time>2015-03-08T09:21:43Z</time>
      </trkpt>
      <trkpt lat="44.45217" lon="5.15778">
        <ele>686.518799</ele>
        <time>2015-03-08T09:22:01Z</time>
      </trkpt>
      <trkpt lat="44.45208" lon="5.1578">
        <ele>687.960693</ele>
        <time>2015-03-08T09:22:13Z</time>
      </trkpt>
      <trkpt lat="44.45202" lon="5.15779">
        <ele>689.402588</ele>
        <time>2015-03-08T09:22:22Z</time>
      </trkpt>
      <trkpt lat="44.45193" lon="5.15779">
        <ele>690.844482</ele>
        <time>2015-03-08T09:22:33Z</time>
      </trkpt>
      <trkpt lat="44.45185" lon="5.1578">
        <ele>692.286621</ele>
        <time>2015-03-08T09:22:41Z</time>
      </trkpt>
      <trkpt lat="44.45176" lon="5.15778">
        <ele>693.247803</ele>
        <time>2015-03-08T09:22:50Z</time>
      </trkpt>
      <trkpt lat="44.45173" lon="5.15778">
        <ele>693.728516</ele>
        <time>2015-03-08T09:22:58Z</time>
      </trkpt>
      <trkpt lat="44.45171" lon="5.15778">
        <ele>693.728516</ele>
        <time>2015-03-08T09:23:09Z</time>
      </trkpt>
      <trkpt lat="44.45166" lon="5.15784">
        <ele>693.728516</ele>
        <time>2015-03-08T09:23:19Z</time>
      </trkpt>
      <trkpt lat="44.45163" lon="5.15785">
        <ele>694.209229</ele>
        <time>2015-03-08T09:23:28Z</time>
      </trkpt>
      <trkpt lat="44.45155" lon="5.15787">
        <ele>694.689697</ele>
        <time>2015-03-08T09:23:39Z</time>
      </trkpt>
      <trkpt lat="44.45145" lon="5.15788">
        <ele>695.17041</ele>
        <time>2015-03-08T09:23:49Z</time>
      </trkpt>
      <trkpt lat="44.45137" lon="5.15791">
        <ele>695.651123</ele>
        <time>2015-03-08T09:23:59Z</time>
      </trkpt>
      <trkpt lat="44.45127" lon="5.15792">
        <ele>697.093018</ele>
        <time>2015-03-08T09:24:11Z</time>
      </trkpt>
      <trkpt lat="44.45123" lon="5.15796">
        <ele>698.054443</ele>
        <time>2015-03-08T09:24:19Z</time>
      </trkpt>
      <trkpt lat="44.45115" lon="5.158">
        <ele>699.015625</ele>
        <time>2015-03-08T09:24:29Z</time>
      </trkpt>
      <trkpt lat="44.4511" lon="5.15803">
        <ele>699.977051</ele>
        <time>2015-03-08T09:24:37Z</time>
      </trkpt>
      <trkpt lat="44.45102" lon="5.15812">
        <ele>700.938477</ele>
        <time>2015-03-08T09:24:49Z</time>
      </trkpt>
      <trkpt lat="44.45097" lon="5.15824">
        <ele>701.899902</ele>
        <time>2015-03-08T09:24:59Z</time>
      </trkpt>
      <trkpt lat="44.45093" lon="5.15828">
        <ele>702.380371</ele>
        <time>2015-03-08T09:25:07Z</time>
      </trkpt>
      <trkpt lat="44.45089" lon="5.15833">
        <ele>702.861084</ele>
        <time>2015-03-08T09:25:17Z</time>
      </trkpt>
      <trkpt lat="44.45088" lon="5.15839">
        <ele>703.341797</ele>
        <time>2015-03-08T09:25:21Z</time>
      </trkpt>
      <trkpt lat="44.45081" lon="5.15845">
        <ele>704.303223</ele>
        <time>2015-03-08T09:25:29Z</time>
      </trkpt>
      <trkpt lat="44.45076" lon="5.1585">
        <ele>704.783691</ele>
        <time>2015-03-08T09:25:36Z</time>
      </trkpt>
      <trkpt lat="44.45068" lon="5.15851">
        <ele>705.264404</ele>
        <time>2015-03-08T09:25:44Z</time>
      </trkpt>
      <trkpt lat="44.45064" lon="5.15857">
        <ele>706.225586</ele>
        <time>2015-03-08T09:25:52Z</time>
      </trkpt>
      <trkpt lat="44.45058" lon="5.15864">
        <ele>707.187012</ele>
        <time>2015-03-08T09:26:01Z</time>
      </trkpt>
      <trkpt lat="44.45056" lon="5.15868">
        <ele>708.148438</ele>
        <time>2015-03-08T09:26:06Z</time>
      </trkpt>
      <trkpt lat="44.45051" lon="5.15876">
        <ele>709.109619</ele>
        <time>2015-03-08T09:26:14Z</time>
      </trkpt>
      <trkpt lat="44.45049" lon="5.15876">
        <ele>709.590332</ele>
        <time>2015-03-08T09:26:15Z</time>
      </trkpt>
      <trkpt lat="44.45044" lon="5.15882">
        <ele>710.551514</ele>
        <time>2015-03-08T09:26:23Z</time>
      </trkpt>
      <trkpt lat="44.45037" lon="5.1589">
        <ele>711.512939</ele>
        <time>2015-03-08T09:26:32Z</time>
      </trkpt>
      <trkpt lat="44.45036" lon="5.15893">
        <ele>711.993652</ele>
        <time>2015-03-08T09:26:34Z</time>
      </trkpt>
      <trkpt lat="44.45028" lon="5.15897">
        <ele>712.954834</ele>
        <time>2015-03-08T09:26:42Z</time>
      </trkpt>
      <trkpt lat="44.45022" lon="5.15898">
        <ele>713.435547</ele>
        <time>2015-03-08T09:26:49Z</time>
      </trkpt>
      <trkpt lat="44.45008" lon="5.15894">
        <ele>714.877441</ele>
        <time>2015-03-08T09:27:02Z</time>
      </trkpt>
      <trkpt lat="44.44995" lon="5.15893">
        <ele>716.800293</ele>
        <time>2015-03-08T09:27:17Z</time>
      </trkpt>
      <trkpt lat="44.44986" lon="5.15897">
        <ele>717.281006</ele>
        <time>2015-03-08T09:27:27Z</time>
      </trkpt>
      <trkpt lat="44.44979" lon="5.15902">
        <ele>718.242188</ele>
        <time>2015-03-08T09:27:36Z</time>
      </trkpt>
      <trkpt lat="44.44974" lon="5.15912">
        <ele>719.684326</ele>
        <time>2015-03-08T09:27:49Z</time>
      </trkpt>
      <trkpt lat="44.4497" lon="5.15922">
        <ele>721.606689</ele>
        <time>2015-03-08T09:28:01Z</time>
      </trkpt>
      <trkpt lat="44.44962" lon="5.1593">
        <ele>722.568115</ele>
        <time>2015-03-08T09:28:10Z</time>
      </trkpt>
      <trkpt lat="44.44958" lon="5.15933">
        <ele>723.048828</ele>
        <time>2015-03-08T09:28:19Z</time>
      </trkpt>
      <trkpt lat="44.44953" lon="5.15936">
        <ele>723.529541</ele>
        <time>2015-03-08T09:28:38Z</time>
      </trkpt>
      <trkpt lat="44.44949" lon="5.1594">
        <ele>723.529541</ele>
        <time>2015-03-08T09:28:45Z</time>
      </trkpt>
      <trkpt lat="44.44941" lon="5.15947">
        <ele>724.971436</ele>
        <time>2015-03-08T09:28:56Z</time>
      </trkpt>
      <trkpt lat="44.44938" lon="5.15952">
        <ele>725.932617</ele>
        <time>2015-03-08T09:29:02Z</time>
      </trkpt>
      <trkpt lat="44.44936" lon="5.15959">
        <ele>726.41333</ele>
        <time>2015-03-08T09:29:08Z</time>
      </trkpt>
      <trkpt lat="44.44931" lon="5.15965">
        <ele>727.374756</ele>
        <time>2015-03-08T09:29:17Z</time>
      </trkpt>
      <trkpt lat="44.4493" lon="5.15973">
        <ele>728.335938</ele>
        <time>2015-03-08T09:29:26Z</time>
      </trkpt>
      <trkpt lat="44.44926" lon="5.15981">
        <ele>729.777832</ele>
        <time>2015-03-08T09:29:38Z</time>
      </trkpt>
      <trkpt lat="44.44925" lon="5.15987">
        <ele>730.739258</ele>
        <time>2015-03-08T09:29:45Z</time>
      </trkpt>
      <trkpt lat="44.4492" lon="5.15998">
        <ele>732.662109</ele>
        <time>2015-03-08T09:29:56Z</time>
      </trkpt>
      <trkpt lat="44.44914" lon="5.16005">
        <ele>733.623291</ele>
        <time>2015-03-08T09:30:07Z</time>
      </trkpt>
      <trkpt lat="44.44911" lon="5.16006">
        <ele>734.584717</ele>
        <time>2015-03-08T09:30:26Z</time>
      </trkpt>
      <trkpt lat="44.44901" lon="5.16006">
        <ele>734.584717</ele>
        <time>2015-03-08T09:30:40Z</time>
      </trkpt>
      <trkpt lat="44.44898" lon="5.16004">
        <ele>734.104004</ele>
        <time>2015-03-08T09:30:49Z</time>
      </trkpt>
      <trkpt lat="44.44896" lon="5.16005">
        <ele>734.584717</ele>
        <time>2015-03-08T09:30:56Z</time>
      </trkpt>
      <trkpt lat="44.44893" lon="5.16008">
        <ele>735.06543</ele>
        <time>2015-03-08T09:31:07Z</time>
      </trkpt>
      <trkpt lat="44.44889" lon="5.1601">
        <ele>735.545898</ele>
        <time>2015-03-08T09:31:18Z</time>
      </trkpt>
      <trkpt lat="44.44887" lon="5.16015">
        <ele>736.507324</ele>
        <time>2015-03-08T09:31:30Z</time>
      </trkpt>
      <trkpt lat="44.44883" lon="5.16023">
        <ele>736.987793</ele>
        <time>2015-03-08T09:31:40Z</time>
      </trkpt>
      <trkpt lat="44.44881" lon="5.16026">
        <ele>736.987793</ele>
        <time>2015-03-08T09:31:44Z</time>
      </trkpt>
      <trkpt lat="44.44881" lon="5.16033">
        <ele>738.429932</ele>
        <time>2015-03-08T09:31:52Z</time>
      </trkpt>
      <trkpt lat="44.44878" lon="5.16043">
        <ele>738.910645</ele>
        <time>2015-03-08T09:32:02Z</time>
      </trkpt>
      <trkpt lat="44.44875" lon="5.16048">
        <ele>739.871826</ele>
        <time>2015-03-08T09:32:08Z</time>
      </trkpt>
      <trkpt lat="44.44871" lon="5.16052">
        <ele>740.833008</ele>
        <time>2015-03-08T09:32:15Z</time>
      </trkpt>
      <trkpt lat="44.44868" lon="5.16054">
        <ele>741.794434</ele>
        <time>2015-03-08T09:32:18Z</time>
      </trkpt>
      <trkpt lat="44.44863" lon="5.16056">
        <ele>743.717041</ele>
        <time>2015-03-08T09:32:26Z</time>
      </trkpt>
      <trkpt lat="44.44861" lon="5.16054">
        <ele>744.678223</ele>
        <time>2015-03-08T09:32:33Z</time>
      </trkpt>
      <trkpt lat="44.44858" lon="5.16049">
        <ele>745.158936</ele>
        <time>2015-03-08T09:32:40Z</time>
      </trkpt>
      <trkpt lat="44.44852" lon="5.16045">
        <ele>746.120361</ele>
        <time>2015-03-08T09:32:47Z</time>
      </trkpt>
      <trkpt lat="44.44849" lon="5.16041">
        <ele>746.601074</ele>
        <time>2015-03-08T09:32:54Z</time>
      </trkpt>
      <trkpt lat="44.44843" lon="5.16035">
        <ele>748.043213</ele>
        <time>2015-03-08T09:33:02Z</time>
      </trkpt>
      <trkpt lat="44.44837" lon="5.16025">
        <ele>749.004395</ele>
        <time>2015-03-08T09:33:13Z</time>
      </trkpt>
      <trkpt lat="44.44828" lon="5.16019">
        <ele>750.927002</ele>
        <time>2015-03-08T09:33:26Z</time>
      </trkpt>
      <trkpt lat="44.44822" lon="5.16008">
        <ele>752.849609</ele>
        <time>2015-03-08T09:33:37Z</time>
      </trkpt>
      <trkpt lat="44.44816" lon="5.16004">
        <ele>753.811035</ele>
        <time>2015-03-08T09:33:48Z</time>
      </trkpt>
      <trkpt lat="44.4481" lon="5.16001">
        <ele>755.25293</ele>
        <time>2015-03-08T09:33:57Z</time>
      </trkpt>
      <trkpt lat="44.448" lon="5.15995">
        <ele>756.214111</ele>
        <time>2015-03-08T09:34:09Z</time>
      </trkpt>
      <trkpt lat="44.44793" lon="5.15998">
        <ele>757.175537</ele>
        <time>2015-03-08T09:34:19Z</time>
      </trkpt>
      <trkpt lat="44.44785" lon="5.16003">
        <ele>758.136963</ele>
        <time>2015-03-08T09:34:30Z</time>
      </trkpt>
      <trkpt lat="44.44783" lon="5.16003">
        <ele>758.617432</ele>
        <time>2015-03-08T09:34:33Z</time>
      </trkpt>
      <trkpt lat="44.44778" lon="5.16006">
        <ele>759.578857</ele>
        <time>2015-03-08T09:34:41Z</time>
      </trkpt>
      <trkpt lat="44.44774" lon="5.16009">
        <ele>760.540039</ele>
        <time>2015-03-08T09:34:51Z</time>
      </trkpt>
      <trkpt lat="44.44767" lon="5.16014">
        <ele>761.982178</ele>
        <time>2015-03-08T09:35:03Z</time>
      </trkpt>
      <trkpt lat="44.44754" lon="5.16023">
        <ele>762.943359</ele>
        <time>2015-03-08T09:35:18Z</time>
      </trkpt>
      <trkpt lat="44.44748" lon="5.16028">
        <ele>764.385498</ele>
        <time>2015-03-08T09:35:25Z</time>
      </trkpt>
      <trkpt lat="44.44737" lon="5.16044">
        <ele>766.308105</ele>
        <time>2015-03-08T09:35:43Z</time>
      </trkpt>
      <trkpt lat="44.44728" lon="5.16056">
        <ele>768.230713</ele>
        <time>2015-03-08T09:35:59Z</time>
      </trkpt>
      <trkpt lat="44.44719" lon="5.16061">
        <ele>770.15332</ele>
        <time>2015-03-08T09:36:11Z</time>
      </trkpt>
      <trkpt lat="44.44708" lon="5.16061">
        <ele>771.595215</ele>
        <time>2015-03-08T09:36:23Z</time>
      </trkpt>
      <trkpt lat="44.44705" lon="5.16062">
        <ele>771.595215</ele>
        <time>2015-03-08T09:36:34Z</time>
      </trkpt>
      <trkpt lat="44.44703" lon="5.16062">
        <ele>772.075928</ele>
        <time>2015-03-08T09:36:43Z</time>
      </trkpt>
      <trkpt lat="44.44702" lon="5.16062">
        <ele>772.075928</ele>
        <time>2015-03-08T09:36:53Z</time>
      </trkpt>
      <trkpt lat="44.44703" lon="5.16065">
        <ele>772.556641</ele>
        <time>2015-03-08T09:37:19Z</time>
      </trkpt>
      <trkpt lat="44.44703" lon="5.16067">
        <ele>772.556641</ele>
        <time>2015-03-08T09:38:19Z</time>
      </trkpt>
      <trkpt lat="44.44703" lon="5.16058">
        <ele>772.556641</ele>
        <time>2015-03-08T09:43:47Z</time>
      </trkpt>
      <trkpt lat="44.44701" lon="5.16052">
        <ele>772.556641</ele>
        <time>2015-03-08T09:43:51Z</time>
      </trkpt>
      <trkpt lat="44.44696" lon="5.16041">
        <ele>773.998535</ele>
        <time>2015-03-08T09:44:01Z</time>
      </trkpt>
      <trkpt lat="44.4469" lon="5.16029">
        <ele>776.401855</ele>
        <time>2015-03-08T09:44:15Z</time>
      </trkpt>
      <trkpt lat="44.44688" lon="5.16021">
        <ele>778.324463</ele>
        <time>2015-03-08T09:44:27Z</time>
      </trkpt>
      <trkpt lat="44.44681" lon="5.16009">
        <ele>780.247314</ele>
        <time>2015-03-08T09:44:41Z</time>
      </trkpt>
      <trkpt lat="44.44677" lon="5.16001">
        <ele>781.689209</ele>
        <time>2015-03-08T09:44:52Z</time>
      </trkpt>
      <trkpt lat="44.44674" lon="5.15994">
        <ele>783.131104</ele>
        <time>2015-03-08T09:45:02Z</time>
      </trkpt>
      <trkpt lat="44.44668" lon="5.15987">
        <ele>784.092529</ele>
        <time>2015-03-08T09:45:14Z</time>
      </trkpt>
      <trkpt lat="44.44663" lon="5.1598">
        <ele>786.015137</ele>
        <time>2015-03-08T09:45:26Z</time>
      </trkpt>
      <trkpt lat="44.44656" lon="5.15973">
        <ele>787.457031</ele>
        <time>2015-03-08T09:45:39Z</time>
      </trkpt>
      <trkpt lat="44.4465" lon="5.15963">
        <ele>789.379639</ele>
        <time>2015-03-08T09:45:54Z</time>
      </trkpt>
      <trkpt lat="44.44646" lon="5.15958">
        <ele>790.821533</ele>
        <time>2015-03-08T09:46:04Z</time>
      </trkpt>
      <trkpt lat="44.44644" lon="5.15954">
        <ele>791.782959</ele>
        <time>2015-03-08T09:46:13Z</time>
      </trkpt>
      <trkpt lat="44.4464" lon="5.15948">
        <ele>793.224854</ele>
        <time>2015-03-08T09:46:24Z</time>
      </trkpt>
      <trkpt lat="44.44634" lon="5.15944">
        <ele>794.666748</ele>
        <time>2015-03-08T09:46:36Z</time>
      </trkpt>
      <trkpt lat="44.44628" lon="5.15935">
        <ele>796.589844</ele>
        <time>2015-03-08T09:46:51Z</time>
      </trkpt>
      <trkpt lat="44.44623" lon="5.15932">
        <ele>797.551025</ele>
        <time>2015-03-08T09:47:00Z</time>
      </trkpt>
      <trkpt lat="44.44619" lon="5.15924">
        <ele>798.99292</ele>
        <time>2015-03-08T09:47:10Z</time>
      </trkpt>
      <trkpt lat="44.44615" lon="5.15915">
        <ele>800.435059</ele>
        <time>2015-03-08T09:47:23Z</time>
      </trkpt>
      <trkpt lat="44.44612" lon="5.15908">
        <ele>801.39624</ele>
        <time>2015-03-08T09:47:33Z</time>
      </trkpt>
      <trkpt lat="44.44609" lon="5.15903">
        <ele>804.760742</ele>
        <time>2015-03-08T09:50:39Z</time>
      </trkpt>
      <trkpt lat="44.44609" lon="5.1588">
        <ele>807.164063</ele>
        <time>2015-03-08T09:50:54Z</time>
      </trkpt>
      <trkpt lat="44.44607" lon="5.1586">
        <ele>810.528564</ele>
        <time>2015-03-08T09:51:08Z</time>
      </trkpt>
      <trkpt lat="44.44599" lon="5.15837">
        <ele>813.412842</ele>
        <time>2015-03-08T09:51:23Z</time>
      </trkpt>
      <trkpt lat="44.44589" lon="5.15813">
        <ele>816.296631</ele>
        <time>2015-03-08T09:51:38Z</time>
      </trkpt>
      <trkpt lat="44.44586" lon="5.15798">
        <ele>817.258057</ele>
        <time>2015-03-08T09:51:45Z</time>
      </trkpt>
      <trkpt lat="44.44587" lon="5.15783">
        <ele>819.661377</ele>
        <time>2015-03-08T09:51:59Z</time>
      </trkpt>
      <trkpt lat="44.44591" lon="5.15773">
        <ele>821.58374</ele>
        <time>2015-03-08T09:52:09Z</time>
      </trkpt>
      <trkpt lat="44.44592" lon="5.15771">
        <ele>822.545166</ele>
        <time>2015-03-08T09:52:11Z</time>
      </trkpt>
      <trkpt lat="44.4459" lon="5.15758">
        <ele>823.987061</ele>
        <time>2015-03-08T09:52:19Z</time>
      </trkpt>
      <trkpt lat="44.44593" lon="5.15749">
        <ele>826.871094</ele>
        <time>2015-03-08T09:52:30Z</time>
      </trkpt>
      <trkpt lat="44.44593" lon="5.15746">
        <ele>828.313232</ele>
        <time>2015-03-08T09:52:35Z</time>
      </trkpt>
      <trkpt lat="44.44594" lon="5.15733">
        <ele>831.677734</ele>
        <time>2015-03-08T09:52:50Z</time>
      </trkpt>
      <trkpt lat="44.44587" lon="5.15726">
        <ele>833.119629</ele>
        <time>2015-03-08T09:53:01Z</time>
      </trkpt>
      <trkpt lat="44.44576" lon="5.15713">
        <ele>834.561768</ele>
        <time>2015-03-08T09:53:09Z</time>
      </trkpt>
      <trkpt lat="44.44566" lon="5.15713">
        <ele>836.964844</ele>
        <time>2015-03-08T09:53:22Z</time>
      </trkpt>
      <trkpt lat="44.44553" lon="5.15711">
        <ele>838.406982</ele>
        <time>2015-03-08T09:53:36Z</time>
      </trkpt>
      <trkpt lat="44.44539" lon="5.15704">
        <ele>839.848877</ele>
        <time>2015-03-08T09:53:47Z</time>
      </trkpt>
      <trkpt lat="44.44527" lon="5.15695">
        <ele>841.290771</ele>
        <time>2015-03-08T09:53:59Z</time>
      </trkpt>
      <trkpt lat="44.44518" lon="5.15688">
        <ele>843.694092</ele>
        <time>2015-03-08T09:54:09Z</time>
      </trkpt>
      <trkpt lat="44.44508" lon="5.15675">
        <ele>845.13623</ele>
        <time>2015-03-08T09:54:21Z</time>
      </trkpt>
      <trkpt lat="44.44505" lon="5.15669">
        <ele>847.058838</ele>
        <time>2015-03-08T09:54:28Z</time>
      </trkpt>
      <trkpt lat="44.44501" lon="5.15667">
        <ele>847.058838</ele>
        <time>2015-03-08T09:54:37Z</time>
      </trkpt>
      <trkpt lat="44.44496" lon="5.15664">
        <ele>848.020264</ele>
        <time>2015-03-08T09:54:46Z</time>
      </trkpt>
      <trkpt lat="44.4449" lon="5.15663">
        <ele>849.462158</ele>
        <time>2015-03-08T09:54:55Z</time>
      </trkpt>
      <trkpt lat="44.44482" lon="5.15661">
        <ele>851.384766</ele>
        <time>2015-03-08T09:55:07Z</time>
      </trkpt>
      <trkpt lat="44.44476" lon="5.15659">
        <ele>852.82666</ele>
        <time>2015-03-08T09:55:20Z</time>
      </trkpt>
      <trkpt lat="44.44468" lon="5.15656">
        <ele>855.22998</ele>
        <time>2015-03-08T09:55:36Z</time>
      </trkpt>
      <trkpt lat="44.44464" lon="5.15653">
        <ele>856.191162</ele>
        <time>2015-03-08T09:55:47Z</time>
      </trkpt>
      <trkpt lat="44.44458" lon="5.1565">
        <ele>857.633301</ele>
        <time>2015-03-08T09:55:58Z</time>
      </trkpt>
      <trkpt lat="44.44454" lon="5.15648">
        <ele>858.594482</ele>
        <time>2015-03-08T09:56:09Z</time>
      </trkpt>
      <trkpt lat="44.44451" lon="5.15648">
        <ele>859.555908</ele>
        <time>2015-03-08T09:56:17Z</time>
      </trkpt>
      <trkpt lat="44.44445" lon="5.15643">
        <ele>861.47876</ele>
        <time>2015-03-08T09:56:31Z</time>
      </trkpt>
      <trkpt lat="44.4444" lon="5.15639">
        <ele>863.401367</ele>
        <time>2015-03-08T09:56:48Z</time>
      </trkpt>
      <trkpt lat="44.44434" lon="5.1564">
        <ele>864.362549</ele>
        <time>2015-03-08T09:57:00Z</time>
      </trkpt>
      <trkpt lat="44.44432" lon="5.15638">
        <ele>865.323975</ele>
        <time>2015-03-08T09:57:10Z</time>
      </trkpt>
      <trkpt lat="44.44427" lon="5.15634">
        <ele>867.246582</ele>
        <time>2015-03-08T09:57:25Z</time>
      </trkpt>
      <trkpt lat="44.44421" lon="5.15628">
        <ele>869.169189</ele>
        <time>2015-03-08T09:57:38Z</time>
      </trkpt>
      <trkpt lat="44.44419" lon="5.15624">
        <ele>869.649902</ele>
        <time>2015-03-08T09:57:49Z</time>
      </trkpt>
      <trkpt lat="44.44413" lon="5.15623">
        <ele>870.611084</ele>
        <time>2015-03-08T09:57:59Z</time>
      </trkpt>
      <trkpt lat="44.4441" lon="5.1562">
        <ele>872.052979</ele>
        <time>2015-03-08T09:58:12Z</time>
      </trkpt>
      <trkpt lat="44.44404" lon="5.15613">
        <ele>873.975586</ele>
        <time>2015-03-08T09:58:32Z</time>
      </trkpt>
      <trkpt lat="44.44401" lon="5.15611">
        <ele>876.37915</ele>
        <time>2015-03-08T09:58:52Z</time>
      </trkpt>
      <trkpt lat="44.44396" lon="5.15609">
        <ele>878.782471</ele>
        <time>2015-03-08T09:59:07Z</time>
      </trkpt>
      <trkpt lat="44.44395" lon="5.15609">
        <ele>879.743652</ele>
        <time>2015-03-08T09:59:18Z</time>
      </trkpt>
      <trkpt lat="44.44388" lon="5.15601">
        <ele>882.627686</ele>
        <time>2015-03-08T09:59:43Z</time>
      </trkpt>
      <trkpt lat="44.44383" lon="5.15598">
        <ele>884.550293</ele>
        <time>2015-03-08T09:59:59Z</time>
      </trkpt>
      <trkpt lat="44.4438" lon="5.156">
        <ele>885.031006</ele>
        <time>2015-03-08T10:00:09Z</time>
      </trkpt>
      <trkpt lat="44.44376" lon="5.15596">
        <ele>886.4729</ele>
        <time>2015-03-08T10:00:29Z</time>
      </trkpt>
      <trkpt lat="44.44377" lon="5.15595">
        <ele>886.4729</ele>
        <time>2015-03-08T10:00:42Z</time>
      </trkpt>
      <trkpt lat="44.44378" lon="5.15593">
        <ele>885.992188</ele>
        <time>2015-03-08T10:01:02Z</time>
      </trkpt>
      <trkpt lat="44.44379" lon="5.15592">
        <ele>885.511475</ele>
        <time>2015-03-08T10:07:43Z</time>
      </trkpt>
      <trkpt lat="44.44382" lon="5.15592">
        <ele>885.031006</ele>
        <time>2015-03-08T10:09:20Z</time>
      </trkpt>
      <trkpt lat="44.44384" lon="5.15592">
        <ele>885.511475</ele>
        <time>2015-03-08T10:09:37Z</time>
      </trkpt>
      <trkpt lat="44.4438" lon="5.15585">
        <ele>887.914795</ele>
        <time>2015-03-08T10:09:58Z</time>
      </trkpt>
      <trkpt lat="44.44369" lon="5.15574">
        <ele>890.798584</ele>
        <time>2015-03-08T10:10:18Z</time>
      </trkpt>
      <trkpt lat="44.44364" lon="5.15569">
        <ele>893.202148</ele>
        <time>2015-03-08T10:10:34Z</time>
      </trkpt>
      <trkpt lat="44.44359" lon="5.15565">
        <ele>895.605469</ele>
        <time>2015-03-08T10:10:55Z</time>
      </trkpt>
      <trkpt lat="44.44355" lon="5.15564">
        <ele>898.489258</ele>
        <time>2015-03-08T10:11:12Z</time>
      </trkpt>
      <trkpt lat="44.44352" lon="5.15563">
        <ele>899.931396</ele>
        <time>2015-03-08T10:11:24Z</time>
      </trkpt>
      <trkpt lat="44.44346" lon="5.15552">
        <ele>902.334473</ele>
        <time>2015-03-08T10:11:47Z</time>
      </trkpt>
      <trkpt lat="44.44342" lon="5.15549">
        <ele>905.699219</ele>
        <time>2015-03-08T10:12:09Z</time>
      </trkpt>
      <trkpt lat="44.44334" lon="5.15543">
        <ele>906.6604</ele>
        <time>2015-03-08T10:12:21Z</time>
      </trkpt>
      <trkpt lat="44.44333" lon="5.1554">
        <ele>907.621826</ele>
        <time>2015-03-08T10:12:37Z</time>
      </trkpt>
      <trkpt lat="44.44329" lon="5.15536">
        <ele>909.544678</ele>
        <time>2015-03-08T10:12:49Z</time>
      </trkpt>
      <trkpt lat="44.44324" lon="5.15532">
        <ele>911.467285</ele>
        <time>2015-03-08T10:13:03Z</time>
      </trkpt>
      <trkpt lat="44.44319" lon="5.15527">
        <ele>912.428467</ele>
        <time>2015-03-08T10:13:13Z</time>
      </trkpt>
      <trkpt lat="44.44314" lon="5.15519">
        <ele>913.389893</ele>
        <time>2015-03-08T10:13:22Z</time>
      </trkpt>
      <trkpt lat="44.4431" lon="5.15518">
        <ele>915.3125</ele>
        <time>2015-03-08T10:13:33Z</time>
      </trkpt>
      <trkpt lat="44.44306" lon="5.15514">
        <ele>916.273682</ele>
        <time>2015-03-08T10:13:45Z</time>
      </trkpt>
      <trkpt lat="44.44299" lon="5.15504">
        <ele>917.715576</ele>
        <time>2015-03-08T10:13:59Z</time>
      </trkpt>
      <trkpt lat="44.44297" lon="5.15501">
        <ele>917.715576</ele>
        <time>2015-03-08T10:14:05Z</time>
      </trkpt>
      <trkpt lat="44.44297" lon="5.15498">
        <ele>918.196289</ele>
        <time>2015-03-08T10:14:12Z</time>
      </trkpt>
      <trkpt lat="44.44293" lon="5.15494">
        <ele>918.677002</ele>
        <time>2015-03-08T10:14:19Z</time>
      </trkpt>
      <trkpt lat="44.44289" lon="5.1549">
        <ele>919.638428</ele>
        <time>2015-03-08T10:14:28Z</time>
      </trkpt>
      <trkpt lat="44.44283" lon="5.15485">
        <ele>920.599609</ele>
        <time>2015-03-08T10:14:41Z</time>
      </trkpt>
      <trkpt lat="44.44279" lon="5.15484">
        <ele>921.560791</ele>
        <time>2015-03-08T10:14:50Z</time>
      </trkpt>
      <trkpt lat="44.44276" lon="5.15476">
        <ele>921.560791</ele>
        <time>2015-03-08T10:15:02Z</time>
      </trkpt>
      <trkpt lat="44.44271" lon="5.15468">
        <ele>921.560791</ele>
        <time>2015-03-08T10:15:15Z</time>
      </trkpt>
      <trkpt lat="44.44267" lon="5.15457">
        <ele>921.080322</ele>
        <time>2015-03-08T10:15:26Z</time>
      </trkpt>
      <trkpt lat="44.44266" lon="5.15456">
        <ele>921.560791</ele>
        <time>2015-03-08T10:15:36Z</time>
      </trkpt>
      <trkpt lat="44.44259" lon="5.15444">
        <ele>922.522217</ele>
        <time>2015-03-08T10:15:49Z</time>
      </trkpt>
      <trkpt lat="44.44255" lon="5.15437">
        <ele>923.00293</ele>
        <time>2015-03-08T10:16:02Z</time>
      </trkpt>
      <trkpt lat="44.4425" lon="5.15428">
        <ele>923.964111</ele>
        <time>2015-03-08T10:16:12Z</time>
      </trkpt>
      <trkpt lat="44.44246" lon="5.15422">
        <ele>924.445068</ele>
        <time>2015-03-08T10:16:18Z</time>
      </trkpt>
      <trkpt lat="44.44239" lon="5.15409">
        <ele>924.445068</ele>
        <time>2015-03-08T10:16:30Z</time>
      </trkpt>
      <trkpt lat="44.44234" lon="5.15402">
        <ele>924.925781</ele>
        <time>2015-03-08T10:16:38Z</time>
      </trkpt>
      <trkpt lat="44.44235" lon="5.15396">
        <ele>923.964111</ele>
        <time>2015-03-08T10:16:45Z</time>
      </trkpt>
      <trkpt lat="44.44233" lon="5.15392">
        <ele>923.483643</ele>
        <time>2015-03-08T10:16:53Z</time>
      </trkpt>
      <trkpt lat="44.44228" lon="5.15388">
        <ele>924.445068</ele>
        <time>2015-03-08T10:17:04Z</time>
      </trkpt>
      <trkpt lat="44.44223" lon="5.15384">
        <ele>925.886963</ele>
        <time>2015-03-08T10:17:12Z</time>
      </trkpt>
      <trkpt lat="44.44223" lon="5.15383">
        <ele>926.848389</ele>
        <time>2015-03-08T10:17:21Z</time>
      </trkpt>
      <trkpt lat="44.44223" lon="5.15378">
        <ele>926.367676</ele>
        <time>2015-03-08T10:17:31Z</time>
      </trkpt>
      <trkpt lat="44.44223" lon="5.15376">
        <ele>926.367676</ele>
        <time>2015-03-08T10:17:39Z</time>
      </trkpt>
      <trkpt lat="44.44219" lon="5.15369">
        <ele>926.848389</ele>
        <time>2015-03-08T10:19:11Z</time>
      </trkpt>
      <trkpt lat="44.44215" lon="5.15362">
        <ele>926.848389</ele>
        <time>2015-03-08T10:19:20Z</time>
      </trkpt>
      <trkpt lat="44.44212" lon="5.15356">
        <ele>926.848389</ele>
        <time>2015-03-08T10:19:27Z</time>
      </trkpt>
      <trkpt lat="44.4421" lon="5.15351">
        <ele>927.329102</ele>
        <time>2015-03-08T10:19:34Z</time>
      </trkpt>
      <trkpt lat="44.44207" lon="5.15348">
        <ele>927.329102</ele>
        <time>2015-03-08T10:19:41Z</time>
      </trkpt>
      <trkpt lat="44.44204" lon="5.15342">
        <ele>926.848389</ele>
        <time>2015-03-08T10:19:48Z</time>
      </trkpt>
      <trkpt lat="44.44199" lon="5.15333">
        <ele>926.848389</ele>
        <time>2015-03-08T10:19:57Z</time>
      </trkpt>
      <trkpt lat="44.44196" lon="5.15329">
        <ele>927.329102</ele>
        <time>2015-03-08T10:20:04Z</time>
      </trkpt>
      <trkpt lat="44.44195" lon="5.15324">
        <ele>926.848389</ele>
        <time>2015-03-08T10:20:13Z</time>
      </trkpt>
      <trkpt lat="44.44192" lon="5.15319">
        <ele>926.848389</ele>
        <time>2015-03-08T10:20:22Z</time>
      </trkpt>
      <trkpt lat="44.44189" lon="5.15314">
        <ele>927.329102</ele>
        <time>2015-03-08T10:20:30Z</time>
      </trkpt>
      <trkpt lat="44.44186" lon="5.15309">
        <ele>927.329102</ele>
        <time>2015-03-08T10:20:46Z</time>
      </trkpt>
      <trkpt lat="44.44183" lon="5.15301">
        <ele>927.80957</ele>
        <time>2015-03-08T10:20:55Z</time>
      </trkpt>
      <trkpt lat="44.44178" lon="5.15295">
        <ele>928.290283</ele>
        <time>2015-03-08T10:21:06Z</time>
      </trkpt>
      <trkpt lat="44.44174" lon="5.15289">
        <ele>928.290283</ele>
        <time>2015-03-08T10:21:13Z</time>
      </trkpt>
      <trkpt lat="44.44168" lon="5.15282">
        <ele>928.290283</ele>
        <time>2015-03-08T10:21:21Z</time>
      </trkpt>
      <trkpt lat="44.44163" lon="5.15275">
        <ele>929.251465</ele>
        <time>2015-03-08T10:21:31Z</time>
      </trkpt>
      <trkpt lat="44.44161" lon="5.15271">
        <ele>929.251465</ele>
        <time>2015-03-08T10:21:38Z</time>
      </trkpt>
      <trkpt lat="44.44158" lon="5.15268">
        <ele>929.732178</ele>
        <time>2015-03-08T10:21:43Z</time>
      </trkpt>
      <trkpt lat="44.44153" lon="5.15259">
        <ele>929.732178</ele>
        <time>2015-03-08T10:21:51Z</time>
      </trkpt>
      <trkpt lat="44.44149" lon="5.15253">
        <ele>930.693604</ele>
        <time>2015-03-08T10:22:00Z</time>
      </trkpt>
      <trkpt lat="44.44145" lon="5.15249">
        <ele>931.654785</ele>
        <time>2015-03-08T10:22:08Z</time>
      </trkpt>
      <trkpt lat="44.44142" lon="5.15245">
        <ele>932.616211</ele>
        <time>2015-03-08T10:22:15Z</time>
      </trkpt>
      <trkpt lat="44.44136" lon="5.15236">
        <ele>933.09668</ele>
        <time>2015-03-08T10:22:24Z</time>
      </trkpt>
      <trkpt lat="44.44133" lon="5.1523">
        <ele>933.577393</ele>
        <time>2015-03-08T10:22:31Z</time>
      </trkpt>
      <trkpt lat="44.44129" lon="5.15223">
        <ele>934.058105</ele>
        <time>2015-03-08T10:22:40Z</time>
      </trkpt>
      <trkpt lat="44.44125" lon="5.15214">
        <ele>934.538818</ele>
        <time>2015-03-08T10:22:50Z</time>
      </trkpt>
      <trkpt lat="44.44122" lon="5.15212">
        <ele>934.538818</ele>
        <time>2015-03-08T10:22:57Z</time>
      </trkpt>
      <trkpt lat="44.44118" lon="5.15209">
        <ele>935.980713</ele>
        <time>2015-03-08T10:23:05Z</time>
      </trkpt>
      <trkpt lat="44.44114" lon="5.15202">
        <ele>935.980713</ele>
        <time>2015-03-08T10:23:13Z</time>
      </trkpt>
      <trkpt lat="44.44112" lon="5.15198">
        <ele>935.5</ele>
        <time>2015-03-08T10:23:22Z</time>
      </trkpt>
      <trkpt lat="44.44109" lon="5.15193">
        <ele>935.980713</ele>
        <time>2015-03-08T10:23:32Z</time>
      </trkpt>
      <trkpt lat="44.4411" lon="5.15192">
        <ele>936.461426</ele>
        <time>2015-03-08T10:23:51Z</time>
      </trkpt>
      <trkpt lat="44.44109" lon="5.15191">
        <ele>936.461426</ele>
        <time>2015-03-08T10:24:06Z</time>
      </trkpt>
      <trkpt lat="44.44107" lon="5.15189">
        <ele>936.941895</ele>
        <time>2015-03-08T10:24:14Z</time>
      </trkpt>
      <trkpt lat="44.44101" lon="5.15184">
        <ele>937.90332</ele>
        <time>2015-03-08T10:24:26Z</time>
      </trkpt>
      <trkpt lat="44.44097" lon="5.15178">
        <ele>938.864746</ele>
        <time>2015-03-08T10:24:34Z</time>
      </trkpt>
      <trkpt lat="44.44096" lon="5.15171">
        <ele>938.384033</ele>
        <time>2015-03-08T10:24:41Z</time>
      </trkpt>
      <trkpt lat="44.44089" lon="5.15165">
        <ele>939.825928</ele>
        <time>2015-03-08T10:24:50Z</time>
      </trkpt>
      <trkpt lat="44.44087" lon="5.15162">
        <ele>940.787354</ele>
        <time>2015-03-08T10:25:02Z</time>
      </trkpt>
      <trkpt lat="44.44086" lon="5.1516">
        <ele>940.787354</ele>
        <time>2015-03-08T10:26:05Z</time>
      </trkpt>
      <trkpt lat="44.44083" lon="5.15159">
        <ele>941.748779</ele>
        <time>2015-03-08T10:27:02Z</time>
      </trkpt>
      <trkpt lat="44.44081" lon="5.15154">
        <ele>941.748779</ele>
        <time>2015-03-08T10:27:11Z</time>
      </trkpt>
      <trkpt lat="44.4408" lon="5.15149">
        <ele>941.268066</ele>
        <time>2015-03-08T10:27:20Z</time>
      </trkpt>
      <trkpt lat="44.44075" lon="5.15142">
        <ele>942.229492</ele>
        <time>2015-03-08T10:27:31Z</time>
      </trkpt>
      <trkpt lat="44.44073" lon="5.15135">
        <ele>942.710205</ele>
        <time>2015-03-08T10:27:39Z</time>
      </trkpt>
      <trkpt lat="44.44068" lon="5.15127">
        <ele>942.710205</ele>
        <time>2015-03-08T10:27:48Z</time>
      </trkpt>
      <trkpt lat="44.44065" lon="5.15122">
        <ele>943.190674</ele>
        <time>2015-03-08T10:27:57Z</time>
      </trkpt>
      <trkpt lat="44.44061" lon="5.15116">
        <ele>943.190674</ele>
        <time>2015-03-08T10:28:04Z</time>
      </trkpt>
      <trkpt lat="44.44056" lon="5.15106">
        <ele>942.710205</ele>
        <time>2015-03-08T10:28:14Z</time>
      </trkpt>
      <trkpt lat="44.44052" lon="5.15099">
        <ele>943.190674</ele>
        <time>2015-03-08T10:28:23Z</time>
      </trkpt>
      <trkpt lat="44.44048" lon="5.1509">
        <ele>943.671387</ele>
        <time>2015-03-08T10:28:29Z</time>
      </trkpt>
      <trkpt lat="44.44043" lon="5.15082">
        <ele>945.113281</ele>
        <time>2015-03-08T10:28:39Z</time>
      </trkpt>
      <trkpt lat="44.44038" lon="5.15077">
        <ele>945.593994</ele>
        <time>2015-03-08T10:28:44Z</time>
      </trkpt>
      <trkpt lat="44.44031" lon="5.15075">
        <ele>946.55542</ele>
        <time>2015-03-08T10:28:52Z</time>
      </trkpt>
      <trkpt lat="44.44026" lon="5.1507">
        <ele>947.516602</ele>
        <time>2015-03-08T10:29:00Z</time>
      </trkpt>
      <trkpt lat="44.44022" lon="5.15066">
        <ele>948.477783</ele>
        <time>2015-03-08T10:29:08Z</time>
      </trkpt>
      <trkpt lat="44.44022" lon="5.15063">
        <ele>948.477783</ele>
        <time>2015-03-08T10:29:15Z</time>
      </trkpt>
      <trkpt lat="44.44018" lon="5.15054">
        <ele>948.477783</ele>
        <time>2015-03-08T10:29:27Z</time>
      </trkpt>
      <trkpt lat="44.44015" lon="5.15047">
        <ele>948.958496</ele>
        <time>2015-03-08T10:29:36Z</time>
      </trkpt>
      <trkpt lat="44.44008" lon="5.15044">
        <ele>950.881104</ele>
        <time>2015-03-08T10:29:49Z</time>
      </trkpt>
      <trkpt lat="44.44001" lon="5.15041">
        <ele>952.803711</ele>
        <time>2015-03-08T10:30:00Z</time>
      </trkpt>
      <trkpt lat="44.43996" lon="5.15036">
        <ele>954.24585</ele>
        <time>2015-03-08T10:30:10Z</time>
      </trkpt>
      <trkpt lat="44.4399" lon="5.15034">
        <ele>955.207031</ele>
        <time>2015-03-08T10:30:20Z</time>
      </trkpt>
      <trkpt lat="44.43985" lon="5.15029">
        <ele>956.168457</ele>
        <time>2015-03-08T10:30:29Z</time>
      </trkpt>
      <trkpt lat="44.43978" lon="5.15022">
        <ele>956.64917</ele>
        <time>2015-03-08T10:30:39Z</time>
      </trkpt>
      <trkpt lat="44.43973" lon="5.15017">
        <ele>957.610596</ele>
        <time>2015-03-08T10:30:46Z</time>
      </trkpt>
      <trkpt lat="44.43973" lon="5.15015">
        <ele>957.610596</ele>
        <time>2015-03-08T10:30:55Z</time>
      </trkpt>
      <trkpt lat="44.43971" lon="5.15014">
        <ele>958.571777</ele>
        <time>2015-03-08T10:31:07Z</time>
      </trkpt>
      <trkpt lat="44.43966" lon="5.15009">
        <ele>959.533203</ele>
        <time>2015-03-08T10:31:18Z</time>
      </trkpt>
      <trkpt lat="44.43959" lon="5.15002">
        <ele>960.494385</ele>
        <time>2015-03-08T10:31:28Z</time>
      </trkpt>
      <trkpt lat="44.43953" lon="5.14994">
        <ele>961.936523</ele>
        <time>2015-03-08T10:31:41Z</time>
      </trkpt>
      <trkpt lat="44.43949" lon="5.14987">
        <ele>962.897705</ele>
        <time>2015-03-08T10:31:51Z</time>
      </trkpt>
      <trkpt lat="44.43944" lon="5.14984">
        <ele>963.378418</ele>
        <time>2015-03-08T10:31:58Z</time>
      </trkpt>
      <trkpt lat="44.43937" lon="5.14974">
        <ele>962.897705</ele>
        <time>2015-03-08T10:32:10Z</time>
      </trkpt>
      <trkpt lat="44.43932" lon="5.14961">
        <ele>963.378418</ele>
        <time>2015-03-08T10:32:21Z</time>
      </trkpt>
      <trkpt lat="44.43926" lon="5.14954">
        <ele>963.378418</ele>
        <time>2015-03-08T10:32:30Z</time>
      </trkpt>
      <trkpt lat="44.43921" lon="5.14946">
        <ele>963.378418</ele>
        <time>2015-03-08T10:32:38Z</time>
      </trkpt>
      <trkpt lat="44.43916" lon="5.1494">
        <ele>962.897705</ele>
        <time>2015-03-08T10:32:47Z</time>
      </trkpt>
      <trkpt lat="44.43908" lon="5.14932">
        <ele>962.416992</ele>
        <time>2015-03-08T10:32:58Z</time>
      </trkpt>
      <trkpt lat="44.43899" lon="5.14927">
        <ele>963.378418</ele>
        <time>2015-03-08T10:33:09Z</time>
      </trkpt>
      <trkpt lat="44.43898" lon="5.14926">
        <ele>964.3396</ele>
        <time>2015-03-08T10:33:32Z</time>
      </trkpt>
      <trkpt lat="44.43892" lon="5.14923">
        <ele>964.820313</ele>
        <time>2015-03-08T10:34:52Z</time>
      </trkpt>
      <trkpt lat="44.43885" lon="5.14919">
        <ele>964.3396</ele>
        <time>2015-03-08T10:35:01Z</time>
      </trkpt>
      <trkpt lat="44.4388" lon="5.14913">
        <ele>964.3396</ele>
        <time>2015-03-08T10:35:09Z</time>
      </trkpt>
      <trkpt lat="44.43877" lon="5.14912">
        <ele>964.3396</ele>
        <time>2015-03-08T10:35:20Z</time>
      </trkpt>
      <trkpt lat="44.43871" lon="5.14909">
        <ele>963.858887</ele>
        <time>2015-03-08T10:35:30Z</time>
      </trkpt>
      <trkpt lat="44.43869" lon="5.14904">
        <ele>962.897705</ele>
        <time>2015-03-08T10:35:38Z</time>
      </trkpt>
      <trkpt lat="44.4387" lon="5.14897">
        <ele>961.455811</ele>
        <time>2015-03-08T10:35:47Z</time>
      </trkpt>
      <trkpt lat="44.43871" lon="5.1489">
        <ele>959.533203</ele>
        <time>2015-03-08T10:35:57Z</time>
      </trkpt>
      <trkpt lat="44.43869" lon="5.14883">
        <ele>958.091309</ele>
        <time>2015-03-08T10:36:08Z</time>
      </trkpt>
      <trkpt lat="44.43864" lon="5.14875">
        <ele>956.168457</ele>
        <time>2015-03-08T10:36:19Z</time>
      </trkpt>
      <trkpt lat="44.4386" lon="5.14872">
        <ele>956.168457</ele>
        <time>2015-03-08T10:36:29Z</time>
      </trkpt>
      <trkpt lat="44.43856" lon="5.14867">
        <ele>955.207031</ele>
        <time>2015-03-08T10:36:36Z</time>
      </trkpt>
      <trkpt lat="44.43848" lon="5.14863">
        <ele>954.726318</ele>
        <time>2015-03-08T10:36:44Z</time>
      </trkpt>
      <trkpt lat="44.43845" lon="5.14859">
        <ele>954.24585</ele>
        <time>2015-03-08T10:36:57Z</time>
      </trkpt>
      <trkpt lat="44.43839" lon="5.14857">
        <ele>954.24585</ele>
        <time>2015-03-08T10:37:06Z</time>
      </trkpt>
      <trkpt lat="44.43833" lon="5.14855">
        <ele>953.765137</ele>
        <time>2015-03-08T10:37:25Z</time>
      </trkpt>
      <trkpt lat="44.43833" lon="5.14855">
        <ele>953.765137</ele>
        <time>2015-03-08T10:37:40Z</time>
      </trkpt>
      <trkpt lat="44.43829" lon="5.14855">
        <ele>953.765137</ele>
        <time>2015-03-08T10:37:49Z</time>
      </trkpt>
      <trkpt lat="44.43825" lon="5.14855">
        <ele>954.24585</ele>
        <time>2015-03-08T10:37:58Z</time>
      </trkpt>
      <trkpt lat="44.43817" lon="5.14853">
        <ele>954.726318</ele>
        <time>2015-03-08T10:38:08Z</time>
      </trkpt>
      <trkpt lat="44.4381" lon="5.14846">
        <ele>955.207031</ele>
        <time>2015-03-08T10:38:17Z</time>
      </trkpt>
      <trkpt lat="44.43809" lon="5.14842">
        <ele>955.687744</ele>
        <time>2015-03-08T10:38:19Z</time>
      </trkpt>
      <trkpt lat="44.43813" lon="5.14831">
        <ele>956.64917</ele>
        <time>2015-03-08T10:38:29Z</time>
      </trkpt>
      <trkpt lat="44.43813" lon="5.14817">
        <ele>957.129883</ele>
        <time>2015-03-08T10:38:39Z</time>
      </trkpt>
      <trkpt lat="44.43811" lon="5.14796">
        <ele>958.571777</ele>
        <time>2015-03-08T10:38:52Z</time>
      </trkpt>
      <trkpt lat="44.4381" lon="5.14787">
        <ele>960.013672</ele>
        <time>2015-03-08T10:39:02Z</time>
      </trkpt>
      <trkpt lat="44.43805" lon="5.14781">
        <ele>960.975098</ele>
        <time>2015-03-08T10:39:10Z</time>
      </trkpt>
      <trkpt lat="44.43803" lon="5.14775">
        <ele>960.975098</ele>
        <time>2015-03-08T10:39:19Z</time>
      </trkpt>
      <trkpt lat="44.43801" lon="5.1477">
        <ele>960.494385</ele>
        <time>2015-03-08T10:39:32Z</time>
      </trkpt>
      <trkpt lat="44.438" lon="5.14766">
        <ele>960.013672</ele>
        <time>2015-03-08T10:39:44Z</time>
      </trkpt>
      <trkpt lat="44.43794" lon="5.14759">
        <ele>960.494385</ele>
        <time>2015-03-08T10:39:58Z</time>
      </trkpt>
      <trkpt lat="44.43792" lon="5.14755">
        <ele>961.455811</ele>
        <time>2015-03-08T10:40:14Z</time>
      </trkpt>
      <trkpt lat="44.43786" lon="5.14753">
        <ele>962.416992</ele>
        <time>2015-03-08T10:40:25Z</time>
      </trkpt>
      <trkpt lat="44.43784" lon="5.14751">
        <ele>962.416992</ele>
        <time>2015-03-08T10:40:39Z</time>
      </trkpt>
      <trkpt lat="44.43783" lon="5.14748">
        <ele>962.416992</ele>
        <time>2015-03-08T10:40:46Z</time>
      </trkpt>
      <trkpt lat="44.43782" lon="5.14746">
        <ele>963.378418</ele>
        <time>2015-03-08T10:40:57Z</time>
      </trkpt>
      <trkpt lat="44.43782" lon="5.14745">
        <ele>963.858887</ele>
        <time>2015-03-08T10:41:19Z</time>
      </trkpt>
      <trkpt lat="44.43782" lon="5.1474">
        <ele>965.781738</ele>
        <time>2015-03-08T10:41:37Z</time>
      </trkpt>
      <trkpt lat="44.43779" lon="5.14731">
        <ele>967.704102</ele>
        <time>2015-03-08T10:41:57Z</time>
      </trkpt>
      <trkpt lat="44.43778" lon="5.1473">
        <ele>968.665527</ele>
        <time>2015-03-08T10:42:10Z</time>
      </trkpt>
      <trkpt lat="44.43778" lon="5.14726">
        <ele>969.626953</ele>
        <time>2015-03-08T10:42:38Z</time>
      </trkpt>
      <trkpt lat="44.43774" lon="5.14722">
        <ele>971.549316</ele>
        <time>2015-03-08T10:43:01Z</time>
      </trkpt>
      <trkpt lat="44.43772" lon="5.14719">
        <ele>972.991699</ele>
        <time>2015-03-08T10:43:15Z</time>
      </trkpt>
      <trkpt lat="44.4377" lon="5.14715">
        <ele>974.914307</ele>
        <time>2015-03-08T10:43:28Z</time>
      </trkpt>
      <trkpt lat="44.43767" lon="5.14704">
        <ele>976.836914</ele>
        <time>2015-03-08T10:43:53Z</time>
      </trkpt>
      <trkpt lat="44.43766" lon="5.147">
        <ele>977.317627</ele>
        <time>2015-03-08T10:44:04Z</time>
      </trkpt>
      <trkpt lat="44.43764" lon="5.14695">
        <ele>978.278809</ele>
        <time>2015-03-08T10:44:14Z</time>
      </trkpt>
      <trkpt lat="44.43764" lon="5.14693">
        <ele>979.23999</ele>
        <time>2015-03-08T10:44:27Z</time>
      </trkpt>
      <trkpt lat="44.43761" lon="5.14699">
        <ele>980.201416</ele>
        <time>2015-03-08T10:44:39Z</time>
      </trkpt>
      <trkpt lat="44.43761" lon="5.14701">
        <ele>980.201416</ele>
        <time>2015-03-08T10:44:55Z</time>
      </trkpt>
      <trkpt lat="44.43761" lon="5.14705">
        <ele>981.162842</ele>
        <time>2015-03-08T10:45:22Z</time>
      </trkpt>
      <trkpt lat="44.4376" lon="5.14706">
        <ele>981.643311</ele>
        <time>2015-03-08T10:45:34Z</time>
      </trkpt>
      <trkpt lat="44.43761" lon="5.14707">
        <ele>981.643311</ele>
        <time>2015-03-08T10:45:52Z</time>
      </trkpt>
      <trkpt lat="44.4376" lon="5.14709">
        <ele>982.124023</ele>
        <time>2015-03-08T10:46:00Z</time>
      </trkpt>
      <trkpt lat="44.43757" lon="5.14709">
        <ele>984.046631</ele>
        <time>2015-03-08T10:46:13Z</time>
      </trkpt>
      <trkpt lat="44.4375" lon="5.14718">
        <ele>986.93042</ele>
        <time>2015-03-08T10:46:31Z</time>
      </trkpt>
      <trkpt lat="44.43746" lon="5.14722">
        <ele>989.333984</ele>
        <time>2015-03-08T10:46:42Z</time>
      </trkpt>
      <trkpt lat="44.43742" lon="5.14731">
        <ele>991.256592</ele>
        <time>2015-03-08T10:46:54Z</time>
      </trkpt>
      <trkpt lat="44.43743" lon="5.14734">
        <ele>990.775879</ele>
        <time>2015-03-08T10:47:03Z</time>
      </trkpt>
      <trkpt lat="44.43741" lon="5.14741">
        <ele>990.29541</ele>
        <time>2015-03-08T10:47:14Z</time>
      </trkpt>
      <trkpt lat="44.43735" lon="5.14746">
        <ele>991.256592</ele>
        <time>2015-03-08T10:47:24Z</time>
      </trkpt>
      <trkpt lat="44.43735" lon="5.14745">
        <ele>991.737305</ele>
        <time>2015-03-08T10:47:33Z</time>
      </trkpt>
      <trkpt lat="44.43736" lon="5.14743">
        <ele>992.69873</ele>
        <time>2015-03-08T10:47:51Z</time>
      </trkpt>
      <trkpt lat="44.43738" lon="5.14737">
        <ele>994.621094</ele>
        <time>2015-03-08T10:48:18Z</time>
      </trkpt>
      <trkpt lat="44.43738" lon="5.14733">
        <ele>995.58252</ele>
        <time>2015-03-08T10:48:45Z</time>
      </trkpt>
      <trkpt lat="44.43739" lon="5.1473">
        <ele>995.58252</ele>
        <time>2015-03-08T10:49:01Z</time>
      </trkpt>
      <trkpt lat="44.43739" lon="5.14728">
        <ele>996.543945</ele>
        <time>2015-03-08T10:49:08Z</time>
      </trkpt>
      <trkpt lat="44.43738" lon="5.14727">
        <ele>997.024414</ele>
        <time>2015-03-08T10:49:18Z</time>
      </trkpt>
      <trkpt lat="44.43736" lon="5.14727">
        <ele>997.98584</ele>
        <time>2015-03-08T10:49:34Z</time>
      </trkpt>
      <trkpt lat="44.43737" lon="5.14723">
        <ele>999.908447</ele>
        <time>2015-03-08T10:49:49Z</time>
      </trkpt>
      <trkpt lat="44.43733" lon="5.14724">
        <ele>1000.869629</ele>
        <time>2015-03-08T10:49:56Z</time>
      </trkpt>
      <trkpt lat="44.43732" lon="5.14727">
        <ele>1001.350342</ele>
        <time>2015-03-08T10:50:04Z</time>
      </trkpt>
      <trkpt lat="44.43728" lon="5.14728">
        <ele>1002.311523</ele>
        <time>2015-03-08T10:51:21Z</time>
      </trkpt>
      <trkpt lat="44.43727" lon="5.14724">
        <ele>1003.272949</ele>
        <time>2015-03-08T10:51:38Z</time>
      </trkpt>
      <trkpt lat="44.43729" lon="5.14719">
        <ele>1003.753662</ele>
        <time>2015-03-08T10:51:47Z</time>
      </trkpt>
      <trkpt lat="44.43729" lon="5.14717">
        <ele>1004.234619</ele>
        <time>2015-03-08T10:52:05Z</time>
      </trkpt>
      <trkpt lat="44.43729" lon="5.14714">
        <ele>1005.676514</ele>
        <time>2015-03-08T10:52:17Z</time>
      </trkpt>
      <trkpt lat="44.43725" lon="5.14715">
        <ele>1006.637695</ele>
        <time>2015-03-08T10:52:29Z</time>
      </trkpt>
      <trkpt lat="44.43725" lon="5.14713">
        <ele>1008.079834</ele>
        <time>2015-03-08T10:52:36Z</time>
      </trkpt>
      <trkpt lat="44.43726" lon="5.14712">
        <ele>1008.560303</ele>
        <time>2015-03-08T10:52:48Z</time>
      </trkpt>
      <trkpt lat="44.43727" lon="5.14709">
        <ele>1009.521729</ele>
        <time>2015-03-08T10:53:01Z</time>
      </trkpt>
      <trkpt lat="44.43727" lon="5.14705">
        <ele>1010.963623</ele>
        <time>2015-03-08T10:53:08Z</time>
      </trkpt>
      <trkpt lat="44.43731" lon="5.14701">
        <ele>1010.48291</ele>
        <time>2015-03-08T10:53:15Z</time>
      </trkpt>
      <trkpt lat="44.43734" lon="5.14698">
        <ele>1010.48291</ele>
        <time>2015-03-08T10:53:25Z</time>
      </trkpt>
      <trkpt lat="44.43735" lon="5.14695">
        <ele>1011.444336</ele>
        <time>2015-03-08T10:53:34Z</time>
      </trkpt>
      <trkpt lat="44.43736" lon="5.14691">
        <ele>1011.925049</ele>
        <time>2015-03-08T10:53:44Z</time>
      </trkpt>
      <trkpt lat="44.43738" lon="5.14686">
        <ele>1013.366943</ele>
        <time>2015-03-08T10:53:54Z</time>
      </trkpt>
      <trkpt lat="44.4374" lon="5.1468">
        <ele>1013.366943</ele>
        <time>2015-03-08T10:54:04Z</time>
      </trkpt>
      <trkpt lat="44.4374" lon="5.1468">
        <ele>1014.808838</ele>
        <time>2015-03-08T10:54:11Z</time>
      </trkpt>
      <trkpt lat="44.43737" lon="5.14682">
        <ele>1016.250732</ele>
        <time>2015-03-08T10:54:18Z</time>
      </trkpt>
      <trkpt lat="44.43734" lon="5.14685">
        <ele>1016.250732</ele>
        <time>2015-03-08T10:54:23Z</time>
      </trkpt>
      <trkpt lat="44.43729" lon="5.1469">
        <ele>1017.212158</ele>
        <time>2015-03-08T10:54:30Z</time>
      </trkpt>
      <trkpt lat="44.43726" lon="5.14692">
        <ele>1018.17334</ele>
        <time>2015-03-08T10:54:37Z</time>
      </trkpt>
      <trkpt lat="44.43721" lon="5.14694">
        <ele>1019.615479</ele>
        <time>2015-03-08T10:54:50Z</time>
      </trkpt>
      <trkpt lat="44.43718" lon="5.14695">
        <ele>1020.096191</ele>
        <time>2015-03-08T10:54:58Z</time>
      </trkpt>
      <trkpt lat="44.43718" lon="5.1469">
        <ele>1021.538086</ele>
        <time>2015-03-08T10:55:08Z</time>
      </trkpt>
      <trkpt lat="44.4372" lon="5.14688">
        <ele>1022.018799</ele>
        <time>2015-03-08T10:55:16Z</time>
      </trkpt>
      <trkpt lat="44.43723" lon="5.14684">
        <ele>1022.499512</ele>
        <time>2015-03-08T10:55:26Z</time>
      </trkpt>
      <trkpt lat="44.43724" lon="5.14681">
        <ele>1022.980225</ele>
        <time>2015-03-08T10:55:35Z</time>
      </trkpt>
      <trkpt lat="44.43723" lon="5.14677">
        <ele>1023.941406</ele>
        <time>2015-03-08T10:55:41Z</time>
      </trkpt>
      <trkpt lat="44.43723" lon="5.14675">
        <ele>1024.422119</ele>
        <time>2015-03-08T10:56:16Z</time>
      </trkpt>
      <trkpt lat="44.43722" lon="5.14671">
        <ele>1026.344727</ele>
        <time>2015-03-08T10:56:23Z</time>
      </trkpt>
      <trkpt lat="44.43722" lon="5.14671">
        <ele>1026.344727</ele>
        <time>2015-03-08T10:56:40Z</time>
      </trkpt>
      <trkpt lat="44.43723" lon="5.14669">
        <ele>1027.786621</ele>
        <time>2015-03-08T10:56:59Z</time>
      </trkpt>
      <trkpt lat="44.43723" lon="5.14668">
        <ele>1028.267334</ele>
        <time>2015-03-08T10:57:09Z</time>
      </trkpt>
      <trkpt lat="44.43724" lon="5.14666">
        <ele>1028.748047</ele>
        <time>2015-03-08T10:57:16Z</time>
      </trkpt>
      <trkpt lat="44.43723" lon="5.14664">
        <ele>1029.709229</ele>
        <time>2015-03-08T10:57:29Z</time>
      </trkpt>
      <trkpt lat="44.43724" lon="5.14663">
        <ele>1030.670654</ele>
        <time>2015-03-08T10:57:42Z</time>
      </trkpt>
      <trkpt lat="44.43722" lon="5.14662">
        <ele>1031.151367</ele>
        <time>2015-03-08T10:57:48Z</time>
      </trkpt>
      <trkpt lat="44.43721" lon="5.1466">
        <ele>1032.112549</ele>
        <time>2015-03-08T10:57:56Z</time>
      </trkpt>
      <trkpt lat="44.43723" lon="5.14657">
        <ele>1032.112549</ele>
        <time>2015-03-08T10:58:06Z</time>
      </trkpt>
      <trkpt lat="44.43724" lon="5.14655">
        <ele>1032.112549</ele>
        <time>2015-03-08T10:58:14Z</time>
      </trkpt>
      <trkpt lat="44.43725" lon="5.14653">
        <ele>1033.07373</ele>
        <time>2015-03-08T10:58:21Z</time>
      </trkpt>
      <trkpt lat="44.43726" lon="5.14649">
        <ele>1034.515869</ele>
        <time>2015-03-08T10:58:33Z</time>
      </trkpt>
      <trkpt lat="44.43726" lon="5.14649">
        <ele>1034.035156</ele>
        <time>2015-03-08T10:58:34Z</time>
      </trkpt>
      <trkpt lat="44.43724" lon="5.1465">
        <ele>1033.07373</ele>
        <time>2015-03-08T10:58:39Z</time>
      </trkpt>
      <trkpt lat="44.43724" lon="5.14647">
        <ele>1034.515869</ele>
        <time>2015-03-08T10:58:47Z</time>
      </trkpt>
      <trkpt lat="44.43725" lon="5.14642">
        <ele>1035.957764</ele>
        <time>2015-03-08T10:59:00Z</time>
      </trkpt>
      <trkpt lat="44.43725" lon="5.14642">
        <ele>1035.477051</ele>
        <time>2015-03-08T10:59:18Z</time>
      </trkpt>
      <trkpt lat="44.43723" lon="5.1464">
        <ele>1036.919189</ele>
        <time>2015-03-08T10:59:26Z</time>
      </trkpt>
      <trkpt lat="44.43723" lon="5.14638">
        <ele>1037.399902</ele>
        <time>2015-03-08T10:59:36Z</time>
      </trkpt>
      <trkpt lat="44.43723" lon="5.14635">
        <ele>1038.361328</ele>
        <time>2015-03-08T10:59:43Z</time>
      </trkpt>
      <trkpt lat="44.43721" lon="5.14635">
        <ele>1040.283936</ele>
        <time>2015-03-08T10:59:52Z</time>
      </trkpt>
      <trkpt lat="44.43718" lon="5.14637">
        <ele>1041.245117</ele>
        <time>2015-03-08T11:00:03Z</time>
      </trkpt>
      <trkpt lat="44.43716" lon="5.1464">
        <ele>1042.206543</ele>
        <time>2015-03-08T11:00:15Z</time>
      </trkpt>
      <trkpt lat="44.43714" lon="5.14641">
        <ele>1043.167725</ele>
        <time>2015-03-08T11:00:25Z</time>
      </trkpt>
      <trkpt lat="44.43713" lon="5.1464">
        <ele>1044.12915</ele>
        <time>2015-03-08T11:00:31Z</time>
      </trkpt>
      <trkpt lat="44.43714" lon="5.14638">
        <ele>1045.090332</ele>
        <time>2015-03-08T11:00:39Z</time>
      </trkpt>
      <trkpt lat="44.43713" lon="5.14638">
        <ele>1045.571045</ele>
        <time>2015-03-08T11:00:52Z</time>
      </trkpt>
      <trkpt lat="44.4371" lon="5.14637">
        <ele>1046.051758</ele>
        <time>2015-03-08T11:01:01Z</time>
      </trkpt>
      <trkpt lat="44.43708" lon="5.14638">
        <ele>1047.012939</ele>
        <time>2015-03-08T11:01:29Z</time>
      </trkpt>
      <trkpt lat="44.43706" lon="5.14636">
        <ele>1048.454834</ele>
        <time>2015-03-08T11:01:35Z</time>
      </trkpt>
      <trkpt lat="44.43704" lon="5.14633">
        <ele>1049.896973</ele>
        <time>2015-03-08T11:01:41Z</time>
      </trkpt>
      <trkpt lat="44.43703" lon="5.14631">
        <ele>1051.338867</ele>
        <time>2015-03-08T11:01:48Z</time>
      </trkpt>
      <trkpt lat="44.43704" lon="5.14629">
        <ele>1052.781006</ele>
        <time>2015-03-08T11:01:59Z</time>
      </trkpt>
      <trkpt lat="44.43702" lon="5.14624">
        <ele>1053.742432</ele>
        <time>2015-03-08T11:02:05Z</time>
      </trkpt>
      <trkpt lat="44.43701" lon="5.14619">
        <ele>1054.703613</ele>
        <time>2015-03-08T11:02:13Z</time>
      </trkpt>
      <trkpt lat="44.43701" lon="5.14617">
        <ele>1055.665039</ele>
        <time>2015-03-08T11:02:19Z</time>
      </trkpt>
      <trkpt lat="44.43702" lon="5.14611">
        <ele>1057.587646</ele>
        <time>2015-03-08T11:02:30Z</time>
      </trkpt>
      <trkpt lat="44.43702" lon="5.14605">
        <ele>1059.029541</ele>
        <time>2015-03-08T11:02:40Z</time>
      </trkpt>
      <trkpt lat="44.43701" lon="5.146">
        <ele>1060.471436</ele>
        <time>2015-03-08T11:02:50Z</time>
      </trkpt>
      <trkpt lat="44.437" lon="5.14598">
        <ele>1061.913574</ele>
        <time>2015-03-08T11:02:58Z</time>
      </trkpt>
      <trkpt lat="44.43696" lon="5.14596">
        <ele>1062.874756</ele>
        <time>2015-03-08T11:03:08Z</time>
      </trkpt>
      <trkpt lat="44.4369" lon="5.14597">
        <ele>1063.355469</ele>
        <time>2015-03-08T11:03:21Z</time>
      </trkpt>
      <trkpt lat="44.43693" lon="5.14598">
        <ele>1062.874756</ele>
        <time>2015-03-08T11:03:37Z</time>
      </trkpt>
      <trkpt lat="44.43691" lon="5.14597">
        <ele>1062.874756</ele>
        <time>2015-03-08T11:04:20Z</time>
      </trkpt>
      <trkpt lat="44.43687" lon="5.14596">
        <ele>1062.874756</ele>
        <time>2015-03-08T11:04:31Z</time>
      </trkpt>
      <trkpt lat="44.43685" lon="5.14599">
        <ele>1062.874756</ele>
        <time>2015-03-08T11:04:43Z</time>
      </trkpt>
      <trkpt lat="44.43685" lon="5.14599">
        <ele>1062.394043</ele>
        <time>2015-03-08T11:06:03Z</time>
      </trkpt>
      <trkpt lat="44.43685" lon="5.14599">
        <ele>1062.394043</ele>
        <time>2015-03-08T11:06:58Z</time>
      </trkpt>
      <trkpt lat="44.43685" lon="5.14599">
        <ele>1062.394043</ele>
        <time>2015-03-08T11:07:19Z</time>
      </trkpt>
      <trkpt lat="44.43684" lon="5.14599">
        <ele>1062.394043</ele>
        <time>2015-03-08T11:07:30Z</time>
      </trkpt>
      <trkpt lat="44.43681" lon="5.14599">
        <ele>1062.874756</ele>
        <time>2015-03-08T11:07:55Z</time>
      </trkpt>
      <trkpt lat="44.4368" lon="5.14599">
        <ele>1062.394043</ele>
        <time>2015-03-08T11:08:55Z</time>
      </trkpt>
      <trkpt lat="44.43681" lon="5.14599">
        <ele>1062.394043</ele>
        <time>2015-03-08T11:09:17Z</time>
      </trkpt>
      <trkpt lat="44.43681" lon="5.14599">
        <ele>1062.394043</ele>
        <time>2015-03-08T11:09:28Z</time>
      </trkpt>
      <trkpt lat="44.43675" lon="5.14598">
        <ele>1062.874756</ele>
        <time>2015-03-08T11:09:54Z</time>
      </trkpt>
      <trkpt lat="44.43663" lon="5.14595">
        <ele>1063.355469</ele>
        <time>2015-03-08T11:10:09Z</time>
      </trkpt>
      <trkpt lat="44.43652" lon="5.14592">
        <ele>1064.31665</ele>
        <time>2015-03-08T11:10:23Z</time>
      </trkpt>
      <trkpt lat="44.4365" lon="5.14592">
        <ele>1064.31665</ele>
        <time>2015-03-08T11:10:25Z</time>
      </trkpt>
      <trkpt lat="44.43639" lon="5.14591">
        <ele>1065.278076</ele>
        <time>2015-03-08T11:10:39Z</time>
      </trkpt>
      <trkpt lat="44.43628" lon="5.14589">
        <ele>1066.239258</ele>
        <time>2015-03-08T11:10:53Z</time>
      </trkpt>
      <trkpt lat="44.43616" lon="5.14588">
        <ele>1066.719971</ele>
        <time>2015-03-08T11:11:06Z</time>
      </trkpt>
      <trkpt lat="44.43604" lon="5.14584">
        <ele>1067.200684</ele>
        <time>2015-03-08T11:11:19Z</time>
      </trkpt>
      <trkpt lat="44.43597" lon="5.14583">
        <ele>1067.200684</ele>
        <time>2015-03-08T11:11:27Z</time>
      </trkpt>
      <trkpt lat="44.4359" lon="5.14582">
        <ele>1067.681152</ele>
        <time>2015-03-08T11:11:35Z</time>
      </trkpt>
      <trkpt lat="44.43578" lon="5.14582">
        <ele>1068.642822</ele>
        <time>2015-03-08T11:11:48Z</time>
      </trkpt>
      <trkpt lat="44.43564" lon="5.1458">
        <ele>1069.123535</ele>
        <time>2015-03-08T11:12:01Z</time>
      </trkpt>
      <trkpt lat="44.43552" lon="5.14577">
        <ele>1070.084717</ele>
        <time>2015-03-08T11:12:13Z</time>
      </trkpt>
      <trkpt lat="44.43536" lon="5.14575">
        <ele>1071.046143</ele>
        <time>2015-03-08T11:12:28Z</time>
      </trkpt>
      <trkpt lat="44.43528" lon="5.14575">
        <ele>1071.046143</ele>
        <time>2015-03-08T11:12:38Z</time>
      </trkpt>
      <trkpt lat="44.43515" lon="5.14574">
        <ele>1072.488037</ele>
        <time>2015-03-08T11:12:53Z</time>
      </trkpt>
      <trkpt lat="44.43503" lon="5.14572">
        <ele>1073.929932</ele>
        <time>2015-03-08T11:13:06Z</time>
      </trkpt>
      <trkpt lat="44.43495" lon="5.14569">
        <ele>1075.371826</ele>
        <time>2015-03-08T11:13:17Z</time>
      </trkpt>
      <trkpt lat="44.43487" lon="5.14566">
        <ele>1076.333252</ele>
        <time>2015-03-08T11:13:27Z</time>
      </trkpt>
      <trkpt lat="44.43476" lon="5.14563">
        <ele>1077.775146</ele>
        <time>2015-03-08T11:13:41Z</time>
      </trkpt>
      <trkpt lat="44.43465" lon="5.14557">
        <ele>1079.217041</ele>
        <time>2015-03-08T11:13:54Z</time>
      </trkpt>
      <trkpt lat="44.43453" lon="5.14549">
        <ele>1079.697754</ele>
        <time>2015-03-08T11:14:07Z</time>
      </trkpt>
      <trkpt lat="44.43443" lon="5.14543">
        <ele>1079.697754</ele>
        <time>2015-03-08T11:14:18Z</time>
      </trkpt>
      <trkpt lat="44.43432" lon="5.14533">
        <ele>1080.65918</ele>
        <time>2015-03-08T11:14:30Z</time>
      </trkpt>
      <trkpt lat="44.43421" lon="5.14526">
        <ele>1080.65918</ele>
        <time>2015-03-08T11:14:42Z</time>
      </trkpt>
      <trkpt lat="44.43413" lon="5.14517">
        <ele>1080.65918</ele>
        <time>2015-03-08T11:14:52Z</time>
      </trkpt>
      <trkpt lat="44.43403" lon="5.14507">
        <ele>1081.139893</ele>
        <time>2015-03-08T11:15:06Z</time>
      </trkpt>
      <trkpt lat="44.43397" lon="5.14494">
        <ele>1081.139893</ele>
        <time>2015-03-08T11:15:18Z</time>
      </trkpt>
      <trkpt lat="44.43396" lon="5.1449">
        <ele>1081.139893</ele>
        <time>2015-03-08T11:15:22Z</time>
      </trkpt>
      <trkpt lat="44.43392" lon="5.14484">
        <ele>1081.139893</ele>
        <time>2015-03-08T11:15:27Z</time>
      </trkpt>
      <trkpt lat="44.4339" lon="5.14481">
        <ele>1080.65918</ele>
        <time>2015-03-08T11:15:29Z</time>
      </trkpt>
      <trkpt lat="44.43385" lon="5.14477">
        <ele>1080.65918</ele>
        <time>2015-03-08T11:15:35Z</time>
      </trkpt>
      <trkpt lat="44.4338" lon="5.14468">
        <ele>1080.178467</ele>
        <time>2015-03-08T11:15:44Z</time>
      </trkpt>
      <trkpt lat="44.43375" lon="5.14465">
        <ele>1080.65918</ele>
        <time>2015-03-08T11:15:53Z</time>
      </trkpt>
      <trkpt lat="44.43369" lon="5.14467">
        <ele>1079.697754</ele>
        <time>2015-03-08T11:16:03Z</time>
      </trkpt>
      <trkpt lat="44.43365" lon="5.14468">
        <ele>1079.217041</ele>
        <time>2015-03-08T11:16:10Z</time>
      </trkpt>
      <trkpt lat="44.43356" lon="5.1446">
        <ele>1078.255859</ele>
        <time>2015-03-08T11:16:22Z</time>
      </trkpt>
      <trkpt lat="44.4335" lon="5.14458">
        <ele>1077.775146</ele>
        <time>2015-03-08T11:16:30Z</time>
      </trkpt>
      <trkpt lat="44.43345" lon="5.14459">
        <ele>1077.294678</ele>
        <time>2015-03-08T11:16:37Z</time>
      </trkpt>
      <trkpt lat="44.4334" lon="5.14457">
        <ele>1075.852539</ele>
        <time>2015-03-08T11:16:46Z</time>
      </trkpt>
      <trkpt lat="44.43336" lon="5.14458">
        <ele>1074.410645</ele>
        <time>2015-03-08T11:16:55Z</time>
      </trkpt>
      <trkpt lat="44.43334" lon="5.14459">
        <ele>1073.449463</ele>
        <time>2015-03-08T11:17:04Z</time>
      </trkpt>
      <trkpt lat="44.43331" lon="5.14458">
        <ele>1073.449463</ele>
        <time>2015-03-08T11:17:17Z</time>
      </trkpt>
      <trkpt lat="44.4333" lon="5.14457">
        <ele>1073.929932</ele>
        <time>2015-03-08T11:17:25Z</time>
      </trkpt>
      <trkpt lat="44.43323" lon="5.14453">
        <ele>1073.929932</ele>
        <time>2015-03-08T11:17:36Z</time>
      </trkpt>
      <trkpt lat="44.43319" lon="5.14449">
        <ele>1073.449463</ele>
        <time>2015-03-08T11:17:43Z</time>
      </trkpt>
      <trkpt lat="44.43316" lon="5.14444">
        <ele>1072.96875</ele>
        <time>2015-03-08T11:17:50Z</time>
      </trkpt>
      <trkpt lat="44.43312" lon="5.14441">
        <ele>1072.488037</ele>
        <time>2015-03-08T11:18:00Z</time>
      </trkpt>
      <trkpt lat="44.43309" lon="5.14437">
        <ele>1072.007324</ele>
        <time>2015-03-08T11:18:09Z</time>
      </trkpt>
      <trkpt lat="44.43304" lon="5.14432">
        <ele>1072.007324</ele>
        <time>2015-03-08T11:18:19Z</time>
      </trkpt>
      <trkpt lat="44.433" lon="5.14426">
        <ele>1072.007324</ele>
        <time>2015-03-08T11:18:28Z</time>
      </trkpt>
      <trkpt lat="44.43296" lon="5.14422">
        <ele>1072.488037</ele>
        <time>2015-03-08T11:18:37Z</time>
      </trkpt>
      <trkpt lat="44.43292" lon="5.14415">
        <ele>1072.488037</ele>
        <time>2015-03-08T11:18:46Z</time>
      </trkpt>
      <trkpt lat="44.43288" lon="5.1441">
        <ele>1072.007324</ele>
        <time>2015-03-08T11:18:55Z</time>
      </trkpt>
      <trkpt lat="44.43282" lon="5.14405">
        <ele>1071.526611</ele>
        <time>2015-03-08T11:19:03Z</time>
      </trkpt>
      <trkpt lat="44.43281" lon="5.14404">
        <ele>1071.526611</ele>
        <time>2015-03-08T11:19:05Z</time>
      </trkpt>
      <trkpt lat="44.43275" lon="5.14401">
        <ele>1071.046143</ele>
        <time>2015-03-08T11:19:13Z</time>
      </trkpt>
      <trkpt lat="44.43274" lon="5.14399">
        <ele>1070.56543</ele>
        <time>2015-03-08T11:19:15Z</time>
      </trkpt>
      <trkpt lat="44.43269" lon="5.14396">
        <ele>1070.56543</ele>
        <time>2015-03-08T11:19:20Z</time>
      </trkpt>
      <trkpt lat="44.43261" lon="5.14391">
        <ele>1069.604248</ele>
        <time>2015-03-08T11:19:29Z</time>
      </trkpt>
      <trkpt lat="44.43258" lon="5.14389">
        <ele>1068.642822</ele>
        <time>2015-03-08T11:19:34Z</time>
      </trkpt>
      <trkpt lat="44.43251" lon="5.14387">
        <ele>1067.681152</ele>
        <time>2015-03-08T11:19:41Z</time>
      </trkpt>
      <trkpt lat="44.43246" lon="5.1439">
        <ele>1066.719971</ele>
        <time>2015-03-08T11:19:46Z</time>
      </trkpt>
      <trkpt lat="44.43244" lon="5.14395">
        <ele>1064.31665</ele>
        <time>2015-03-08T11:19:57Z</time>
      </trkpt>
      <trkpt lat="44.43242" lon="5.14398">
        <ele>1063.835938</ele>
        <time>2015-03-08T11:20:01Z</time>
      </trkpt>
      <trkpt lat="44.43238" lon="5.14397">
        <ele>1062.874756</ele>
        <time>2015-03-08T11:20:07Z</time>
      </trkpt>
      <trkpt lat="44.43232" lon="5.1439">
        <ele>1062.394043</ele>
        <time>2015-03-08T11:20:15Z</time>
      </trkpt>
      <trkpt lat="44.43228" lon="5.14382">
        <ele>1061.913574</ele>
        <time>2015-03-08T11:20:22Z</time>
      </trkpt>
      <trkpt lat="44.43224" lon="5.14379">
        <ele>1061.913574</ele>
        <time>2015-03-08T11:20:26Z</time>
      </trkpt>
      <trkpt lat="44.43219" lon="5.14371">
        <ele>1061.432861</ele>
        <time>2015-03-08T11:20:33Z</time>
      </trkpt>
      <trkpt lat="44.43215" lon="5.14366">
        <ele>1060.952148</ele>
        <time>2015-03-08T11:20:40Z</time>
      </trkpt>
      <trkpt lat="44.43209" lon="5.14365">
        <ele>1060.471436</ele>
        <time>2015-03-08T11:20:48Z</time>
      </trkpt>
      <trkpt lat="44.43203" lon="5.1437">
        <ele>1059.029541</ele>
        <time>2015-03-08T11:20:56Z</time>
      </trkpt>
      <trkpt lat="44.43202" lon="5.14372">
        <ele>1059.029541</ele>
        <time>2015-03-08T11:20:58Z</time>
      </trkpt>
      <trkpt lat="44.43197" lon="5.14372">
        <ele>1058.068359</ele>
        <time>2015-03-08T11:21:07Z</time>
      </trkpt>
      <trkpt lat="44.43188" lon="5.14371">
        <ele>1058.548828</ele>
        <time>2015-03-08T11:21:17Z</time>
      </trkpt>
      <trkpt lat="44.43185" lon="5.14374">
        <ele>1058.548828</ele>
        <time>2015-03-08T11:21:23Z</time>
      </trkpt>
      <trkpt lat="44.4318" lon="5.14382">
        <ele>1059.029541</ele>
        <time>2015-03-08T11:21:32Z</time>
      </trkpt>
      <trkpt lat="44.43176" lon="5.1439">
        <ele>1059.029541</ele>
        <time>2015-03-08T11:21:40Z</time>
      </trkpt>
      <trkpt lat="44.4317" lon="5.14393">
        <ele>1059.510254</ele>
        <time>2015-03-08T11:21:48Z</time>
      </trkpt>
      <trkpt lat="44.43166" lon="5.14393">
        <ele>1060.471436</ele>
        <time>2015-03-08T11:21:54Z</time>
      </trkpt>
      <trkpt lat="44.43162" lon="5.14396">
        <ele>1060.471436</ele>
        <time>2015-03-08T11:22:00Z</time>
      </trkpt>
      <trkpt lat="44.43161" lon="5.14398">
        <ele>1060.952148</ele>
        <time>2015-03-08T11:22:02Z</time>
      </trkpt>
      <trkpt lat="44.43157" lon="5.14401">
        <ele>1061.432861</ele>
        <time>2015-03-08T11:22:09Z</time>
      </trkpt>
      <trkpt lat="44.43153" lon="5.14401">
        <ele>1061.913574</ele>
        <time>2015-03-08T11:22:18Z</time>
      </trkpt>
      <trkpt lat="44.43153" lon="5.14402">
        <ele>1062.394043</ele>
        <time>2015-03-08T11:22:25Z</time>
      </trkpt>
      <trkpt lat="44.43153" lon="5.14402">
        <ele>1062.874756</ele>
        <time>2015-03-08T11:23:02Z</time>
      </trkpt>
      <trkpt lat="44.43153" lon="5.14402">
        <ele>1062.394043</ele>
        <time>2015-03-08T11:23:03Z</time>
      </trkpt>
      <trkpt lat="44.43152" lon="5.14412">
        <ele>1061.913574</ele>
        <time>2015-03-08T11:23:11Z</time>
      </trkpt>
      <trkpt lat="44.43151" lon="5.14429">
        <ele>1062.394043</ele>
        <time>2015-03-08T11:23:23Z</time>
      </trkpt>
      <trkpt lat="44.43147" lon="5.14441">
        <ele>1062.394043</ele>
        <time>2015-03-08T11:23:36Z</time>
      </trkpt>
      <trkpt lat="44.43145" lon="5.14456">
        <ele>1062.874756</ele>
        <time>2015-03-08T11:23:49Z</time>
      </trkpt>
      <trkpt lat="44.43144" lon="5.14464">
        <ele>1062.874756</ele>
        <time>2015-03-08T11:23:58Z</time>
      </trkpt>
      <trkpt lat="44.43143" lon="5.14474">
        <ele>1063.835938</ele>
        <time>2015-03-08T11:24:07Z</time>
      </trkpt>
      <trkpt lat="44.43142" lon="5.14484">
        <ele>1064.31665</ele>
        <time>2015-03-08T11:24:16Z</time>
      </trkpt>
      <trkpt lat="44.43142" lon="5.14487">
        <ele>1064.31665</ele>
        <time>2015-03-08T11:24:24Z</time>
      </trkpt>
      <trkpt lat="44.4314" lon="5.1449">
        <ele>1065.278076</ele>
        <time>2015-03-08T11:24:32Z</time>
      </trkpt>
      <trkpt lat="44.43139" lon="5.145">
        <ele>1066.239258</ele>
        <time>2015-03-08T11:24:42Z</time>
      </trkpt>
      <trkpt lat="44.43138" lon="5.14505">
        <ele>1066.719971</ele>
        <time>2015-03-08T11:24:49Z</time>
      </trkpt>
      <trkpt lat="44.43138" lon="5.14514">
        <ele>1067.200684</ele>
        <time>2015-03-08T11:24:57Z</time>
      </trkpt>
      <trkpt lat="44.43138" lon="5.14528">
        <ele>1067.200684</ele>
        <time>2015-03-08T11:25:07Z</time>
      </trkpt>
      <trkpt lat="44.43138" lon="5.1454">
        <ele>1068.642822</ele>
        <time>2015-03-08T11:25:17Z</time>
      </trkpt>
      <trkpt lat="44.43137" lon="5.1455">
        <ele>1069.604248</ele>
        <time>2015-03-08T11:25:26Z</time>
      </trkpt>
      <trkpt lat="44.43135" lon="5.14564">
        <ele>1071.526611</ele>
        <time>2015-03-08T11:25:38Z</time>
      </trkpt>
      <trkpt lat="44.43131" lon="5.1457">
        <ele>1073.449463</ele>
        <time>2015-03-08T11:25:47Z</time>
      </trkpt>
      <trkpt lat="44.43126" lon="5.1458">
        <ele>1075.371826</ele>
        <time>2015-03-08T11:25:58Z</time>
      </trkpt>
      <trkpt lat="44.43122" lon="5.14587">
        <ele>1077.775146</ele>
        <time>2015-03-08T11:26:10Z</time>
      </trkpt>
      <trkpt lat="44.4312" lon="5.14592">
        <ele>1079.697754</ele>
        <time>2015-03-08T11:26:21Z</time>
      </trkpt>
      <trkpt lat="44.43119" lon="5.14603">
        <ele>1081.620361</ele>
        <time>2015-03-08T11:26:32Z</time>
      </trkpt>
      <trkpt lat="44.43117" lon="5.14612">
        <ele>1083.062256</ele>
        <time>2015-03-08T11:26:42Z</time>
      </trkpt>
      <trkpt lat="44.43114" lon="5.14618">
        <ele>1084.985352</ele>
        <time>2015-03-08T11:26:51Z</time>
      </trkpt>
      <trkpt lat="44.43111" lon="5.14622">
        <ele>1087.388428</ele>
        <time>2015-03-08T11:27:00Z</time>
      </trkpt>
      <trkpt lat="44.43113" lon="5.14619">
        <ele>1087.388428</ele>
        <time>2015-03-08T11:27:07Z</time>
      </trkpt>
      <trkpt lat="44.4311" lon="5.1462">
        <ele>1088.830566</ele>
        <time>2015-03-08T11:27:14Z</time>
      </trkpt>
      <trkpt lat="44.43106" lon="5.14622">
        <ele>1090.272461</ele>
        <time>2015-03-08T11:27:21Z</time>
      </trkpt>
      <trkpt lat="44.43104" lon="5.14626">
        <ele>1091.714355</ele>
        <time>2015-03-08T11:27:26Z</time>
      </trkpt>
      <trkpt lat="44.43101" lon="5.14635">
        <ele>1093.636963</ele>
        <time>2015-03-08T11:27:35Z</time>
      </trkpt>
      <trkpt lat="44.43098" lon="5.14637">
        <ele>1095.078857</ele>
        <time>2015-03-08T11:27:41Z</time>
      </trkpt>
      <trkpt lat="44.43096" lon="5.14635">
        <ele>1096.520996</ele>
        <time>2015-03-08T11:27:51Z</time>
      </trkpt>
      <trkpt lat="44.43088" lon="5.14639">
        <ele>1098.443359</ele>
        <time>2015-03-08T11:27:58Z</time>
      </trkpt>
      <trkpt lat="44.43083" lon="5.14637">
        <ele>1099.404785</ele>
        <time>2015-03-08T11:28:04Z</time>
      </trkpt>
      <trkpt lat="44.43078" lon="5.1464">
        <ele>1101.80835</ele>
        <time>2015-03-08T11:28:13Z</time>
      </trkpt>
      <trkpt lat="44.43074" lon="5.14646">
        <ele>1104.21167</ele>
        <time>2015-03-08T11:28:24Z</time>
      </trkpt>
      <trkpt lat="44.4307" lon="5.14648">
        <ele>1106.134033</ele>
        <time>2015-03-08T11:28:32Z</time>
      </trkpt>
      <trkpt lat="44.43064" lon="5.1465">
        <ele>1107.576172</ele>
        <time>2015-03-08T11:28:40Z</time>
      </trkpt>
      <trkpt lat="44.4306" lon="5.14652">
        <ele>1109.018066</ele>
        <time>2015-03-08T11:28:47Z</time>
      </trkpt>
      <trkpt lat="44.43054" lon="5.14652">
        <ele>1110.459961</ele>
        <time>2015-03-08T11:28:54Z</time>
      </trkpt>
      <trkpt lat="44.43048" lon="5.14654">
        <ele>1112.863281</ele>
        <time>2015-03-08T11:29:05Z</time>
      </trkpt>
      <trkpt lat="44.43044" lon="5.14652">
        <ele>1114.305176</ele>
        <time>2015-03-08T11:29:11Z</time>
      </trkpt>
      <trkpt lat="44.43041" lon="5.14648">
        <ele>1115.747314</ele>
        <time>2015-03-08T11:29:19Z</time>
      </trkpt>
      <trkpt lat="44.43039" lon="5.14651">
        <ele>1117.189453</ele>
        <time>2015-03-08T11:29:29Z</time>
      </trkpt>
      <trkpt lat="44.43037" lon="5.14651">
        <ele>1117.669922</ele>
        <time>2015-03-08T11:29:34Z</time>
      </trkpt>
      <trkpt lat="44.43034" lon="5.14651">
        <ele>1118.150635</ele>
        <time>2015-03-08T11:29:38Z</time>
      </trkpt>
      <trkpt lat="44.43032" lon="5.14649">
        <ele>1118.631348</ele>
        <time>2015-03-08T11:29:40Z</time>
      </trkpt>
      <trkpt lat="44.43029" lon="5.14649">
        <ele>1119.592773</ele>
        <time>2015-03-08T11:29:47Z</time>
      </trkpt>
      <trkpt lat="44.43026" lon="5.14645">
        <ele>1121.034668</ele>
        <time>2015-03-08T11:29:54Z</time>
      </trkpt>
      <trkpt lat="44.43024" lon="5.14643">
        <ele>1121.034668</ele>
        <time>2015-03-08T11:29:56Z</time>
      </trkpt>
      <trkpt lat="44.43022" lon="5.1464">
        <ele>1121.99585</ele>
        <time>2015-03-08T11:30:01Z</time>
      </trkpt>
      <trkpt lat="44.43019" lon="5.1463">
        <ele>1123.437988</ele>
        <time>2015-03-08T11:30:11Z</time>
      </trkpt>
      <trkpt lat="44.43018" lon="5.14627">
        <ele>1123.918457</ele>
        <time>2015-03-08T11:30:14Z</time>
      </trkpt>
      <trkpt lat="44.43016" lon="5.14622">
        <ele>1124.39917</ele>
        <time>2015-03-08T11:30:19Z</time>
      </trkpt>
      <trkpt lat="44.43015" lon="5.14616">
        <ele>1124.879883</ele>
        <time>2015-03-08T11:30:24Z</time>
      </trkpt>
      <trkpt lat="44.43011" lon="5.14607">
        <ele>1125.360352</ele>
        <time>2015-03-08T11:30:31Z</time>
      </trkpt>
      <trkpt lat="44.43011" lon="5.14605">
        <ele>1125.841064</ele>
        <time>2015-03-08T11:30:33Z</time>
      </trkpt>
      <trkpt lat="44.43009" lon="5.14596">
        <ele>1125.841064</ele>
        <time>2015-03-08T11:30:39Z</time>
      </trkpt>
      <trkpt lat="44.43009" lon="5.14593">
        <ele>1126.321777</ele>
        <time>2015-03-08T11:30:41Z</time>
      </trkpt>
      <trkpt lat="44.43007" lon="5.14592">
        <ele>1126.321777</ele>
        <time>2015-03-08T11:30:43Z</time>
      </trkpt>
      <trkpt lat="44.43005" lon="5.14583">
        <ele>1126.321777</ele>
        <time>2015-03-08T11:30:50Z</time>
      </trkpt>
      <trkpt lat="44.43004" lon="5.14579">
        <ele>1125.841064</ele>
        <time>2015-03-08T11:30:53Z</time>
      </trkpt>
      <trkpt lat="44.43001" lon="5.14569">
        <ele>1127.763672</ele>
        <time>2015-03-08T11:31:01Z</time>
      </trkpt>
      <trkpt lat="44.42998" lon="5.14558">
        <ele>1127.763672</ele>
        <time>2015-03-08T11:31:10Z</time>
      </trkpt>
      <trkpt lat="44.42995" lon="5.14553">
        <ele>1128.725098</ele>
        <time>2015-03-08T11:31:16Z</time>
      </trkpt>
      <trkpt lat="44.42994" lon="5.14545">
        <ele>1129.686279</ele>
        <time>2015-03-08T11:31:23Z</time>
      </trkpt>
      <trkpt lat="44.42994" lon="5.14542">
        <ele>1129.686279</ele>
        <time>2015-03-08T11:31:26Z</time>
      </trkpt>
      <trkpt lat="44.42992" lon="5.14535">
        <ele>1130.647705</ele>
        <time>2015-03-08T11:31:32Z</time>
      </trkpt>
      <trkpt lat="44.42989" lon="5.14529">
        <ele>1131.608887</ele>
        <time>2015-03-08T11:31:39Z</time>
      </trkpt>
      <trkpt lat="44.42988" lon="5.14528">
        <ele>1132.089844</ele>
        <time>2015-03-08T11:31:46Z</time>
      </trkpt>
      <trkpt lat="44.42988" lon="5.14528">
        <ele>1132.570557</ele>
        <time>2015-03-08T11:31:55Z</time>
      </trkpt>
      <trkpt lat="44.42988" lon="5.14525">
        <ele>1132.089844</ele>
        <time>2015-03-08T11:32:08Z</time>
      </trkpt>
      <trkpt lat="44.42986" lon="5.14525">
        <ele>1132.089844</ele>
        <time>2015-03-08T11:32:24Z</time>
      </trkpt>
      <trkpt lat="44.42978" lon="5.14509">
        <ele>1133.051025</ele>
        <time>2015-03-08T11:32:37Z</time>
      </trkpt>
      <trkpt lat="44.42972" lon="5.145">
        <ele>1134.012451</ele>
        <time>2015-03-08T11:32:46Z</time>
      </trkpt>
      <trkpt lat="44.4297" lon="5.14494">
        <ele>1134.012451</ele>
        <time>2015-03-08T11:32:56Z</time>
      </trkpt>
      <trkpt lat="44.42966" lon="5.14495">
        <ele>1134.012451</ele>
        <time>2015-03-08T11:33:56Z</time>
      </trkpt>
      <trkpt lat="44.42963" lon="5.14496">
        <ele>1134.012451</ele>
        <time>2015-03-08T11:34:19Z</time>
      </trkpt>
      <trkpt lat="44.42964" lon="5.14492">
        <ele>1134.973877</ele>
        <time>2015-03-08T11:37:56Z</time>
      </trkpt>
      <trkpt lat="44.4296" lon="5.14481">
        <ele>1135.454346</ele>
        <time>2015-03-08T11:38:07Z</time>
      </trkpt>
      <trkpt lat="44.42957" lon="5.14474">
        <ele>1135.454346</ele>
        <time>2015-03-08T11:38:16Z</time>
      </trkpt>
      <trkpt lat="44.42954" lon="5.14464">
        <ele>1135.454346</ele>
        <time>2015-03-08T11:38:25Z</time>
      </trkpt>
      <trkpt lat="44.4295" lon="5.14456">
        <ele>1135.454346</ele>
        <time>2015-03-08T11:38:34Z</time>
      </trkpt>
      <trkpt lat="44.42947" lon="5.14452">
        <ele>1135.935059</ele>
        <time>2015-03-08T11:38:41Z</time>
      </trkpt>
      <trkpt lat="44.42942" lon="5.14445">
        <ele>1136.415771</ele>
        <time>2015-03-08T11:38:50Z</time>
      </trkpt>
      <trkpt lat="44.42937" lon="5.14435">
        <ele>1136.89624</ele>
        <time>2015-03-08T11:38:59Z</time>
      </trkpt>
      <trkpt lat="44.42934" lon="5.14427">
        <ele>1137.376953</ele>
        <time>2015-03-08T11:39:08Z</time>
      </trkpt>
      <trkpt lat="44.42931" lon="5.14421">
        <ele>1137.857666</ele>
        <time>2015-03-08T11:39:16Z</time>
      </trkpt>
      <trkpt lat="44.42924" lon="5.14411">
        <ele>1138.338379</ele>
        <time>2015-03-08T11:39:26Z</time>
      </trkpt>
      <trkpt lat="44.4292" lon="5.14405">
        <ele>1139.780273</ele>
        <time>2015-03-08T11:39:34Z</time>
      </trkpt>
      <trkpt lat="44.42914" lon="5.14399">
        <ele>1139.780273</ele>
        <time>2015-03-08T11:39:44Z</time>
      </trkpt>
      <trkpt lat="44.42912" lon="5.14396">
        <ele>1140.260986</ele>
        <time>2015-03-08T11:39:51Z</time>
      </trkpt>
      <trkpt lat="44.42905" lon="5.14391">
        <ele>1142.183594</ele>
        <time>2015-03-08T11:40:01Z</time>
      </trkpt>
      <trkpt lat="44.42901" lon="5.14383">
        <ele>1142.183594</ele>
        <time>2015-03-08T11:40:09Z</time>
      </trkpt>
      <trkpt lat="44.42899" lon="5.1438">
        <ele>1142.183594</ele>
        <time>2015-03-08T11:40:13Z</time>
      </trkpt>
      <trkpt lat="44.42896" lon="5.14375">
        <ele>1142.183594</ele>
        <time>2015-03-08T11:40:18Z</time>
      </trkpt>
      <trkpt lat="44.4289" lon="5.14367">
        <ele>1143.144775</ele>
        <time>2015-03-08T11:40:29Z</time>
      </trkpt>
      <trkpt lat="44.42886" lon="5.14359">
        <ele>1143.625488</ele>
        <time>2015-03-08T11:40:37Z</time>
      </trkpt>
      <trkpt lat="44.42883" lon="5.14354">
        <ele>1144.58667</ele>
        <time>2015-03-08T11:40:44Z</time>
      </trkpt>
      <trkpt lat="44.42881" lon="5.14351">
        <ele>1144.106201</ele>
        <time>2015-03-08T11:40:52Z</time>
      </trkpt>
      <trkpt lat="44.42879" lon="5.14352">
        <ele>1144.58667</ele>
        <time>2015-03-08T11:41:02Z</time>
      </trkpt>
      <trkpt lat="44.42874" lon="5.14354">
        <ele>1146.509521</ele>
        <time>2015-03-08T11:45:40Z</time>
      </trkpt>
      <trkpt lat="44.42872" lon="5.14358">
        <ele>1146.98999</ele>
        <time>2015-03-08T11:45:52Z</time>
      </trkpt>
      <trkpt lat="44.42872" lon="5.14354">
        <ele>1146.98999</ele>
        <time>2015-03-08T11:46:07Z</time>
      </trkpt>
      <trkpt lat="44.42872" lon="5.14356">
        <ele>1146.98999</ele>
        <time>2015-03-08T11:46:58Z</time>
      </trkpt>
      <trkpt lat="44.42871" lon="5.14349">
        <ele>1146.98999</ele>
        <time>2015-03-08T11:47:09Z</time>
      </trkpt>
      <trkpt lat="44.42867" lon="5.14334">
        <ele>1146.98999</ele>
        <time>2015-03-08T11:47:21Z</time>
      </trkpt>
      <trkpt lat="44.42862" lon="5.14319">
        <ele>1147.470703</ele>
        <time>2015-03-08T11:47:33Z</time>
      </trkpt>
      <trkpt lat="44.42861" lon="5.14317">
        <ele>1147.470703</ele>
        <time>2015-03-08T11:47:34Z</time>
      </trkpt>
      <trkpt lat="44.42861" lon="5.14309">
        <ele>1147.951416</ele>
        <time>2015-03-08T11:47:39Z</time>
      </trkpt>
      <trkpt lat="44.42858" lon="5.14297">
        <ele>1147.951416</ele>
        <time>2015-03-08T11:47:49Z</time>
      </trkpt>
      <trkpt lat="44.42854" lon="5.14284">
        <ele>1149.874268</ele>
        <time>2015-03-08T11:48:01Z</time>
      </trkpt>
      <trkpt lat="44.42852" lon="5.14276">
        <ele>1150.835449</ele>
        <time>2015-03-08T11:48:10Z</time>
      </trkpt>
      <trkpt lat="44.42849" lon="5.14267">
        <ele>1152.758057</ele>
        <time>2015-03-08T11:48:20Z</time>
      </trkpt>
      <trkpt lat="44.42848" lon="5.14256">
        <ele>1153.719482</ele>
        <time>2015-03-08T11:48:29Z</time>
      </trkpt>
      <trkpt lat="44.42846" lon="5.14252">
        <ele>1155.161377</ele>
        <time>2015-03-08T11:48:37Z</time>
      </trkpt>
      <trkpt lat="44.42845" lon="5.14246">
        <ele>1156.603271</ele>
        <time>2015-03-08T11:48:44Z</time>
      </trkpt>
      <trkpt lat="44.42844" lon="5.14239">
        <ele>1158.04541</ele>
        <time>2015-03-08T11:48:52Z</time>
      </trkpt>
      <trkpt lat="44.42844" lon="5.14236">
        <ele>1159.006592</ele>
        <time>2015-03-08T11:49:04Z</time>
      </trkpt>
      <trkpt lat="44.42841" lon="5.14234">
        <ele>1160.448486</ele>
        <time>2015-03-08T11:49:23Z</time>
      </trkpt>
      <trkpt lat="44.42839" lon="5.14227">
        <ele>1161.409912</ele>
        <time>2015-03-08T11:49:30Z</time>
      </trkpt>
      <trkpt lat="44.42835" lon="5.14217">
        <ele>1163.33252</ele>
        <time>2015-03-08T11:49:44Z</time>
      </trkpt>
      <trkpt lat="44.42835" lon="5.14211">
        <ele>1164.774658</ele>
        <time>2015-03-08T11:49:51Z</time>
      </trkpt>
      <trkpt lat="44.42833" lon="5.14201">
        <ele>1166.216553</ele>
        <time>2015-03-08T11:50:05Z</time>
      </trkpt>
      <trkpt lat="44.42832" lon="5.14199">
        <ele>1167.177979</ele>
        <time>2015-03-08T11:50:17Z</time>
      </trkpt>
      <trkpt lat="44.4283" lon="5.1419">
        <ele>1168.619873</ele>
        <time>2015-03-08T11:50:25Z</time>
      </trkpt>
      <trkpt lat="44.42828" lon="5.14183">
        <ele>1170.54248</ele>
        <time>2015-03-08T11:50:36Z</time>
      </trkpt>
      <trkpt lat="44.42825" lon="5.14177">
        <ele>1171.984375</ele>
        <time>2015-03-08T11:50:45Z</time>
      </trkpt>
      <trkpt lat="44.42824" lon="5.14174">
        <ele>1172.945801</ele>
        <time>2015-03-08T11:50:52Z</time>
      </trkpt>
      <trkpt lat="44.42821" lon="5.14168">
        <ele>1173.906982</ele>
        <time>2015-03-08T11:50:58Z</time>
      </trkpt>
      <trkpt lat="44.42819" lon="5.1416">
        <ele>1176.310303</ele>
        <time>2015-03-08T11:51:09Z</time>
      </trkpt>
      <trkpt lat="44.42811" lon="5.14156">
        <ele>1178.713623</ele>
        <time>2015-03-08T11:51:24Z</time>
      </trkpt>
      <trkpt lat="44.42806" lon="5.14152">
        <ele>1180.636475</ele>
        <time>2015-03-08T11:51:33Z</time>
      </trkpt>
      <trkpt lat="44.42801" lon="5.14155">
        <ele>1182.078369</ele>
        <time>2015-03-08T11:51:43Z</time>
      </trkpt>
      <trkpt lat="44.42796" lon="5.14156">
        <ele>1183.520264</ele>
        <time>2015-03-08T11:51:52Z</time>
      </trkpt>
      <trkpt lat="44.42792" lon="5.14159">
        <ele>1184.481689</ele>
        <time>2015-03-08T11:51:57Z</time>
      </trkpt>
      <trkpt lat="44.42787" lon="5.1416">
        <ele>1185.923584</ele>
        <time>2015-03-08T11:52:04Z</time>
      </trkpt>
      <trkpt lat="44.42783" lon="5.14161">
        <ele>1187.365479</ele>
        <time>2015-03-08T11:52:12Z</time>
      </trkpt>
      <trkpt lat="44.42776" lon="5.14158">
        <ele>1189.288086</ele>
        <time>2015-03-08T11:52:22Z</time>
      </trkpt>
      <trkpt lat="44.42772" lon="5.14153">
        <ele>1190.72998</ele>
        <time>2015-03-08T11:52:32Z</time>
      </trkpt>
      <trkpt lat="44.42768" lon="5.14148">
        <ele>1192.172119</ele>
        <time>2015-03-08T11:52:40Z</time>
      </trkpt>
      <trkpt lat="44.42763" lon="5.14147">
        <ele>1194.094727</ele>
        <time>2015-03-08T11:52:49Z</time>
      </trkpt>
      <trkpt lat="44.42761" lon="5.14141">
        <ele>1195.055908</ele>
        <time>2015-03-08T11:52:57Z</time>
      </trkpt>
      <trkpt lat="44.42759" lon="5.14138">
        <ele>1196.017578</ele>
        <time>2015-03-08T11:53:04Z</time>
      </trkpt>
      <trkpt lat="44.42751" lon="5.14134">
        <ele>1197.940186</ele>
        <time>2015-03-08T11:53:17Z</time>
      </trkpt>
      <trkpt lat="44.42748" lon="5.14133">
        <ele>1199.38208</ele>
        <time>2015-03-08T11:53:25Z</time>
      </trkpt>
      <trkpt lat="44.42744" lon="5.1413">
        <ele>1200.823975</ele>
        <time>2015-03-08T11:53:34Z</time>
      </trkpt>
      <trkpt lat="44.42739" lon="5.14128">
        <ele>1202.265869</ele>
        <time>2015-03-08T11:53:43Z</time>
      </trkpt>
      <trkpt lat="44.42734" lon="5.14127">
        <ele>1203.708008</ele>
        <time>2015-03-08T11:53:51Z</time>
      </trkpt>
      <trkpt lat="44.42731" lon="5.14127">
        <ele>1205.149902</ele>
        <time>2015-03-08T11:53:59Z</time>
      </trkpt>
      <trkpt lat="44.42727" lon="5.14128">
        <ele>1206.591797</ele>
        <time>2015-03-08T11:54:07Z</time>
      </trkpt>
      <trkpt lat="44.42721" lon="5.14132">
        <ele>1207.553223</ele>
        <time>2015-03-08T11:54:17Z</time>
      </trkpt>
      <trkpt lat="44.42717" lon="5.14135">
        <ele>1209.47583</ele>
        <time>2015-03-08T11:54:27Z</time>
      </trkpt>
      <trkpt lat="44.42715" lon="5.14135">
        <ele>1210.437012</ele>
        <time>2015-03-08T11:54:35Z</time>
      </trkpt>
      <trkpt lat="44.42711" lon="5.1413">
        <ele>1210.917725</ele>
        <time>2015-03-08T11:54:46Z</time>
      </trkpt>
      <trkpt lat="44.42709" lon="5.14131">
        <ele>1211.398438</ele>
        <time>2015-03-08T11:54:55Z</time>
      </trkpt>
      <trkpt lat="44.42707" lon="5.14132">
        <ele>1211.398438</ele>
        <time>2015-03-08T11:55:01Z</time>
      </trkpt>
      <trkpt lat="44.42706" lon="5.14133">
        <ele>1211.398438</ele>
        <time>2015-03-08T11:55:07Z</time>
      </trkpt>
      <trkpt lat="44.42702" lon="5.14138">
        <ele>1211.87915</ele>
        <time>2015-03-08T11:55:17Z</time>
      </trkpt>
      <trkpt lat="44.427" lon="5.14138">
        <ele>1212.359863</ele>
        <time>2015-03-08T11:55:25Z</time>
      </trkpt>
      <trkpt lat="44.42696" lon="5.14135">
        <ele>1212.840576</ele>
        <time>2015-03-08T11:55:35Z</time>
      </trkpt>
      <trkpt lat="44.42695" lon="5.14136">
        <ele>1213.801758</ele>
        <time>2015-03-08T11:55:43Z</time>
      </trkpt>
      <trkpt lat="44.42694" lon="5.14138">
        <ele>1213.321289</ele>
        <time>2015-03-08T11:56:07Z</time>
      </trkpt>
      <trkpt lat="44.42691" lon="5.14139">
        <ele>1213.801758</ele>
        <time>2015-03-08T11:57:25Z</time>
      </trkpt>
      <trkpt lat="44.42686" lon="5.14142">
        <ele>1213.801758</ele>
        <time>2015-03-08T11:57:35Z</time>
      </trkpt>
      <trkpt lat="44.42681" lon="5.14143">
        <ele>1214.282471</ele>
        <time>2015-03-08T11:57:46Z</time>
      </trkpt>
      <trkpt lat="44.42679" lon="5.14143">
        <ele>1214.282471</ele>
        <time>2015-03-08T11:57:56Z</time>
      </trkpt>
      <trkpt lat="44.42677" lon="5.14143">
        <ele>1214.282471</ele>
        <time>2015-03-08T11:58:05Z</time>
      </trkpt>
      <trkpt lat="44.42674" lon="5.14143">
        <ele>1214.282471</ele>
        <time>2015-03-08T11:58:16Z</time>
      </trkpt>
      <trkpt lat="44.42668" lon="5.14146">
        <ele>1212.359863</ele>
        <time>2015-03-08T11:58:37Z</time>
      </trkpt>
      <trkpt lat="44.42663" lon="5.14147">
        <ele>1211.398438</ele>
        <time>2015-03-08T11:58:45Z</time>
      </trkpt>
      <trkpt lat="44.42663" lon="5.14151">
        <ele>1210.917725</ele>
        <time>2015-03-08T11:58:55Z</time>
      </trkpt>
      <trkpt lat="44.42661" lon="5.14151">
        <ele>1209.47583</ele>
        <time>2015-03-08T11:59:01Z</time>
      </trkpt>
      <trkpt lat="44.42659" lon="5.14153">
        <ele>1208.514404</ele>
        <time>2015-03-08T11:59:09Z</time>
      </trkpt>
      <trkpt lat="44.42656" lon="5.14157">
        <ele>1207.553223</ele>
        <time>2015-03-08T11:59:17Z</time>
      </trkpt>
      <trkpt lat="44.42652" lon="5.14163">
        <ele>1206.591797</ele>
        <time>2015-03-08T11:59:25Z</time>
      </trkpt>
      <trkpt lat="44.42649" lon="5.14168">
        <ele>1205.630615</ele>
        <time>2015-03-08T11:59:35Z</time>
      </trkpt>
      <trkpt lat="44.42648" lon="5.14167">
        <ele>1205.149902</ele>
        <time>2015-03-08T11:59:46Z</time>
      </trkpt>
      <trkpt lat="44.42645" lon="5.14167">
        <ele>1203.708008</ele>
        <time>2015-03-08T12:00:02Z</time>
      </trkpt>
      <trkpt lat="44.42638" lon="5.14174">
        <ele>1201.304688</ele>
        <time>2015-03-08T12:00:14Z</time>
      </trkpt>
      <trkpt lat="44.42631" lon="5.14184">
        <ele>1199.38208</ele>
        <time>2015-03-08T12:00:24Z</time>
      </trkpt>
      <trkpt lat="44.42627" lon="5.14187">
        <ele>1197.940186</ele>
        <time>2015-03-08T12:00:34Z</time>
      </trkpt>
      <trkpt lat="44.42622" lon="5.14192">
        <ele>1196.017578</ele>
        <time>2015-03-08T12:00:43Z</time>
      </trkpt>
      <trkpt lat="44.42615" lon="5.14197">
        <ele>1194.575195</ele>
        <time>2015-03-08T12:00:54Z</time>
      </trkpt>
      <trkpt lat="44.42609" lon="5.142">
        <ele>1192.652832</ele>
        <time>2015-03-08T12:01:03Z</time>
      </trkpt>
      <trkpt lat="44.42605" lon="5.14202">
        <ele>1190.72998</ele>
        <time>2015-03-08T12:01:13Z</time>
      </trkpt>
      <trkpt lat="44.42601" lon="5.14203">
        <ele>1188.807617</ele>
        <time>2015-03-08T12:01:22Z</time>
      </trkpt>
      <trkpt lat="44.42596" lon="5.1421">
        <ele>1187.846191</ele>
        <time>2015-03-08T12:01:31Z</time>
      </trkpt>
      <trkpt lat="44.42594" lon="5.14212">
        <ele>1186.884766</ele>
        <time>2015-03-08T12:01:41Z</time>
      </trkpt>
      <trkpt lat="44.42591" lon="5.14214">
        <ele>1184.962402</ele>
        <time>2015-03-08T12:02:06Z</time>
      </trkpt>
      <trkpt lat="44.42585" lon="5.14221">
        <ele>1184.481689</ele>
        <time>2015-03-08T12:02:16Z</time>
      </trkpt>
      <trkpt lat="44.42585" lon="5.14221">
        <ele>1183.520264</ele>
        <time>2015-03-08T12:02:28Z</time>
      </trkpt>
      <trkpt lat="44.42581" lon="5.14224">
        <ele>1182.559082</ele>
        <time>2015-03-08T12:02:34Z</time>
      </trkpt>
      <trkpt lat="44.42577" lon="5.14222">
        <ele>1179.674805</ele>
        <time>2015-03-08T12:02:51Z</time>
      </trkpt>
      <trkpt lat="44.42575" lon="5.14223">
        <ele>1178.713623</ele>
        <time>2015-03-08T12:02:58Z</time>
      </trkpt>
      <trkpt lat="44.42571" lon="5.14225">
        <ele>1177.752197</ele>
        <time>2015-03-08T12:03:02Z</time>
      </trkpt>
      <trkpt lat="44.42568" lon="5.14223">
        <ele>1177.271729</ele>
        <time>2015-03-08T12:03:10Z</time>
      </trkpt>
      <trkpt lat="44.42568" lon="5.14222">
        <ele>1176.310303</ele>
        <time>2015-03-08T12:04:44Z</time>
      </trkpt>
      <trkpt lat="44.42556" lon="5.1423">
        <ele>1174.387695</ele>
        <time>2015-03-08T12:05:17Z</time>
      </trkpt>
      <trkpt lat="44.42554" lon="5.14231">
        <ele>1174.387695</ele>
        <time>2015-03-08T12:05:22Z</time>
      </trkpt>
      <trkpt lat="44.42548" lon="5.14235">
        <ele>1173.426514</ele>
        <time>2015-03-08T12:05:31Z</time>
      </trkpt>
      <trkpt lat="44.42543" lon="5.14246">
        <ele>1173.426514</ele>
        <time>2015-03-08T12:05:42Z</time>
      </trkpt>
      <trkpt lat="44.42541" lon="5.14244">
        <ele>1173.426514</ele>
        <time>2015-03-08T12:05:53Z</time>
      </trkpt>
      <trkpt lat="44.42537" lon="5.1426">
        <ele>1173.426514</ele>
        <time>2015-03-08T12:06:09Z</time>
      </trkpt>
      <trkpt lat="44.42535" lon="5.14268">
        <ele>1173.426514</ele>
        <time>2015-03-08T12:06:17Z</time>
      </trkpt>
      <trkpt lat="44.42535" lon="5.14279">
        <ele>1173.906982</ele>
        <time>2015-03-08T12:06:29Z</time>
      </trkpt>
      <trkpt lat="44.42536" lon="5.14283">
        <ele>1174.868408</ele>
        <time>2015-03-08T12:06:38Z</time>
      </trkpt>
      <trkpt lat="44.42536" lon="5.14282">
        <ele>1174.387695</ele>
        <time>2015-03-08T12:06:53Z</time>
      </trkpt>
      <trkpt lat="44.42536" lon="5.14282">
        <ele>1174.387695</ele>
        <time>2015-03-08T12:08:51Z</time>
      </trkpt>
      <trkpt lat="44.42535" lon="5.14286">
        <ele>1175.348877</ele>
        <time>2015-03-08T12:09:20Z</time>
      </trkpt>
      <trkpt lat="44.42534" lon="5.14297">
        <ele>1177.271729</ele>
        <time>2015-03-08T12:09:31Z</time>
      </trkpt>
      <trkpt lat="44.42532" lon="5.14307">
        <ele>1179.194092</ele>
        <time>2015-03-08T12:09:44Z</time>
      </trkpt>
      <trkpt lat="44.42529" lon="5.14311">
        <ele>1179.194092</ele>
        <time>2015-03-08T12:09:53Z</time>
      </trkpt>
      <trkpt lat="44.42529" lon="5.1432">
        <ele>1180.636475</ele>
        <time>2015-03-08T12:10:02Z</time>
      </trkpt>
      <trkpt lat="44.42527" lon="5.14324">
        <ele>1181.117188</ele>
        <time>2015-03-08T12:10:14Z</time>
      </trkpt>
      <trkpt lat="44.42526" lon="5.14332">
        <ele>1182.078369</ele>
        <time>2015-03-08T12:10:22Z</time>
      </trkpt>
      <trkpt lat="44.42526" lon="5.14341">
        <ele>1183.520264</ele>
        <time>2015-03-08T12:10:31Z</time>
      </trkpt>
      <trkpt lat="44.42525" lon="5.14347">
        <ele>1184.481689</ele>
        <time>2015-03-08T12:10:36Z</time>
      </trkpt>
      <trkpt lat="44.42525" lon="5.14356">
        <ele>1184.962402</ele>
        <time>2015-03-08T12:10:45Z</time>
      </trkpt>
      <trkpt lat="44.42524" lon="5.14366">
        <ele>1185.923584</ele>
        <time>2015-03-08T12:10:56Z</time>
      </trkpt>
      <trkpt lat="44.42524" lon="5.14369">
        <ele>1185.923584</ele>
        <time>2015-03-08T12:11:04Z</time>
      </trkpt>
      <trkpt lat="44.42524" lon="5.14371">
        <ele>1186.404297</ele>
        <time>2015-03-08T12:11:36Z</time>
      </trkpt>
      <trkpt lat="44.42523" lon="5.14377">
        <ele>1187.365479</ele>
        <time>2015-03-08T12:11:59Z</time>
      </trkpt>
      <trkpt lat="44.4252" lon="5.14389">
        <ele>1188.807617</ele>
        <time>2015-03-08T12:12:10Z</time>
      </trkpt>
      <trkpt lat="44.42518" lon="5.14397">
        <ele>1189.768799</ele>
        <time>2015-03-08T12:12:21Z</time>
      </trkpt>
      <trkpt lat="44.42515" lon="5.14404">
        <ele>1190.72998</ele>
        <time>2015-03-08T12:12:33Z</time>
      </trkpt>
      <trkpt lat="44.42514" lon="5.14407">
        <ele>1192.172119</ele>
        <time>2015-03-08T12:12:37Z</time>
      </trkpt>
      <trkpt lat="44.42516" lon="5.14421">
        <ele>1194.094727</ele>
        <time>2015-03-08T12:12:53Z</time>
      </trkpt>
      <trkpt lat="44.42515" lon="5.14429">
        <ele>1196.498291</ele>
        <time>2015-03-08T12:13:04Z</time>
      </trkpt>
      <trkpt lat="44.42512" lon="5.14433">
        <ele>1197.459473</ele>
        <time>2015-03-08T12:13:12Z</time>
      </trkpt>
      <trkpt lat="44.42508" lon="5.14435">
        <ele>1199.862793</ele>
        <time>2015-03-08T12:13:21Z</time>
      </trkpt>
      <trkpt lat="44.42508" lon="5.1444">
        <ele>1199.862793</ele>
        <time>2015-03-08T12:13:26Z</time>
      </trkpt>
      <trkpt lat="44.42509" lon="5.14449">
        <ele>1203.227295</ele>
        <time>2015-03-08T12:13:39Z</time>
      </trkpt>
      <trkpt lat="44.42509" lon="5.14458">
        <ele>1202.265869</ele>
        <time>2015-03-08T12:13:50Z</time>
      </trkpt>
      <trkpt lat="44.42508" lon="5.14462">
        <ele>1204.188721</ele>
        <time>2015-03-08T12:13:55Z</time>
      </trkpt>
      <trkpt lat="44.42505" lon="5.14473">
        <ele>1204.669189</ele>
        <time>2015-03-08T12:14:08Z</time>
      </trkpt>
      <trkpt lat="44.42506" lon="5.14483">
        <ele>1207.07251</ele>
        <time>2015-03-08T12:14:18Z</time>
      </trkpt>
      <trkpt lat="44.42506" lon="5.1449">
        <ele>1207.553223</ele>
        <time>2015-03-08T12:14:28Z</time>
      </trkpt>
      <trkpt lat="44.42508" lon="5.14498">
        <ele>1208.033936</ele>
        <time>2015-03-08T12:14:37Z</time>
      </trkpt>
      <trkpt lat="44.4251" lon="5.14506">
        <ele>1209.47583</ele>
        <time>2015-03-08T12:14:45Z</time>
      </trkpt>
      <trkpt lat="44.4251" lon="5.14514">
        <ele>1210.437012</ele>
        <time>2015-03-08T12:14:55Z</time>
      </trkpt>
      <trkpt lat="44.42508" lon="5.14515">
        <ele>1209.47583</ele>
        <time>2015-03-08T12:15:06Z</time>
      </trkpt>
      <trkpt lat="44.42508" lon="5.14516">
        <ele>1209.956299</ele>
        <time>2015-03-08T12:16:10Z</time>
      </trkpt>
      <trkpt lat="44.42508" lon="5.14517">
        <ele>1209.47583</ele>
        <time>2015-03-08T12:16:48Z</time>
      </trkpt>
      <trkpt lat="44.42507" lon="5.14517">
        <ele>1209.956299</ele>
        <time>2015-03-08T12:17:06Z</time>
      </trkpt>
      <trkpt lat="44.42506" lon="5.14518">
        <ele>1208.033936</ele>
        <time>2015-03-08T12:17:56Z</time>
      </trkpt>
      <trkpt lat="44.42506" lon="5.14518">
        <ele>1208.514404</ele>
        <time>2015-03-08T12:18:06Z</time>
      </trkpt>
      <trkpt lat="44.42508" lon="5.14519">
        <ele>1208.033936</ele>
        <time>2015-03-08T12:18:09Z</time>
      </trkpt>
      <trkpt lat="44.42512" lon="5.14526">
        <ele>1207.07251</ele>
        <time>2015-03-08T12:18:15Z</time>
      </trkpt>
      <trkpt lat="44.42517" lon="5.14531">
        <ele>1207.07251</ele>
        <time>2015-03-08T12:18:22Z</time>
      </trkpt>
      <trkpt lat="44.42518" lon="5.1454">
        <ele>1207.553223</ele>
        <time>2015-03-08T12:18:33Z</time>
      </trkpt>
      <trkpt lat="44.42518" lon="5.14541">
        <ele>1208.514404</ele>
        <time>2015-03-08T12:18:52Z</time>
      </trkpt>
      <trkpt lat="44.42517" lon="5.14535">
        <ele>1208.514404</ele>
        <time>2015-03-08T12:20:51Z</time>
      </trkpt>
      <trkpt lat="44.42517" lon="5.14524">
        <ele>1208.033936</ele>
        <time>2015-03-08T12:20:59Z</time>
      </trkpt>
      <trkpt lat="44.42512" lon="5.14502">
        <ele>1208.033936</ele>
        <time>2015-03-08T12:21:16Z</time>
      </trkpt>
      <trkpt lat="44.42509" lon="5.14483">
        <ele>1205.630615</ele>
        <time>2015-03-08T12:21:32Z</time>
      </trkpt>
      <trkpt lat="44.42505" lon="5.14479">
        <ele>1204.669189</ele>
        <time>2015-03-08T12:21:41Z</time>
      </trkpt>
      <trkpt lat="44.42505" lon="5.14477">
        <ele>1204.188721</ele>
        <time>2015-03-08T12:21:57Z</time>
      </trkpt>
      <trkpt lat="44.42504" lon="5.14477">
        <ele>1204.188721</ele>
        <time>2015-03-08T12:22:10Z</time>
      </trkpt>
      <trkpt lat="44.42503" lon="5.14469">
        <ele>1203.708008</ele>
        <time>2015-03-08T12:22:48Z</time>
      </trkpt>
      <trkpt lat="44.42503" lon="5.14462">
        <ele>1203.227295</ele>
        <time>2015-03-08T12:22:58Z</time>
      </trkpt>
      <trkpt lat="44.42503" lon="5.1445">
        <ele>1201.304688</ele>
        <time>2015-03-08T12:23:12Z</time>
      </trkpt>
      <trkpt lat="44.42502" lon="5.14438">
        <ele>1199.38208</ele>
        <time>2015-03-08T12:23:29Z</time>
      </trkpt>
      <trkpt lat="44.42502" lon="5.14433">
        <ele>1198.420654</ele>
        <time>2015-03-08T12:23:40Z</time>
      </trkpt>
      <trkpt lat="44.42503" lon="5.14427">
        <ele>1197.459473</ele>
        <time>2015-03-08T12:23:50Z</time>
      </trkpt>
      <trkpt lat="44.42503" lon="5.14418">
        <ele>1196.017578</ele>
        <time>2015-03-08T12:24:02Z</time>
      </trkpt>
      <trkpt lat="44.42502" lon="5.14416">
        <ele>1195.536621</ele>
        <time>2015-03-08T12:24:20Z</time>
      </trkpt>
      <trkpt lat="44.425" lon="5.14418">
        <ele>1195.055908</ele>
        <time>2015-03-08T12:24:29Z</time>
      </trkpt>
      <trkpt lat="44.42498" lon="5.1442">
        <ele>1193.614014</ele>
        <time>2015-03-08T12:24:39Z</time>
      </trkpt>
      <trkpt lat="44.42494" lon="5.14424">
        <ele>1192.172119</ele>
        <time>2015-03-08T12:24:51Z</time>
      </trkpt>
      <trkpt lat="44.42488" lon="5.14431">
        <ele>1191.210693</ele>
        <time>2015-03-08T12:25:05Z</time>
      </trkpt>
      <trkpt lat="44.42483" lon="5.14433">
        <ele>1189.288086</ele>
        <time>2015-03-08T12:25:18Z</time>
      </trkpt>
      <trkpt lat="44.42479" lon="5.14431">
        <ele>1187.365479</ele>
        <time>2015-03-08T12:25:31Z</time>
      </trkpt>
      <trkpt lat="44.42474" lon="5.1443">
        <ele>1185.442871</ele>
        <time>2015-03-08T12:25:44Z</time>
      </trkpt>
      <trkpt lat="44.42467" lon="5.1443">
        <ele>1183.520264</ele>
        <time>2015-03-08T12:25:56Z</time>
      </trkpt>
      <trkpt lat="44.42462" lon="5.14431">
        <ele>1182.559082</ele>
        <time>2015-03-08T12:26:09Z</time>
      </trkpt>
      <trkpt lat="44.42459" lon="5.14432">
        <ele>1181.597656</ele>
        <time>2015-03-08T12:26:26Z</time>
      </trkpt>
      <trkpt lat="44.42458" lon="5.14432">
        <ele>1180.636475</ele>
        <time>2015-03-08T12:26:37Z</time>
      </trkpt>
      <trkpt lat="44.42456" lon="5.1443">
        <ele>1179.674805</ele>
        <time>2015-03-08T12:26:55Z</time>
      </trkpt>
      <trkpt lat="44.42454" lon="5.14429">
        <ele>1178.713623</ele>
        <time>2015-03-08T12:27:07Z</time>
      </trkpt>
      <trkpt lat="44.42455" lon="5.14424">
        <ele>1178.23291</ele>
        <time>2015-03-08T12:27:15Z</time>
      </trkpt>
      <trkpt lat="44.4245" lon="5.14421">
        <ele>1177.271729</ele>
        <time>2015-03-08T12:27:25Z</time>
      </trkpt>
      <trkpt lat="44.42448" lon="5.1442">
        <ele>1177.271729</ele>
        <time>2015-03-08T12:27:39Z</time>
      </trkpt>
      <trkpt lat="44.42449" lon="5.1442">
        <ele>1180.155762</ele>
        <time>2015-03-08T12:40:17Z</time>
      </trkpt>
      <trkpt lat="44.42447" lon="5.14422">
        <ele>1181.597656</ele>
        <time>2015-03-08T12:57:05Z</time>
      </trkpt>
      <trkpt lat="44.42442" lon="5.14425">
        <ele>1180.636475</ele>
        <time>2015-03-08T12:57:14Z</time>
      </trkpt>
      <trkpt lat="44.42442" lon="5.14427">
        <ele>1181.597656</ele>
        <time>2015-03-08T12:57:38Z</time>
      </trkpt>
      <trkpt lat="44.42442" lon="5.14431">
        <ele>1182.559082</ele>
        <time>2015-03-08T12:57:47Z</time>
      </trkpt>
      <trkpt lat="44.42442" lon="5.14433">
        <ele>1182.078369</ele>
        <time>2015-03-08T12:58:25Z</time>
      </trkpt>
      <trkpt lat="44.42442" lon="5.14433">
        <ele>1182.078369</ele>
        <time>2015-03-08T12:58:54Z</time>
      </trkpt>
      <trkpt lat="44.42443" lon="5.14429">
        <ele>1181.117188</ele>
        <time>2015-03-08T13:00:02Z</time>
      </trkpt>
      <trkpt lat="44.42445" lon="5.14426">
        <ele>1181.597656</ele>
        <time>2015-03-08T13:00:09Z</time>
      </trkpt>
      <trkpt lat="44.42445" lon="5.14423">
        <ele>1180.636475</ele>
        <time>2015-03-08T13:00:16Z</time>
      </trkpt>
      <trkpt lat="44.42446" lon="5.14423">
        <ele>1180.636475</ele>
        <time>2015-03-08T13:00:35Z</time>
      </trkpt>
      <trkpt lat="44.42446" lon="5.14423">
        <ele>1180.155762</ele>
        <time>2015-03-08T13:02:01Z</time>
      </trkpt>
      <trkpt lat="44.42446" lon="5.14423">
        <ele>1179.674805</ele>
        <time>2015-03-08T13:06:30Z</time>
      </trkpt>
      <trkpt lat="44.42447" lon="5.14422">
        <ele>1179.194092</ele>
        <time>2015-03-08T13:29:43Z</time>
      </trkpt>
      <trkpt lat="44.42447" lon="5.14421">
        <ele>1178.23291</ele>
        <time>2015-03-08T13:30:19Z</time>
      </trkpt>
      <trkpt lat="44.42446" lon="5.14421">
        <ele>1178.23291</ele>
        <time>2015-03-08T13:30:49Z</time>
      </trkpt>
      <trkpt lat="44.42446" lon="5.14422">
        <ele>1178.23291</ele>
        <time>2015-03-08T13:31:13Z</time>
      </trkpt>
      <trkpt lat="44.42443" lon="5.14426">
        <ele>1178.713623</ele>
        <time>2015-03-08T13:31:44Z</time>
      </trkpt>
      <trkpt lat="44.42443" lon="5.14429">
        <ele>1179.194092</ele>
        <time>2015-03-08T13:31:52Z</time>
      </trkpt>
      <trkpt lat="44.42443" lon="5.14429">
        <ele>1179.194092</ele>
        <time>2015-03-08T13:32:12Z</time>
      </trkpt>
      <trkpt lat="44.4244" lon="5.14427">
        <ele>1178.23291</ele>
        <time>2015-03-08T13:34:09Z</time>
      </trkpt>
      <trkpt lat="44.42433" lon="5.14434">
        <ele>1177.271729</ele>
        <time>2015-03-08T13:34:17Z</time>
      </trkpt>
      <trkpt lat="44.42428" lon="5.14435">
        <ele>1176.310303</ele>
        <time>2015-03-08T13:34:25Z</time>
      </trkpt>
      <trkpt lat="44.42426" lon="5.14435">
        <ele>1175.82959</ele>
        <time>2015-03-08T13:34:27Z</time>
      </trkpt>
      <trkpt lat="44.42419" lon="5.14433">
        <ele>1173.906982</ele>
        <time>2015-03-08T13:34:36Z</time>
      </trkpt>
      <trkpt lat="44.42414" lon="5.14433">
        <ele>1171.984375</ele>
        <time>2015-03-08T13:34:44Z</time>
      </trkpt>
      <trkpt lat="44.42406" lon="5.14435">
        <ele>1170.54248</ele>
        <time>2015-03-08T13:34:54Z</time>
      </trkpt>
      <trkpt lat="44.42398" lon="5.14437">
        <ele>1168.13916</ele>
        <time>2015-03-08T13:35:03Z</time>
      </trkpt>
      <trkpt lat="44.42397" lon="5.14438">
        <ele>1168.13916</ele>
        <time>2015-03-08T13:35:05Z</time>
      </trkpt>
      <trkpt lat="44.42392" lon="5.14443">
        <ele>1167.658447</ele>
        <time>2015-03-08T13:35:13Z</time>
      </trkpt>
      <trkpt lat="44.42386" lon="5.14444">
        <ele>1166.216553</ele>
        <time>2015-03-08T13:35:20Z</time>
      </trkpt>
      <trkpt lat="44.42379" lon="5.14447">
        <ele>1164.293945</ele>
        <time>2015-03-08T13:35:29Z</time>
      </trkpt>
      <trkpt lat="44.42376" lon="5.1445">
        <ele>1163.812988</ele>
        <time>2015-03-08T13:35:35Z</time>
      </trkpt>
      <trkpt lat="44.42369" lon="5.14453">
        <ele>1162.851807</ele>
        <time>2015-03-08T13:35:42Z</time>
      </trkpt>
      <trkpt lat="44.42364" lon="5.14455">
        <ele>1161.890625</ele>
        <time>2015-03-08T13:35:49Z</time>
      </trkpt>
      <trkpt lat="44.42356" lon="5.14459">
        <ele>1161.409912</ele>
        <time>2015-03-08T13:35:58Z</time>
      </trkpt>
      <trkpt lat="44.4234" lon="5.14461">
        <ele>1159.487305</ele>
        <time>2015-03-08T13:36:14Z</time>
      </trkpt>
      <trkpt lat="44.42334" lon="5.14459">
        <ele>1158.04541</ele>
        <time>2015-03-08T13:36:22Z</time>
      </trkpt>
      <trkpt lat="44.42334" lon="5.14459">
        <ele>1157.564697</ele>
        <time>2015-03-08T13:36:25Z</time>
      </trkpt>
      <trkpt lat="44.42328" lon="5.14456">
        <ele>1156.603271</ele>
        <time>2015-03-08T13:36:33Z</time>
      </trkpt>
      <trkpt lat="44.42324" lon="5.14457">
        <ele>1155.64209</ele>
        <time>2015-03-08T13:37:48Z</time>
      </trkpt>
      <trkpt lat="44.42319" lon="5.14458">
        <ele>1153.719482</ele>
        <time>2015-03-08T13:37:58Z</time>
      </trkpt>
      <trkpt lat="44.42311" lon="5.14459">
        <ele>1152.277344</ele>
        <time>2015-03-08T13:38:06Z</time>
      </trkpt>
      <trkpt lat="44.42304" lon="5.14465">
        <ele>1150.35498</ele>
        <time>2015-03-08T13:38:15Z</time>
      </trkpt>
      <trkpt lat="44.42299" lon="5.14469">
        <ele>1148.912842</ele>
        <time>2015-03-08T13:38:23Z</time>
      </trkpt>
      <trkpt lat="44.42292" lon="5.1447">
        <ele>1146.98999</ele>
        <time>2015-03-08T13:38:32Z</time>
      </trkpt>
      <trkpt lat="44.42286" lon="5.1447">
        <ele>1145.548096</ele>
        <time>2015-03-08T13:38:40Z</time>
      </trkpt>
      <trkpt lat="44.42277" lon="5.1447">
        <ele>1143.144775</ele>
        <time>2015-03-08T13:38:52Z</time>
      </trkpt>
      <trkpt lat="44.4227" lon="5.14471">
        <ele>1141.702881</ele>
        <time>2015-03-08T13:39:02Z</time>
      </trkpt>
      <trkpt lat="44.42262" lon="5.1447">
        <ele>1139.780273</ele>
        <time>2015-03-08T13:39:12Z</time>
      </trkpt>
      <trkpt lat="44.42256" lon="5.1447">
        <ele>1137.857666</ele>
        <time>2015-03-08T13:39:19Z</time>
      </trkpt>
      <trkpt lat="44.42246" lon="5.14476">
        <ele>1135.935059</ele>
        <time>2015-03-08T13:39:30Z</time>
      </trkpt>
      <trkpt lat="44.42235" lon="5.14482">
        <ele>1133.051025</ele>
        <time>2015-03-08T13:39:46Z</time>
      </trkpt>
      <trkpt lat="44.42228" lon="5.14481">
        <ele>1131.128418</ele>
        <time>2015-03-08T13:39:56Z</time>
      </trkpt>
      <trkpt lat="44.42223" lon="5.14476">
        <ele>1129.686279</ele>
        <time>2015-03-08T13:40:04Z</time>
      </trkpt>
      <trkpt lat="44.42218" lon="5.14477">
        <ele>1127.763672</ele>
        <time>2015-03-08T13:40:12Z</time>
      </trkpt>
      <trkpt lat="44.42213" lon="5.14477">
        <ele>1126.321777</ele>
        <time>2015-03-08T13:40:20Z</time>
      </trkpt>
      <trkpt lat="44.42204" lon="5.14483">
        <ele>1123.918457</ele>
        <time>2015-03-08T13:40:33Z</time>
      </trkpt>
      <trkpt lat="44.42195" lon="5.14485">
        <ele>1122.476563</ele>
        <time>2015-03-08T13:40:47Z</time>
      </trkpt>
      <trkpt lat="44.42189" lon="5.14486">
        <ele>1121.034668</ele>
        <time>2015-03-08T13:41:05Z</time>
      </trkpt>
      <trkpt lat="44.42178" lon="5.14493">
        <ele>1119.592773</ele>
        <time>2015-03-08T13:41:20Z</time>
      </trkpt>
      <trkpt lat="44.4217" lon="5.14499">
        <ele>1118.631348</ele>
        <time>2015-03-08T13:41:32Z</time>
      </trkpt>
      <trkpt lat="44.42164" lon="5.14499">
        <ele>1116.70874</ele>
        <time>2015-03-08T13:41:42Z</time>
      </trkpt>
      <trkpt lat="44.42155" lon="5.14498">
        <ele>1114.305176</ele>
        <time>2015-03-08T13:41:53Z</time>
      </trkpt>
      <trkpt lat="44.42144" lon="5.14499">
        <ele>1112.382568</ele>
        <time>2015-03-08T13:42:08Z</time>
      </trkpt>
      <trkpt lat="44.42135" lon="5.145">
        <ele>1109.979248</ele>
        <time>2015-03-08T13:42:20Z</time>
      </trkpt>
      <trkpt lat="44.42125" lon="5.14499">
        <ele>1107.095459</ele>
        <time>2015-03-08T13:42:36Z</time>
      </trkpt>
      <trkpt lat="44.42116" lon="5.14501">
        <ele>1104.692139</ele>
        <time>2015-03-08T13:42:50Z</time>
      </trkpt>
      <trkpt lat="44.42111" lon="5.145">
        <ele>1102.769531</ele>
        <time>2015-03-08T13:43:01Z</time>
      </trkpt>
      <trkpt lat="44.42107" lon="5.14498">
        <ele>1101.80835</ele>
        <time>2015-03-08T13:43:11Z</time>
      </trkpt>
      <trkpt lat="44.42102" lon="5.145">
        <ele>1099.885498</ele>
        <time>2015-03-08T13:43:22Z</time>
      </trkpt>
      <trkpt lat="44.42098" lon="5.14499">
        <ele>1098.443359</ele>
        <time>2015-03-08T13:43:34Z</time>
      </trkpt>
      <trkpt lat="44.42096" lon="5.14501">
        <ele>1097.482178</ele>
        <time>2015-03-08T13:43:47Z</time>
      </trkpt>
      <trkpt lat="44.42094" lon="5.145">
        <ele>1097.001465</ele>
        <time>2015-03-08T13:43:59Z</time>
      </trkpt>
      <trkpt lat="44.4209" lon="5.14499">
        <ele>1095.55957</ele>
        <time>2015-03-08T13:44:09Z</time>
      </trkpt>
      <trkpt lat="44.42086" lon="5.14499">
        <ele>1094.117676</ele>
        <time>2015-03-08T13:44:21Z</time>
      </trkpt>
      <trkpt lat="44.42082" lon="5.14499">
        <ele>1093.15625</ele>
        <time>2015-03-08T13:44:33Z</time>
      </trkpt>
      <trkpt lat="44.42078" lon="5.14499">
        <ele>1091.714355</ele>
        <time>2015-03-08T13:44:43Z</time>
      </trkpt>
      <trkpt lat="44.42076" lon="5.14499">
        <ele>1091.233643</ele>
        <time>2015-03-08T13:44:53Z</time>
      </trkpt>
      <trkpt lat="44.42072" lon="5.14499">
        <ele>1090.272461</ele>
        <time>2015-03-08T13:45:12Z</time>
      </trkpt>
      <trkpt lat="44.42064" lon="5.14499">
        <ele>1087.388428</ele>
        <time>2015-03-08T13:45:24Z</time>
      </trkpt>
      <trkpt lat="44.42054" lon="5.14498">
        <ele>1085.46582</ele>
        <time>2015-03-08T13:45:39Z</time>
      </trkpt>
      <trkpt lat="44.42042" lon="5.14496">
        <ele>1082.101074</ele>
        <time>2015-03-08T13:45:56Z</time>
      </trkpt>
      <trkpt lat="44.42034" lon="5.14493">
        <ele>1080.65918</ele>
        <time>2015-03-08T13:46:08Z</time>
      </trkpt>
      <trkpt lat="44.42024" lon="5.14492">
        <ele>1078.255859</ele>
        <time>2015-03-08T13:46:23Z</time>
      </trkpt>
      <trkpt lat="44.42012" lon="5.14491">
        <ele>1075.852539</ele>
        <time>2015-03-08T13:46:38Z</time>
      </trkpt>
      <trkpt lat="44.42" lon="5.14493">
        <ele>1073.449463</ele>
        <time>2015-03-08T13:46:54Z</time>
      </trkpt>
      <trkpt lat="44.4199" lon="5.14495">
        <ele>1071.526611</ele>
        <time>2015-03-08T13:47:08Z</time>
      </trkpt>
      <trkpt lat="44.41978" lon="5.14498">
        <ele>1068.162109</ele>
        <time>2015-03-08T13:47:23Z</time>
      </trkpt>
      <trkpt lat="44.41966" lon="5.14499">
        <ele>1064.797363</ele>
        <time>2015-03-08T13:47:38Z</time>
      </trkpt>
      <trkpt lat="44.41957" lon="5.14505">
        <ele>1062.394043</ele>
        <time>2015-03-08T13:47:53Z</time>
      </trkpt>
      <trkpt lat="44.41947" lon="5.14509">
        <ele>1058.548828</ele>
        <time>2015-03-08T13:48:06Z</time>
      </trkpt>
      <trkpt lat="44.41945" lon="5.14509">
        <ele>1058.068359</ele>
        <time>2015-03-08T13:48:08Z</time>
      </trkpt>
      <trkpt lat="44.41935" lon="5.14508">
        <ele>1055.184326</ele>
        <time>2015-03-08T13:48:21Z</time>
      </trkpt>
      <trkpt lat="44.41929" lon="5.14512">
        <ele>1053.261719</ele>
        <time>2015-03-08T13:48:31Z</time>
      </trkpt>
      <trkpt lat="44.41922" lon="5.14517">
        <ele>1049.896973</ele>
        <time>2015-03-08T13:48:44Z</time>
      </trkpt>
      <trkpt lat="44.41914" lon="5.14524">
        <ele>1047.493652</ele>
        <time>2015-03-08T13:48:58Z</time>
      </trkpt>
      <trkpt lat="44.41906" lon="5.14526">
        <ele>1044.609619</ele>
        <time>2015-03-08T13:49:10Z</time>
      </trkpt>
      <trkpt lat="44.41899" lon="5.14531">
        <ele>1042.687256</ele>
        <time>2015-03-08T13:49:24Z</time>
      </trkpt>
      <trkpt lat="44.4189" lon="5.14535">
        <ele>1039.803223</ele>
        <time>2015-03-08T13:49:38Z</time>
      </trkpt>
      <trkpt lat="44.41884" lon="5.14537">
        <ele>1036.919189</ele>
        <time>2015-03-08T13:49:47Z</time>
      </trkpt>
      <trkpt lat="44.41873" lon="5.14544">
        <ele>1034.035156</ele>
        <time>2015-03-08T13:50:04Z</time>
      </trkpt>
      <trkpt lat="44.41864" lon="5.14547">
        <ele>1031.631836</ele>
        <time>2015-03-08T13:50:16Z</time>
      </trkpt>
      <trkpt lat="44.41856" lon="5.14549">
        <ele>1029.228516</ele>
        <time>2015-03-08T13:50:28Z</time>
      </trkpt>
      <trkpt lat="44.41845" lon="5.14552">
        <ele>1025.864014</ele>
        <time>2015-03-08T13:50:44Z</time>
      </trkpt>
      <trkpt lat="44.41835" lon="5.14556">
        <ele>1022.980225</ele>
        <time>2015-03-08T13:50:59Z</time>
      </trkpt>
      <trkpt lat="44.41824" lon="5.14559">
        <ele>1019.615479</ele>
        <time>2015-03-08T13:51:14Z</time>
      </trkpt>
      <trkpt lat="44.41813" lon="5.14564">
        <ele>1016.731445</ele>
        <time>2015-03-08T13:51:29Z</time>
      </trkpt>
      <trkpt lat="44.41812" lon="5.14564">
        <ele>1016.250732</ele>
        <time>2015-03-08T13:51:30Z</time>
      </trkpt>
      <trkpt lat="44.41796" lon="5.1457">
        <ele>1013.366943</ele>
        <time>2015-03-08T13:51:48Z</time>
      </trkpt>
      <trkpt lat="44.41785" lon="5.14574">
        <ele>1010.002197</ele>
        <time>2015-03-08T13:52:02Z</time>
      </trkpt>
      <trkpt lat="44.41776" lon="5.14577">
        <ele>1008.560303</ele>
        <time>2015-03-08T13:52:13Z</time>
      </trkpt>
      <trkpt lat="44.41762" lon="5.14584">
        <ele>1005.195801</ele>
        <time>2015-03-08T13:52:30Z</time>
      </trkpt>
      <trkpt lat="44.41749" lon="5.14587">
        <ele>1002.792236</ele>
        <time>2015-03-08T13:52:44Z</time>
      </trkpt>
      <trkpt lat="44.41739" lon="5.14593">
        <ele>1001.831055</ele>
        <time>2015-03-08T13:52:56Z</time>
      </trkpt>
      <trkpt lat="44.41728" lon="5.14597">
        <ele>999.427734</ele>
        <time>2015-03-08T13:53:10Z</time>
      </trkpt>
      <trkpt lat="44.41719" lon="5.14598">
        <ele>997.505127</ele>
        <time>2015-03-08T13:53:23Z</time>
      </trkpt>
      <trkpt lat="44.41713" lon="5.14597">
        <ele>995.58252</ele>
        <time>2015-03-08T13:53:35Z</time>
      </trkpt>
      <trkpt lat="44.41709" lon="5.14593">
        <ele>993.659912</ele>
        <time>2015-03-08T13:53:46Z</time>
      </trkpt>
      <trkpt lat="44.41704" lon="5.14591">
        <ele>991.256592</ele>
        <time>2015-03-08T13:53:56Z</time>
      </trkpt>
      <trkpt lat="44.41698" lon="5.1459">
        <ele>988.853516</ele>
        <time>2015-03-08T13:54:09Z</time>
      </trkpt>
      <trkpt lat="44.41693" lon="5.1459">
        <ele>986.93042</ele>
        <time>2015-03-08T13:54:19Z</time>
      </trkpt>
      <trkpt lat="44.41687" lon="5.14586">
        <ele>985.008057</ele>
        <time>2015-03-08T13:54:29Z</time>
      </trkpt>
      <trkpt lat="44.41684" lon="5.1459">
        <ele>985.008057</ele>
        <time>2015-03-08T13:54:37Z</time>
      </trkpt>
      <trkpt lat="44.41686" lon="5.14592">
        <ele>985.008057</ele>
        <time>2015-03-08T13:55:01Z</time>
      </trkpt>
      <trkpt lat="44.41686" lon="5.14594">
        <ele>985.008057</ele>
        <time>2015-03-08T13:55:18Z</time>
      </trkpt>
      <trkpt lat="44.41686" lon="5.14593">
        <ele>985.008057</ele>
        <time>2015-03-08T13:55:55Z</time>
      </trkpt>
      <trkpt lat="44.41687" lon="5.14594">
        <ele>985.008057</ele>
        <time>2015-03-08T13:57:55Z</time>
      </trkpt>
      <trkpt lat="44.41686" lon="5.14601">
        <ele>983.085205</ele>
        <time>2015-03-08T13:58:04Z</time>
      </trkpt>
      <trkpt lat="44.41685" lon="5.14608">
        <ele>981.162842</ele>
        <time>2015-03-08T13:58:15Z</time>
      </trkpt>
      <trkpt lat="44.41684" lon="5.14614">
        <ele>979.23999</ele>
        <time>2015-03-08T13:58:26Z</time>
      </trkpt>
      <trkpt lat="44.41685" lon="5.14619">
        <ele>977.798096</ele>
        <time>2015-03-08T13:58:35Z</time>
      </trkpt>
      <trkpt lat="44.4168" lon="5.14617">
        <ele>975.394775</ele>
        <time>2015-03-08T13:58:43Z</time>
      </trkpt>
      <trkpt lat="44.41677" lon="5.14618">
        <ele>973.952881</ele>
        <time>2015-03-08T13:58:52Z</time>
      </trkpt>
      <trkpt lat="44.41679" lon="5.14626">
        <ele>972.030273</ele>
        <time>2015-03-08T13:59:01Z</time>
      </trkpt>
      <trkpt lat="44.41679" lon="5.14629">
        <ele>970.588135</ele>
        <time>2015-03-08T13:59:08Z</time>
      </trkpt>
      <trkpt lat="44.41673" lon="5.14632">
        <ele>968.665527</ele>
        <time>2015-03-08T13:59:20Z</time>
      </trkpt>
      <trkpt lat="44.41671" lon="5.14631">
        <ele>967.704102</ele>
        <time>2015-03-08T13:59:27Z</time>
      </trkpt>
      <trkpt lat="44.41668" lon="5.14627">
        <ele>965.301025</ele>
        <time>2015-03-08T13:59:39Z</time>
      </trkpt>
      <trkpt lat="44.41663" lon="5.1463">
        <ele>963.858887</ele>
        <time>2015-03-08T13:59:47Z</time>
      </trkpt>
      <trkpt lat="44.41656" lon="5.14624">
        <ele>961.936523</ele>
        <time>2015-03-08T13:59:59Z</time>
      </trkpt>
      <trkpt lat="44.41649" lon="5.14631">
        <ele>959.05249</ele>
        <time>2015-03-08T14:00:10Z</time>
      </trkpt>
      <trkpt lat="44.41647" lon="5.14638">
        <ele>957.129883</ele>
        <time>2015-03-08T14:00:20Z</time>
      </trkpt>
      <trkpt lat="44.41651" lon="5.14642">
        <ele>956.168457</ele>
        <time>2015-03-08T14:00:28Z</time>
      </trkpt>
      <trkpt lat="44.41653" lon="5.14651">
        <ele>955.687744</ele>
        <time>2015-03-08T14:00:37Z</time>
      </trkpt>
      <trkpt lat="44.41654" lon="5.14653">
        <ele>955.207031</ele>
        <time>2015-03-08T14:00:46Z</time>
      </trkpt>
      <trkpt lat="44.41658" lon="5.14658">
        <ele>953.284424</ele>
        <time>2015-03-08T14:00:54Z</time>
      </trkpt>
      <trkpt lat="44.41661" lon="5.14661">
        <ele>951.842529</ele>
        <time>2015-03-08T14:01:00Z</time>
      </trkpt>
      <trkpt lat="44.41663" lon="5.14663">
        <ele>950.400635</ele>
        <time>2015-03-08T14:01:08Z</time>
      </trkpt>
      <trkpt lat="44.41664" lon="5.14663">
        <ele>950.881104</ele>
        <time>2015-03-08T14:01:22Z</time>
      </trkpt>
      <trkpt lat="44.41663" lon="5.14667">
        <ele>948.958496</ele>
        <time>2015-03-08T14:01:52Z</time>
      </trkpt>
      <trkpt lat="44.41663" lon="5.14675">
        <ele>947.035889</ele>
        <time>2015-03-08T14:02:03Z</time>
      </trkpt>
      <trkpt lat="44.41665" lon="5.14675">
        <ele>946.55542</ele>
        <time>2015-03-08T14:02:06Z</time>
      </trkpt>
      <trkpt lat="44.4167" lon="5.14671">
        <ele>944.632568</ele>
        <time>2015-03-08T14:02:14Z</time>
      </trkpt>
      <trkpt lat="44.41671" lon="5.14674">
        <ele>942.710205</ele>
        <time>2015-03-08T14:02:24Z</time>
      </trkpt>
      <trkpt lat="44.41667" lon="5.14675">
        <ele>941.268066</ele>
        <time>2015-03-08T14:02:33Z</time>
      </trkpt>
      <trkpt lat="44.41666" lon="5.14679">
        <ele>939.825928</ele>
        <time>2015-03-08T14:02:39Z</time>
      </trkpt>
      <trkpt lat="44.41667" lon="5.14682">
        <ele>938.384033</ele>
        <time>2015-03-08T14:02:45Z</time>
      </trkpt>
      <trkpt lat="44.4167" lon="5.14683">
        <ele>936.941895</ele>
        <time>2015-03-08T14:02:53Z</time>
      </trkpt>
      <trkpt lat="44.41674" lon="5.14687">
        <ele>935.5</ele>
        <time>2015-03-08T14:03:01Z</time>
      </trkpt>
      <trkpt lat="44.41678" lon="5.14689">
        <ele>933.577393</ele>
        <time>2015-03-08T14:03:09Z</time>
      </trkpt>
      <trkpt lat="44.41679" lon="5.14692">
        <ele>932.616211</ele>
        <time>2015-03-08T14:03:15Z</time>
      </trkpt>
      <trkpt lat="44.41675" lon="5.14693">
        <ele>931.174316</ele>
        <time>2015-03-08T14:03:23Z</time>
      </trkpt>
      <trkpt lat="44.41672" lon="5.14697">
        <ele>930.212891</ele>
        <time>2015-03-08T14:03:29Z</time>
      </trkpt>
      <trkpt lat="44.41674" lon="5.14704">
        <ele>928.290283</ele>
        <time>2015-03-08T14:03:37Z</time>
      </trkpt>
      <trkpt lat="44.4168" lon="5.14707">
        <ele>925.886963</ele>
        <time>2015-03-08T14:03:47Z</time>
      </trkpt>
      <trkpt lat="44.41683" lon="5.14706">
        <ele>925.886963</ele>
        <time>2015-03-08T14:03:50Z</time>
      </trkpt>
      <trkpt lat="44.41686" lon="5.14707">
        <ele>925.40625</ele>
        <time>2015-03-08T14:03:58Z</time>
      </trkpt>
      <trkpt lat="44.41686" lon="5.14709">
        <ele>924.925781</ele>
        <time>2015-03-08T14:04:05Z</time>
      </trkpt>
      <trkpt lat="44.41682" lon="5.14714">
        <ele>923.483643</ele>
        <time>2015-03-08T14:04:13Z</time>
      </trkpt>
      <trkpt lat="44.41686" lon="5.14717">
        <ele>921.560791</ele>
        <time>2015-03-08T14:04:23Z</time>
      </trkpt>
      <trkpt lat="44.4169" lon="5.14718">
        <ele>920.118896</ele>
        <time>2015-03-08T14:04:29Z</time>
      </trkpt>
      <trkpt lat="44.41696" lon="5.1472">
        <ele>918.677002</ele>
        <time>2015-03-08T14:04:41Z</time>
      </trkpt>
      <trkpt lat="44.41703" lon="5.14724">
        <ele>917.235107</ele>
        <time>2015-03-08T14:04:49Z</time>
      </trkpt>
      <trkpt lat="44.41708" lon="5.14726">
        <ele>916.273682</ele>
        <time>2015-03-08T14:04:58Z</time>
      </trkpt>
      <trkpt lat="44.41711" lon="5.14731">
        <ele>914.831787</ele>
        <time>2015-03-08T14:05:04Z</time>
      </trkpt>
      <trkpt lat="44.41707" lon="5.14734">
        <ele>912.90918</ele>
        <time>2015-03-08T14:05:11Z</time>
      </trkpt>
      <trkpt lat="44.417" lon="5.14738">
        <ele>910.986572</ele>
        <time>2015-03-08T14:05:20Z</time>
      </trkpt>
      <trkpt lat="44.41694" lon="5.14738">
        <ele>909.544678</ele>
        <time>2015-03-08T14:05:30Z</time>
      </trkpt>
      <trkpt lat="44.41691" lon="5.14742">
        <ele>908.102783</ele>
        <time>2015-03-08T14:05:39Z</time>
      </trkpt>
      <trkpt lat="44.41692" lon="5.14743">
        <ele>908.102783</ele>
        <time>2015-03-08T14:05:47Z</time>
      </trkpt>
      <trkpt lat="44.41698" lon="5.14746">
        <ele>905.699219</ele>
        <time>2015-03-08T14:06:22Z</time>
      </trkpt>
      <trkpt lat="44.41703" lon="5.14752">
        <ele>904.257324</ele>
        <time>2015-03-08T14:06:29Z</time>
      </trkpt>
      <trkpt lat="44.41704" lon="5.14752">
        <ele>904.257324</ele>
        <time>2015-03-08T14:06:30Z</time>
      </trkpt>
      <trkpt lat="44.4171" lon="5.14754">
        <ele>902.815186</ele>
        <time>2015-03-08T14:06:37Z</time>
      </trkpt>
      <trkpt lat="44.41716" lon="5.14757">
        <ele>901.373291</ele>
        <time>2015-03-08T14:06:45Z</time>
      </trkpt>
      <trkpt lat="44.41722" lon="5.14761">
        <ele>899.931396</ele>
        <time>2015-03-08T14:06:53Z</time>
      </trkpt>
      <trkpt lat="44.41724" lon="5.14761">
        <ele>898.489258</ele>
        <time>2015-03-08T14:07:00Z</time>
      </trkpt>
      <trkpt lat="44.41726" lon="5.14764">
        <ele>897.528076</ele>
        <time>2015-03-08T14:07:06Z</time>
      </trkpt>
      <trkpt lat="44.41729" lon="5.1477">
        <ele>896.086182</ele>
        <time>2015-03-08T14:07:14Z</time>
      </trkpt>
      <trkpt lat="44.41735" lon="5.14773">
        <ele>894.644043</ele>
        <time>2015-03-08T14:07:21Z</time>
      </trkpt>
      <trkpt lat="44.41741" lon="5.14779">
        <ele>892.72168</ele>
        <time>2015-03-08T14:07:29Z</time>
      </trkpt>
      <trkpt lat="44.41747" lon="5.14785">
        <ele>891.279297</ele>
        <time>2015-03-08T14:07:38Z</time>
      </trkpt>
      <trkpt lat="44.4175" lon="5.14789">
        <ele>889.837402</ele>
        <time>2015-03-08T14:07:44Z</time>
      </trkpt>
      <trkpt lat="44.4176" lon="5.14792">
        <ele>888.395508</ele>
        <time>2015-03-08T14:07:54Z</time>
      </trkpt>
      <trkpt lat="44.41768" lon="5.14797">
        <ele>886.953369</ele>
        <time>2015-03-08T14:08:04Z</time>
      </trkpt>
      <trkpt lat="44.41772" lon="5.14799">
        <ele>885.992188</ele>
        <time>2015-03-08T14:08:10Z</time>
      </trkpt>
      <trkpt lat="44.41775" lon="5.14802">
        <ele>885.031006</ele>
        <time>2015-03-08T14:08:16Z</time>
      </trkpt>
      <trkpt lat="44.41781" lon="5.14805">
        <ele>883.108154</ele>
        <time>2015-03-08T14:08:24Z</time>
      </trkpt>
      <trkpt lat="44.41789" lon="5.1481">
        <ele>881.66626</ele>
        <time>2015-03-08T14:08:33Z</time>
      </trkpt>
      <trkpt lat="44.41792" lon="5.14811">
        <ele>880.224365</ele>
        <time>2015-03-08T14:08:37Z</time>
      </trkpt>
      <trkpt lat="44.41797" lon="5.14813">
        <ele>878.782471</ele>
        <time>2015-03-08T14:08:44Z</time>
      </trkpt>
      <trkpt lat="44.41803" lon="5.14815">
        <ele>877.821045</ele>
        <time>2015-03-08T14:08:52Z</time>
      </trkpt>
      <trkpt lat="44.41806" lon="5.14819">
        <ele>876.37915</ele>
        <time>2015-03-08T14:08:58Z</time>
      </trkpt>
      <trkpt lat="44.41811" lon="5.14828">
        <ele>874.937012</ele>
        <time>2015-03-08T14:09:07Z</time>
      </trkpt>
      <trkpt lat="44.41817" lon="5.14833">
        <ele>873.495117</ele>
        <time>2015-03-08T14:09:15Z</time>
      </trkpt>
      <trkpt lat="44.41824" lon="5.14841">
        <ele>872.052979</ele>
        <time>2015-03-08T14:09:24Z</time>
      </trkpt>
      <trkpt lat="44.41829" lon="5.14841">
        <ele>870.611084</ele>
        <time>2015-03-08T14:09:31Z</time>
      </trkpt>
      <trkpt lat="44.41835" lon="5.14848">
        <ele>869.169189</ele>
        <time>2015-03-08T14:09:41Z</time>
      </trkpt>
      <trkpt lat="44.41838" lon="5.1485">
        <ele>868.207764</ele>
        <time>2015-03-08T14:09:47Z</time>
      </trkpt>
      <trkpt lat="44.41842" lon="5.14853">
        <ele>865.804688</ele>
        <time>2015-03-08T14:09:57Z</time>
      </trkpt>
      <trkpt lat="44.41847" lon="5.1486">
        <ele>863.401367</ele>
        <time>2015-03-08T14:10:07Z</time>
      </trkpt>
      <trkpt lat="44.41849" lon="5.14872">
        <ele>860.517334</ele>
        <time>2015-03-08T14:10:18Z</time>
      </trkpt>
      <trkpt lat="44.4185" lon="5.14873">
        <ele>860.036621</ele>
        <time>2015-03-08T14:10:19Z</time>
      </trkpt>
      <trkpt lat="44.41852" lon="5.14876">
        <ele>859.555908</ele>
        <time>2015-03-08T14:10:22Z</time>
      </trkpt>
      <trkpt lat="44.41849" lon="5.14883">
        <ele>858.594482</ele>
        <time>2015-03-08T14:10:30Z</time>
      </trkpt>
      <trkpt lat="44.41849" lon="5.14883">
        <ele>858.594482</ele>
        <time>2015-03-08T14:10:49Z</time>
      </trkpt>
      <trkpt lat="44.4185" lon="5.14884">
        <ele>858.594482</ele>
        <time>2015-03-08T14:11:09Z</time>
      </trkpt>
      <trkpt lat="44.41853" lon="5.14887">
        <ele>855.22998</ele>
        <time>2015-03-08T14:11:56Z</time>
      </trkpt>
      <trkpt lat="44.41863" lon="5.14891">
        <ele>853.788086</ele>
        <time>2015-03-08T14:12:08Z</time>
      </trkpt>
      <trkpt lat="44.41864" lon="5.14888">
        <ele>854.268799</ele>
        <time>2015-03-08T14:13:13Z</time>
      </trkpt>
      <trkpt lat="44.41864" lon="5.14888">
        <ele>854.749268</ele>
        <time>2015-03-08T14:13:21Z</time>
      </trkpt>
      <trkpt lat="44.41862" lon="5.14885">
        <ele>855.710693</ele>
        <time>2015-03-08T14:13:44Z</time>
      </trkpt>
      <trkpt lat="44.41857" lon="5.14882">
        <ele>857.152588</ele>
        <time>2015-03-08T14:14:03Z</time>
      </trkpt>
      <trkpt lat="44.41855" lon="5.14882">
        <ele>857.633301</ele>
        <time>2015-03-08T14:14:10Z</time>
      </trkpt>
      <trkpt lat="44.41869" lon="5.14883">
        <ele>855.22998</ele>
        <time>2015-03-08T14:14:56Z</time>
      </trkpt>
      <trkpt lat="44.41876" lon="5.14891">
        <ele>853.788086</ele>
        <time>2015-03-08T14:15:08Z</time>
      </trkpt>
      <trkpt lat="44.41884" lon="5.14898">
        <ele>851.384766</ele>
        <time>2015-03-08T14:15:20Z</time>
      </trkpt>
      <trkpt lat="44.41889" lon="5.14903">
        <ele>849.462158</ele>
        <time>2015-03-08T14:15:29Z</time>
      </trkpt>
      <trkpt lat="44.41898" lon="5.14914">
        <ele>846.578369</ele>
        <time>2015-03-08T14:15:43Z</time>
      </trkpt>
      <trkpt lat="44.41903" lon="5.14919">
        <ele>844.655518</ele>
        <time>2015-03-08T14:15:50Z</time>
      </trkpt>
      <trkpt lat="44.4191" lon="5.14928">
        <ele>841.771484</ele>
        <time>2015-03-08T14:16:02Z</time>
      </trkpt>
      <trkpt lat="44.41917" lon="5.14937">
        <ele>838.887695</ele>
        <time>2015-03-08T14:16:13Z</time>
      </trkpt>
      <trkpt lat="44.41917" lon="5.14938">
        <ele>838.406982</ele>
        <time>2015-03-08T14:16:14Z</time>
      </trkpt>
      <trkpt lat="44.41923" lon="5.14942">
        <ele>836.484375</ele>
        <time>2015-03-08T14:16:22Z</time>
      </trkpt>
      <trkpt lat="44.4193" lon="5.1495">
        <ele>834.081055</ele>
        <time>2015-03-08T14:16:31Z</time>
      </trkpt>
      <trkpt lat="44.4193" lon="5.14957">
        <ele>832.158447</ele>
        <time>2015-03-08T14:16:36Z</time>
      </trkpt>
      <trkpt lat="44.41931" lon="5.14963">
        <ele>830.716553</ele>
        <time>2015-03-08T14:16:40Z</time>
      </trkpt>
      <trkpt lat="44.41937" lon="5.14973">
        <ele>827.832275</ele>
        <time>2015-03-08T14:16:50Z</time>
      </trkpt>
      <trkpt lat="44.41943" lon="5.14984">
        <ele>824.467773</ele>
        <time>2015-03-08T14:17:00Z</time>
      </trkpt>
      <trkpt lat="44.41949" lon="5.14992">
        <ele>822.545166</ele>
        <time>2015-03-08T14:17:08Z</time>
      </trkpt>
      <trkpt lat="44.41954" lon="5.14995">
        <ele>821.103271</ele>
        <time>2015-03-08T14:17:13Z</time>
      </trkpt>
      <trkpt lat="44.41958" lon="5.14999">
        <ele>819.661377</ele>
        <time>2015-03-08T14:17:19Z</time>
      </trkpt>
      <trkpt lat="44.41962" lon="5.15001">
        <ele>818.699951</ele>
        <time>2015-03-08T14:17:23Z</time>
      </trkpt>
      <trkpt lat="44.41964" lon="5.15003">
        <ele>818.219238</ele>
        <time>2015-03-08T14:17:25Z</time>
      </trkpt>
      <trkpt lat="44.41974" lon="5.15008">
        <ele>815.816162</ele>
        <time>2015-03-08T14:17:34Z</time>
      </trkpt>
      <trkpt lat="44.41979" lon="5.15014">
        <ele>814.374023</ele>
        <time>2015-03-08T14:17:40Z</time>
      </trkpt>
      <trkpt lat="44.41984" lon="5.1502">
        <ele>812.451416</ele>
        <time>2015-03-08T14:17:46Z</time>
      </trkpt>
      <trkpt lat="44.41985" lon="5.15022">
        <ele>811.970703</ele>
        <time>2015-03-08T14:17:48Z</time>
      </trkpt>
      <trkpt lat="44.41988" lon="5.15027">
        <ele>810.528564</ele>
        <time>2015-03-08T14:17:53Z</time>
      </trkpt>
      <trkpt lat="44.4199" lon="5.15029">
        <ele>809.08667</ele>
        <time>2015-03-08T14:17:56Z</time>
      </trkpt>
      <trkpt lat="44.41994" lon="5.15036">
        <ele>807.164063</ele>
        <time>2015-03-08T14:18:03Z</time>
      </trkpt>
      <trkpt lat="44.41996" lon="5.1504">
        <ele>805.722168</ele>
        <time>2015-03-08T14:18:06Z</time>
      </trkpt>
      <trkpt lat="44.42" lon="5.15045">
        <ele>804.760742</ele>
        <time>2015-03-08T14:18:11Z</time>
      </trkpt>
      <trkpt lat="44.42005" lon="5.1505">
        <ele>803.318848</ele>
        <time>2015-03-08T14:18:17Z</time>
      </trkpt>
      <trkpt lat="44.42007" lon="5.15052">
        <ele>802.357422</ele>
        <time>2015-03-08T14:18:19Z</time>
      </trkpt>
      <trkpt lat="44.42014" lon="5.15063">
        <ele>800.435059</ele>
        <time>2015-03-08T14:18:28Z</time>
      </trkpt>
      <trkpt lat="44.42017" lon="5.15067">
        <ele>799.473633</ele>
        <time>2015-03-08T14:18:33Z</time>
      </trkpt>
      <trkpt lat="44.42025" lon="5.15075">
        <ele>797.551025</ele>
        <time>2015-03-08T14:18:42Z</time>
      </trkpt>
      <trkpt lat="44.4203" lon="5.1508">
        <ele>796.109131</ele>
        <time>2015-03-08T14:18:49Z</time>
      </trkpt>
      <trkpt lat="44.42037" lon="5.15089">
        <ele>794.666748</ele>
        <time>2015-03-08T14:18:57Z</time>
      </trkpt>
      <trkpt lat="44.42043" lon="5.15098">
        <ele>792.744385</ele>
        <time>2015-03-08T14:19:06Z</time>
      </trkpt>
      <trkpt lat="44.42046" lon="5.15103">
        <ele>791.782959</ele>
        <time>2015-03-08T14:19:12Z</time>
      </trkpt>
      <trkpt lat="44.42045" lon="5.15108">
        <ele>791.782959</ele>
        <time>2015-03-08T14:19:16Z</time>
      </trkpt>
      <trkpt lat="44.4205" lon="5.15118">
        <ele>789.379639</ele>
        <time>2015-03-08T14:19:27Z</time>
      </trkpt>
      <trkpt lat="44.42057" lon="5.15128">
        <ele>786.015137</ele>
        <time>2015-03-08T14:19:38Z</time>
      </trkpt>
      <trkpt lat="44.42061" lon="5.15136">
        <ele>784.573242</ele>
        <time>2015-03-08T14:19:45Z</time>
      </trkpt>
      <trkpt lat="44.42063" lon="5.15142">
        <ele>783.611816</ele>
        <time>2015-03-08T14:19:49Z</time>
      </trkpt>
      <trkpt lat="44.42065" lon="5.15158">
        <ele>781.20874</ele>
        <time>2015-03-08T14:19:59Z</time>
      </trkpt>
      <trkpt lat="44.42064" lon="5.15175">
        <ele>778.805176</ele>
        <time>2015-03-08T14:20:06Z</time>
      </trkpt>
      <trkpt lat="44.42062" lon="5.15187">
        <ele>777.363281</ele>
        <time>2015-03-08T14:20:15Z</time>
      </trkpt>
      <trkpt lat="44.42062" lon="5.1519">
        <ele>776.882568</ele>
        <time>2015-03-08T14:20:17Z</time>
      </trkpt>
      <trkpt lat="44.42063" lon="5.15193">
        <ele>776.401855</ele>
        <time>2015-03-08T14:20:20Z</time>
      </trkpt>
      <trkpt lat="44.42066" lon="5.15202">
        <ele>774.959961</ele>
        <time>2015-03-08T14:20:28Z</time>
      </trkpt>
      <trkpt lat="44.42071" lon="5.15211">
        <ele>773.518066</ele>
        <time>2015-03-08T14:20:37Z</time>
      </trkpt>
      <trkpt lat="44.42074" lon="5.15215">
        <ele>773.518066</ele>
        <time>2015-03-08T14:20:47Z</time>
      </trkpt>
      <trkpt lat="44.42076" lon="5.15223">
        <ele>772.556641</ele>
        <time>2015-03-08T14:20:57Z</time>
      </trkpt>
      <trkpt lat="44.42079" lon="5.15238">
        <ele>772.556641</ele>
        <time>2015-03-08T14:21:07Z</time>
      </trkpt>
      <trkpt lat="44.42079" lon="5.15247">
        <ele>771.595215</ele>
        <time>2015-03-08T14:21:17Z</time>
      </trkpt>
      <trkpt lat="44.4208" lon="5.15252">
        <ele>771.114746</ele>
        <time>2015-03-08T14:21:27Z</time>
      </trkpt>
      <trkpt lat="44.42085" lon="5.15262">
        <ele>770.634033</ele>
        <time>2015-03-08T14:21:41Z</time>
      </trkpt>
      <trkpt lat="44.42082" lon="5.15256">
        <ele>770.634033</ele>
        <time>2015-03-08T14:21:58Z</time>
      </trkpt>
      <trkpt lat="44.42081" lon="5.15249">
        <ele>771.114746</ele>
        <time>2015-03-08T14:22:08Z</time>
      </trkpt>
      <trkpt lat="44.42079" lon="5.15238">
        <ele>772.556641</ele>
        <time>2015-03-08T14:22:18Z</time>
      </trkpt>
      <trkpt lat="44.42077" lon="5.15232">
        <ele>773.037354</ele>
        <time>2015-03-08T14:22:28Z</time>
      </trkpt>
      <trkpt lat="44.42075" lon="5.15225">
        <ele>773.518066</ele>
        <time>2015-03-08T14:22:53Z</time>
      </trkpt>
      <trkpt lat="44.42071" lon="5.15223">
        <ele>773.518066</ele>
        <time>2015-03-08T14:23:03Z</time>
      </trkpt>
      <trkpt lat="44.42073" lon="5.15224">
        <ele>773.998535</ele>
        <time>2015-03-08T14:23:13Z</time>
      </trkpt>
      <trkpt lat="44.42072" lon="5.15225">
        <ele>773.998535</ele>
        <time>2015-03-08T14:23:28Z</time>
      </trkpt>
      <trkpt lat="44.42076" lon="5.15238">
        <ele>773.037354</ele>
        <time>2015-03-08T14:23:40Z</time>
      </trkpt>
      <trkpt lat="44.42077" lon="5.15244">
        <ele>772.075928</ele>
        <time>2015-03-08T14:23:45Z</time>
      </trkpt>
      <trkpt lat="44.42081" lon="5.15256">
        <ele>771.114746</ele>
        <time>2015-03-08T14:23:58Z</time>
      </trkpt>
      <trkpt lat="44.42082" lon="5.1526">
        <ele>770.634033</ele>
        <time>2015-03-08T14:24:01Z</time>
      </trkpt>
      <trkpt lat="44.4209" lon="5.15276">
        <ele>769.192139</ele>
        <time>2015-03-08T14:24:15Z</time>
      </trkpt>
      <trkpt lat="44.42099" lon="5.15288">
        <ele>768.711426</ele>
        <time>2015-03-08T14:24:28Z</time>
      </trkpt>
      <trkpt lat="44.421" lon="5.15288">
        <ele>769.192139</ele>
        <time>2015-03-08T14:24:38Z</time>
      </trkpt>
      <trkpt lat="44.42098" lon="5.15285">
        <ele>768.230713</ele>
        <time>2015-03-08T14:24:48Z</time>
      </trkpt>
      <trkpt lat="44.42094" lon="5.1528">
        <ele>769.192139</ele>
        <time>2015-03-08T14:24:59Z</time>
      </trkpt>
      <trkpt lat="44.4209" lon="5.15272">
        <ele>769.672852</ele>
        <time>2015-03-08T14:25:06Z</time>
      </trkpt>
      <trkpt lat="44.42085" lon="5.15262">
        <ele>770.634033</ele>
        <time>2015-03-08T14:25:17Z</time>
      </trkpt>
      <trkpt lat="44.42081" lon="5.15252">
        <ele>771.114746</ele>
        <time>2015-03-08T14:25:26Z</time>
      </trkpt>
      <trkpt lat="44.42079" lon="5.15243">
        <ele>772.075928</ele>
        <time>2015-03-08T14:25:34Z</time>
      </trkpt>
      <trkpt lat="44.42076" lon="5.15235">
        <ele>773.518066</ele>
        <time>2015-03-08T14:25:42Z</time>
      </trkpt>
      <trkpt lat="44.42074" lon="5.15231">
        <ele>773.518066</ele>
        <time>2015-03-08T14:25:49Z</time>
      </trkpt>
      <trkpt lat="44.4207" lon="5.1523">
        <ele>772.556641</ele>
        <time>2015-03-08T14:25:59Z</time>
      </trkpt>
      <trkpt lat="44.42066" lon="5.15233">
        <ele>771.114746</ele>
        <time>2015-03-08T14:26:08Z</time>
      </trkpt>
      <trkpt lat="44.42062" lon="5.15242">
        <ele>769.672852</ele>
        <time>2015-03-08T14:26:17Z</time>
      </trkpt>
      <trkpt lat="44.4206" lon="5.15244">
        <ele>769.192139</ele>
        <time>2015-03-08T14:26:19Z</time>
      </trkpt>
      <trkpt lat="44.42055" lon="5.1525">
        <ele>767.269531</ele>
        <time>2015-03-08T14:26:28Z</time>
      </trkpt>
      <trkpt lat="44.42048" lon="5.15258">
        <ele>764.866211</ele>
        <time>2015-03-08T14:26:41Z</time>
      </trkpt>
      <trkpt lat="44.42041" lon="5.15267">
        <ele>761.982178</ele>
        <time>2015-03-08T14:26:51Z</time>
      </trkpt>
      <trkpt lat="44.42033" lon="5.15274">
        <ele>759.578857</ele>
        <time>2015-03-08T14:27:02Z</time>
      </trkpt>
      <trkpt lat="44.42029" lon="5.15276">
        <ele>758.617432</ele>
        <time>2015-03-08T14:27:07Z</time>
      </trkpt>
      <trkpt lat="44.42021" lon="5.15283">
        <ele>755.25293</ele>
        <time>2015-03-08T14:27:20Z</time>
      </trkpt>
      <trkpt lat="44.42016" lon="5.15292">
        <ele>752.849609</ele>
        <time>2015-03-08T14:27:32Z</time>
      </trkpt>
      <trkpt lat="44.4201" lon="5.153">
        <ele>750.446533</ele>
        <time>2015-03-08T14:27:43Z</time>
      </trkpt>
      <trkpt lat="44.42006" lon="5.15303">
        <ele>748.523682</ele>
        <time>2015-03-08T14:27:52Z</time>
      </trkpt>
      <trkpt lat="44.42" lon="5.15311">
        <ele>746.120361</ele>
        <time>2015-03-08T14:28:01Z</time>
      </trkpt>
      <trkpt lat="44.41995" lon="5.15312">
        <ele>744.678223</ele>
        <time>2015-03-08T14:28:10Z</time>
      </trkpt>
      <trkpt lat="44.41989" lon="5.15315">
        <ele>742.755859</ele>
        <time>2015-03-08T14:28:20Z</time>
      </trkpt>
      <trkpt lat="44.41987" lon="5.15319">
        <ele>741.313721</ele>
        <time>2015-03-08T14:28:25Z</time>
      </trkpt>
      <trkpt lat="44.41984" lon="5.15321">
        <ele>740.352539</ele>
        <time>2015-03-08T14:28:31Z</time>
      </trkpt>
      <trkpt lat="44.41979" lon="5.15325">
        <ele>738.429932</ele>
        <time>2015-03-08T14:28:38Z</time>
      </trkpt>
      <trkpt lat="44.41976" lon="5.15327">
        <ele>737.949219</ele>
        <time>2015-03-08T14:28:43Z</time>
      </trkpt>
      <trkpt lat="44.41968" lon="5.15334">
        <ele>736.507324</ele>
        <time>2015-03-08T14:28:52Z</time>
      </trkpt>
      <trkpt lat="44.41963" lon="5.15334">
        <ele>734.584717</ele>
        <time>2015-03-08T14:29:00Z</time>
      </trkpt>
      <trkpt lat="44.41961" lon="5.15332">
        <ele>734.104004</ele>
        <time>2015-03-08T14:29:02Z</time>
      </trkpt>
      <trkpt lat="44.41958" lon="5.15333">
        <ele>733.142578</ele>
        <time>2015-03-08T14:29:06Z</time>
      </trkpt>
      <trkpt lat="44.41954" lon="5.15332">
        <ele>731.219971</ele>
        <time>2015-03-08T14:29:14Z</time>
      </trkpt>
      <trkpt lat="44.41945" lon="5.15325">
        <ele>730.258545</ele>
        <time>2015-03-08T14:29:24Z</time>
      </trkpt>
      <trkpt lat="44.41939" lon="5.15328">
        <ele>729.777832</ele>
        <time>2015-03-08T14:29:32Z</time>
      </trkpt>
      <trkpt lat="44.41939" lon="5.15328">
        <ele>729.297119</ele>
        <time>2015-03-08T14:29:33Z</time>
      </trkpt>
      <trkpt lat="44.41933" lon="5.15335">
        <ele>727.374756</ele>
        <time>2015-03-08T14:29:42Z</time>
      </trkpt>
      <trkpt lat="44.41928" lon="5.1534">
        <ele>725.932617</ele>
        <time>2015-03-08T14:29:50Z</time>
      </trkpt>
      <trkpt lat="44.41926" lon="5.1534">
        <ele>725.451904</ele>
        <time>2015-03-08T14:29:52Z</time>
      </trkpt>
      <trkpt lat="44.41923" lon="5.15338">
        <ele>725.451904</ele>
        <time>2015-03-08T14:29:55Z</time>
      </trkpt>
      <trkpt lat="44.41918" lon="5.15336">
        <ele>723.529541</ele>
        <time>2015-03-08T14:30:02Z</time>
      </trkpt>
      <trkpt lat="44.41911" lon="5.15335">
        <ele>722.087402</ele>
        <time>2015-03-08T14:30:09Z</time>
      </trkpt>
      <trkpt lat="44.41908" lon="5.15332">
        <ele>721.606689</ele>
        <time>2015-03-08T14:30:13Z</time>
      </trkpt>
      <trkpt lat="44.41901" lon="5.1534">
        <ele>720.164795</ele>
        <time>2015-03-08T14:30:20Z</time>
      </trkpt>
      <trkpt lat="44.41894" lon="5.15347">
        <ele>717.281006</ele>
        <time>2015-03-08T14:30:32Z</time>
      </trkpt>
      <trkpt lat="44.41888" lon="5.15353">
        <ele>715.358154</ele>
        <time>2015-03-08T14:30:43Z</time>
      </trkpt>
      <trkpt lat="44.41885" lon="5.15356">
        <ele>714.396729</ele>
        <time>2015-03-08T14:30:52Z</time>
      </trkpt>
      <trkpt lat="44.41879" lon="5.15358">
        <ele>713.435547</ele>
        <time>2015-03-08T14:30:59Z</time>
      </trkpt>
      <trkpt lat="44.41877" lon="5.15358">
        <ele>712.474121</ele>
        <time>2015-03-08T14:31:08Z</time>
      </trkpt>
      <trkpt lat="44.4187" lon="5.15358">
        <ele>710.070801</ele>
        <time>2015-03-08T14:31:18Z</time>
      </trkpt>
      <trkpt lat="44.41866" lon="5.15363">
        <ele>708.628906</ele>
        <time>2015-03-08T14:31:25Z</time>
      </trkpt>
      <trkpt lat="44.41858" lon="5.15369">
        <ele>706.225586</ele>
        <time>2015-03-08T14:31:34Z</time>
      </trkpt>
      <trkpt lat="44.41852" lon="5.15374">
        <ele>704.783691</ele>
        <time>2015-03-08T14:31:41Z</time>
      </trkpt>
      <trkpt lat="44.41841" lon="5.15382">
        <ele>702.380371</ele>
        <time>2015-03-08T14:31:53Z</time>
      </trkpt>
      <trkpt lat="44.41836" lon="5.15385">
        <ele>700.458008</ele>
        <time>2015-03-08T14:32:02Z</time>
      </trkpt>
      <trkpt lat="44.4183" lon="5.1539">
        <ele>699.015625</ele>
        <time>2015-03-08T14:32:10Z</time>
      </trkpt>
      <trkpt lat="44.41826" lon="5.15395">
        <ele>697.57373</ele>
        <time>2015-03-08T14:32:18Z</time>
      </trkpt>
      <trkpt lat="44.41821" lon="5.15397">
        <ele>695.17041</ele>
        <time>2015-03-08T14:32:27Z</time>
      </trkpt>
      <trkpt lat="44.41815" lon="5.15403">
        <ele>693.247803</ele>
        <time>2015-03-08T14:32:38Z</time>
      </trkpt>
      <trkpt lat="44.41808" lon="5.15409">
        <ele>691.325195</ele>
        <time>2015-03-08T14:32:49Z</time>
      </trkpt>
      <trkpt lat="44.41799" lon="5.1541">
        <ele>687.960693</ele>
        <time>2015-03-08T14:33:02Z</time>
      </trkpt>
      <trkpt lat="44.41793" lon="5.15412">
        <ele>686.038086</ele>
        <time>2015-03-08T14:33:13Z</time>
      </trkpt>
      <trkpt lat="44.41788" lon="5.15413">
        <ele>684.115479</ele>
        <time>2015-03-08T14:33:22Z</time>
      </trkpt>
      <trkpt lat="44.41781" lon="5.15414">
        <ele>681.231445</ele>
        <time>2015-03-08T14:33:35Z</time>
      </trkpt>
      <trkpt lat="44.41778" lon="5.15413">
        <ele>679.789307</ele>
        <time>2015-03-08T14:33:44Z</time>
      </trkpt>
      <trkpt lat="44.41773" lon="5.15412">
        <ele>677.866699</ele>
        <time>2015-03-08T14:33:53Z</time>
      </trkpt>
      <trkpt lat="44.41763" lon="5.15415">
        <ele>674.98291</ele>
        <time>2015-03-08T14:34:06Z</time>
      </trkpt>
      <trkpt lat="44.41759" lon="5.15418">
        <ele>673.541016</ele>
        <time>2015-03-08T14:34:12Z</time>
      </trkpt>
      <trkpt lat="44.41755" lon="5.15421">
        <ele>672.098877</ele>
        <time>2015-03-08T14:34:20Z</time>
      </trkpt>
      <trkpt lat="44.41749" lon="5.15429">
        <ele>670.656982</ele>
        <time>2015-03-08T14:34:29Z</time>
      </trkpt>
      <trkpt lat="44.4174" lon="5.15437">
        <ele>667.292236</ele>
        <time>2015-03-08T14:34:42Z</time>
      </trkpt>
      <trkpt lat="44.41734" lon="5.15446">
        <ele>664.888916</ele>
        <time>2015-03-08T14:34:54Z</time>
      </trkpt>
      <trkpt lat="44.41732" lon="5.15449">
        <ele>664.888916</ele>
        <time>2015-03-08T14:35:04Z</time>
      </trkpt>
      <trkpt lat="44.41732" lon="5.15449">
        <ele>663.92749</ele>
        <time>2015-03-08T14:36:56Z</time>
      </trkpt>
      <trkpt lat="44.41727" lon="5.15461">
        <ele>662.005127</ele>
        <time>2015-03-08T14:37:06Z</time>
      </trkpt>
      <trkpt lat="44.41722" lon="5.15471">
        <ele>659.601807</ele>
        <time>2015-03-08T14:37:17Z</time>
      </trkpt>
      <trkpt lat="44.41715" lon="5.15482">
        <ele>656.717773</ele>
        <time>2015-03-08T14:37:27Z</time>
      </trkpt>
      <trkpt lat="44.41711" lon="5.15491">
        <ele>654.795166</ele>
        <time>2015-03-08T14:37:36Z</time>
      </trkpt>
      <trkpt lat="44.41704" lon="5.15504">
        <ele>651.43042</ele>
        <time>2015-03-08T14:37:47Z</time>
      </trkpt>
      <trkpt lat="44.41698" lon="5.15515">
        <ele>649.0271</ele>
        <time>2015-03-08T14:37:55Z</time>
      </trkpt>
      <trkpt lat="44.41694" lon="5.15527">
        <ele>647.104492</ele>
        <time>2015-03-08T14:38:03Z</time>
      </trkpt>
      <trkpt lat="44.4169" lon="5.15542">
        <ele>645.181885</ele>
        <time>2015-03-08T14:38:13Z</time>
      </trkpt>
      <trkpt lat="44.41688" lon="5.15553">
        <ele>643.73999</ele>
        <time>2015-03-08T14:38:20Z</time>
      </trkpt>
      <trkpt lat="44.41685" lon="5.15566">
        <ele>641.817383</ele>
        <time>2015-03-08T14:38:30Z</time>
      </trkpt>
      <trkpt lat="44.41688" lon="5.15573">
        <ele>640.855957</ele>
        <time>2015-03-08T14:38:39Z</time>
      </trkpt>
      <trkpt lat="44.4169" lon="5.15585">
        <ele>637.491455</ele>
        <time>2015-03-08T14:38:50Z</time>
      </trkpt>
      <trkpt lat="44.41687" lon="5.15587">
        <ele>637.972168</ele>
        <time>2015-03-08T14:38:52Z</time>
      </trkpt>
      <trkpt lat="44.41678" lon="5.15597">
        <ele>635.568604</ele>
        <time>2015-03-08T14:39:00Z</time>
      </trkpt>
      <trkpt lat="44.41671" lon="5.15602">
        <ele>634.126709</ele>
        <time>2015-03-08T14:39:07Z</time>
      </trkpt>
      <trkpt lat="44.41665" lon="5.15613">
        <ele>631.723389</ele>
        <time>2015-03-08T14:39:16Z</time>
      </trkpt>
      <trkpt lat="44.41659" lon="5.15621">
        <ele>630.281494</ele>
        <time>2015-03-08T14:39:23Z</time>
      </trkpt>
      <trkpt lat="44.41658" lon="5.15628">
        <ele>628.8396</ele>
        <time>2015-03-08T14:39:30Z</time>
      </trkpt>
      <trkpt lat="44.41655" lon="5.15635">
        <ele>626.916992</ele>
        <time>2015-03-08T14:39:39Z</time>
      </trkpt>
      <trkpt lat="44.41652" lon="5.15645">
        <ele>625.474854</ele>
        <time>2015-03-08T14:39:46Z</time>
      </trkpt>
      <trkpt lat="44.4165" lon="5.15654">
        <ele>624.513672</ele>
        <time>2015-03-08T14:39:53Z</time>
      </trkpt>
      <trkpt lat="44.41649" lon="5.15655">
        <ele>624.032959</ele>
        <time>2015-03-08T14:39:55Z</time>
      </trkpt>
      <trkpt lat="44.41643" lon="5.15667">
        <ele>622.110352</ele>
        <time>2015-03-08T14:40:05Z</time>
      </trkpt>
      <trkpt lat="44.4164" lon="5.15673">
        <ele>621.14917</ele>
        <time>2015-03-08T14:40:13Z</time>
      </trkpt>
      <trkpt lat="44.4164" lon="5.1568">
        <ele>619.226318</ele>
        <time>2015-03-08T14:40:21Z</time>
      </trkpt>
      <trkpt lat="44.41635" lon="5.15689">
        <ele>617.303711</ele>
        <time>2015-03-08T14:40:30Z</time>
      </trkpt>
      <trkpt lat="44.41632" lon="5.15692">
        <ele>616.822998</ele>
        <time>2015-03-08T14:40:34Z</time>
      </trkpt>
      <trkpt lat="44.41627" lon="5.15699">
        <ele>614.900391</ele>
        <time>2015-03-08T14:40:41Z</time>
      </trkpt>
      <trkpt lat="44.41625" lon="5.15703">
        <ele>613.938965</ele>
        <time>2015-03-08T14:40:49Z</time>
      </trkpt>
      <trkpt lat="44.41619" lon="5.15713">
        <ele>613.458496</ele>
        <time>2015-03-08T14:40:58Z</time>
      </trkpt>
      <trkpt lat="44.41618" lon="5.15715">
        <ele>612.977783</ele>
        <time>2015-03-08T14:41:00Z</time>
      </trkpt>
      <trkpt lat="44.4162" lon="5.15723">
        <ele>612.016602</ele>
        <time>2015-03-08T14:41:07Z</time>
      </trkpt>
      <trkpt lat="44.41622" lon="5.15724">
        <ele>611.535889</ele>
        <time>2015-03-08T14:41:20Z</time>
      </trkpt>
      <trkpt lat="44.41626" lon="5.15725">
        <ele>610.574463</ele>
        <time>2015-03-08T14:41:29Z</time>
      </trkpt>
      <trkpt lat="44.41631" lon="5.15724">
        <ele>608.171387</ele>
        <time>2015-03-08T14:41:41Z</time>
      </trkpt>
      <trkpt lat="44.41638" lon="5.15722">
        <ele>606.729248</ele>
        <time>2015-03-08T14:41:49Z</time>
      </trkpt>
      <trkpt lat="44.41649" lon="5.15718">
        <ele>604.806641</ele>
        <time>2015-03-08T14:41:58Z</time>
      </trkpt>
      <trkpt lat="44.41657" lon="5.15715">
        <ele>603.845215</ele>
        <time>2015-03-08T14:42:06Z</time>
      </trkpt>
      <trkpt lat="44.41661" lon="5.15711">
        <ele>603.364502</ele>
        <time>2015-03-08T14:42:13Z</time>
      </trkpt>
      <trkpt lat="44.41672" lon="5.15707">
        <ele>602.403076</ele>
        <time>2015-03-08T14:42:24Z</time>
      </trkpt>
      <trkpt lat="44.41678" lon="5.15709">
        <ele>601.922607</ele>
        <time>2015-03-08T14:42:35Z</time>
      </trkpt>
      <trkpt lat="44.41675" lon="5.15717">
        <ele>600.961182</ele>
        <time>2015-03-08T14:42:49Z</time>
      </trkpt>
      <trkpt lat="44.41679" lon="5.15709">
        <ele>600.961182</ele>
        <time>2015-03-08T14:42:55Z</time>
      </trkpt>
      <trkpt lat="44.41693" lon="5.15704">
        <ele>600.961182</ele>
        <time>2015-03-08T14:43:09Z</time>
      </trkpt>
      <trkpt lat="44.41703" lon="5.157">
        <ele>600</ele>
        <time>2015-03-08T14:43:21Z</time>
      </trkpt>
      <trkpt lat="44.41712" lon="5.15696">
        <ele>600.480713</ele>
        <time>2015-03-08T14:43:37Z</time>
      </trkpt>
      <trkpt lat="44.41715" lon="5.15698">
        <ele>599.519287</ele>
        <time>2015-03-08T14:43:55Z</time>
      </trkpt>
      <trkpt lat="44.41717" lon="5.15697">
        <ele>599.519287</ele>
        <time>2015-03-08T14:44:02Z</time>
      </trkpt>
      <trkpt lat="44.41718" lon="5.15697">
        <ele>599.519287</ele>
        <time>2015-03-08T14:44:19Z</time>
      </trkpt>
      <trkpt lat="44.4172" lon="5.15703">
        <ele>598.557861</ele>
        <time>2015-03-08T14:44:30Z</time>
      </trkpt>
      <trkpt lat="44.41717" lon="5.15706">
        <ele>598.557861</ele>
        <time>2015-03-08T14:44:32Z</time>
      </trkpt>
      <trkpt lat="44.41715" lon="5.15713">
        <ele>598.077393</ele>
        <time>2015-03-08T14:44:40Z</time>
      </trkpt>
      <trkpt lat="44.41712" lon="5.15717">
        <ele>598.077393</ele>
        <time>2015-03-08T14:44:50Z</time>
      </trkpt>
      <trkpt lat="44.41712" lon="5.15718">
        <ele>597.59668</ele>
        <time>2015-03-08T14:45:03Z</time>
      </trkpt>
      <trkpt lat="44.41712" lon="5.15726">
        <ele>596.154785</ele>
        <time>2015-03-08T14:45:12Z</time>
      </trkpt>
      <trkpt lat="44.41716" lon="5.15734">
        <ele>595.193359</ele>
        <time>2015-03-08T14:45:19Z</time>
      </trkpt>
      <trkpt lat="44.41718" lon="5.15736">
        <ele>594.712646</ele>
        <time>2015-03-08T14:45:22Z</time>
      </trkpt>
      <trkpt lat="44.41718" lon="5.15739">
        <ele>594.232178</ele>
        <time>2015-03-08T14:45:24Z</time>
      </trkpt>
      <trkpt lat="44.41722" lon="5.15747">
        <ele>592.790283</ele>
        <time>2015-03-08T14:45:32Z</time>
      </trkpt>
      <trkpt lat="44.41723" lon="5.15751">
        <ele>591.828857</ele>
        <time>2015-03-08T14:45:38Z</time>
      </trkpt>
      <trkpt lat="44.41727" lon="5.15763">
        <ele>589.425537</ele>
        <time>2015-03-08T14:45:49Z</time>
      </trkpt>
      <trkpt lat="44.4173" lon="5.15772">
        <ele>587.502686</ele>
        <time>2015-03-08T14:45:58Z</time>
      </trkpt>
      <trkpt lat="44.41738" lon="5.15784">
        <ele>585.099609</ele>
        <time>2015-03-08T14:46:11Z</time>
      </trkpt>
      <trkpt lat="44.41743" lon="5.15789">
        <ele>583.657471</ele>
        <time>2015-03-08T14:46:20Z</time>
      </trkpt>
      <trkpt lat="44.41746" lon="5.1579">
        <ele>583.176758</ele>
        <time>2015-03-08T14:46:22Z</time>
      </trkpt>
      <trkpt lat="44.41752" lon="5.15798">
        <ele>582.215576</ele>
        <time>2015-03-08T14:46:29Z</time>
      </trkpt>
      <trkpt lat="44.41749" lon="5.1581">
        <ele>580.773682</ele>
        <time>2015-03-08T14:46:40Z</time>
      </trkpt>
      <trkpt lat="44.41741" lon="5.15818">
        <ele>579.331543</ele>
        <time>2015-03-08T14:46:52Z</time>
      </trkpt>
      <trkpt lat="44.41739" lon="5.1582">
        <ele>578.851074</ele>
        <time>2015-03-08T14:46:55Z</time>
      </trkpt>
      <trkpt lat="44.41734" lon="5.15832">
        <ele>576.928467</ele>
        <time>2015-03-08T14:47:03Z</time>
      </trkpt>
      <trkpt lat="44.41735" lon="5.15833">
        <ele>576.928467</ele>
        <time>2015-03-08T14:47:04Z</time>
      </trkpt>
      <trkpt lat="44.41737" lon="5.15838">
        <ele>576.447754</ele>
        <time>2015-03-08T14:47:08Z</time>
      </trkpt>
      <trkpt lat="44.4174" lon="5.15849">
        <ele>575.005859</ele>
        <time>2015-03-08T14:47:16Z</time>
      </trkpt>
      <trkpt lat="44.41742" lon="5.15854">
        <ele>574.525146</ele>
        <time>2015-03-08T14:47:20Z</time>
      </trkpt>
      <trkpt lat="44.41744" lon="5.15865">
        <ele>573.083252</ele>
        <time>2015-03-08T14:47:28Z</time>
      </trkpt>
      <trkpt lat="44.41745" lon="5.15871">
        <ele>572.602539</ele>
        <time>2015-03-08T14:47:33Z</time>
      </trkpt>
      <trkpt lat="44.41745" lon="5.15873">
        <ele>572.121826</ele>
        <time>2015-03-08T14:47:35Z</time>
      </trkpt>
      <trkpt lat="44.41748" lon="5.15885">
        <ele>571.1604</ele>
        <time>2015-03-08T14:47:42Z</time>
      </trkpt>
      <trkpt lat="44.41752" lon="5.15899">
        <ele>570.198975</ele>
        <time>2015-03-08T14:47:52Z</time>
      </trkpt>
      <trkpt lat="44.41758" lon="5.15902">
        <ele>569.718506</ele>
        <time>2015-03-08T14:47:57Z</time>
      </trkpt>
      <trkpt lat="44.41768" lon="5.15918">
        <ele>568.75708</ele>
        <time>2015-03-08T14:48:09Z</time>
      </trkpt>
      <trkpt lat="44.41773" lon="5.15932">
        <ele>568.75708</ele>
        <time>2015-03-08T14:48:18Z</time>
      </trkpt>
      <trkpt lat="44.41777" lon="5.15938">
        <ele>568.276367</ele>
        <time>2015-03-08T14:48:23Z</time>
      </trkpt>
      <trkpt lat="44.41785" lon="5.15949">
        <ele>567.795654</ele>
        <time>2015-03-08T14:48:33Z</time>
      </trkpt>
      <trkpt lat="44.41789" lon="5.15949">
        <ele>567.795654</ele>
        <time>2015-03-08T14:48:40Z</time>
      </trkpt>
      <trkpt lat="44.41793" lon="5.15958">
        <ele>567.315186</ele>
        <time>2015-03-08T14:48:55Z</time>
      </trkpt>
      <trkpt lat="44.41796" lon="5.15964">
        <ele>566.834473</ele>
        <time>2015-03-08T14:48:59Z</time>
      </trkpt>
      <trkpt lat="44.41802" lon="5.15964">
        <ele>566.35376</ele>
        <time>2015-03-08T14:49:05Z</time>
      </trkpt>
      <trkpt lat="44.41806" lon="5.15967">
        <ele>566.35376</ele>
        <time>2015-03-08T14:49:14Z</time>
      </trkpt>
      <trkpt lat="44.41809" lon="5.15968">
        <ele>566.35376</ele>
        <time>2015-03-08T14:49:24Z</time>
      </trkpt>
      <trkpt lat="44.41812" lon="5.15965">
        <ele>565.873291</ele>
        <time>2015-03-08T14:49:30Z</time>
      </trkpt>
      <trkpt lat="44.41815" lon="5.15964">
        <ele>565.392578</ele>
        <time>2015-03-08T14:49:40Z</time>
      </trkpt>
      <trkpt lat="44.41822" lon="5.15967">
        <ele>565.392578</ele>
        <time>2015-03-08T14:49:46Z</time>
      </trkpt>
      <trkpt lat="44.41826" lon="5.15967">
        <ele>564.911865</ele>
        <time>2015-03-08T14:49:50Z</time>
      </trkpt>
      <trkpt lat="44.4184" lon="5.15968">
        <ele>563.950439</ele>
        <time>2015-03-08T14:50:01Z</time>
      </trkpt>
      <trkpt lat="44.41846" lon="5.1597">
        <ele>563.950439</ele>
        <time>2015-03-08T14:50:10Z</time>
      </trkpt>
      <trkpt lat="44.41852" lon="5.1597">
        <ele>562.989258</ele>
        <time>2015-03-08T14:50:25Z</time>
      </trkpt>
      <trkpt lat="44.41858" lon="5.1597">
        <ele>562.989258</ele>
        <time>2015-03-08T14:50:34Z</time>
      </trkpt>
      <trkpt lat="44.41865" lon="5.15971">
        <ele>562.028076</ele>
        <time>2015-03-08T14:50:50Z</time>
      </trkpt>
      <trkpt lat="44.41874" lon="5.15973">
        <ele>562.028076</ele>
        <time>2015-03-08T14:50:59Z</time>
      </trkpt>
      <trkpt lat="44.41881" lon="5.15976">
        <ele>561.547363</ele>
        <time>2015-03-08T14:51:06Z</time>
      </trkpt>
      <trkpt lat="44.41891" lon="5.1598">
        <ele>561.547363</ele>
        <time>2015-03-08T14:51:12Z</time>
      </trkpt>
      <trkpt lat="44.419" lon="5.1599">
        <ele>561.547363</ele>
        <time>2015-03-08T14:51:21Z</time>
      </trkpt>
      <trkpt lat="44.41911" lon="5.16">
        <ele>562.508545</ele>
        <time>2015-03-08T14:51:31Z</time>
      </trkpt>
      <trkpt lat="44.4192" lon="5.16004">
        <ele>562.028076</ele>
        <time>2015-03-08T14:51:41Z</time>
      </trkpt>
      <trkpt lat="44.41928" lon="5.16007">
        <ele>562.028076</ele>
        <time>2015-03-08T14:51:47Z</time>
      </trkpt>
      <trkpt lat="44.41934" lon="5.16007">
        <ele>562.028076</ele>
        <time>2015-03-08T14:51:54Z</time>
      </trkpt>
      <trkpt lat="44.41942" lon="5.16009">
        <ele>562.028076</ele>
        <time>2015-03-08T14:52:03Z</time>
      </trkpt>
      <trkpt lat="44.41947" lon="5.16012">
        <ele>562.508545</ele>
        <time>2015-03-08T14:52:09Z</time>
      </trkpt>
      <trkpt lat="44.41956" lon="5.16014">
        <ele>562.989258</ele>
        <time>2015-03-08T14:52:16Z</time>
      </trkpt>
      <trkpt lat="44.41962" lon="5.16012">
        <ele>563.469971</ele>
        <time>2015-03-08T14:52:23Z</time>
      </trkpt>
      <trkpt lat="44.41979" lon="5.16012">
        <ele>564.431152</ele>
        <time>2015-03-08T14:52:34Z</time>
      </trkpt>
      <trkpt lat="44.41988" lon="5.16011">
        <ele>565.392578</ele>
        <time>2015-03-08T14:52:43Z</time>
      </trkpt>
      <trkpt lat="44.41992" lon="5.16011">
        <ele>565.873291</ele>
        <time>2015-03-08T14:52:51Z</time>
      </trkpt>
      <trkpt lat="44.41999" lon="5.16018">
        <ele>566.35376</ele>
        <time>2015-03-08T14:53:12Z</time>
      </trkpt>
      <trkpt lat="44.42007" lon="5.16024">
        <ele>567.795654</ele>
        <time>2015-03-08T14:53:24Z</time>
      </trkpt>
      <trkpt lat="44.42009" lon="5.16028">
        <ele>567.795654</ele>
        <time>2015-03-08T14:53:28Z</time>
      </trkpt>
      <trkpt lat="44.42016" lon="5.16037">
        <ele>568.75708</ele>
        <time>2015-03-08T14:53:36Z</time>
      </trkpt>
      <trkpt lat="44.42023" lon="5.16049">
        <ele>568.75708</ele>
        <time>2015-03-08T14:53:51Z</time>
      </trkpt>
      <trkpt lat="44.4203" lon="5.1606">
        <ele>569.237793</ele>
        <time>2015-03-08T14:54:06Z</time>
      </trkpt>
      <trkpt lat="44.42036" lon="5.1607">
        <ele>569.718506</ele>
        <time>2015-03-08T14:54:19Z</time>
      </trkpt>
      <trkpt lat="44.42047" lon="5.16085">
        <ele>569.718506</ele>
        <time>2015-03-08T14:54:35Z</time>
      </trkpt>
      <trkpt lat="44.42055" lon="5.16095">
        <ele>569.718506</ele>
        <time>2015-03-08T14:54:47Z</time>
      </trkpt>
      <trkpt lat="44.42059" lon="5.16101">
        <ele>570.198975</ele>
        <time>2015-03-08T14:54:59Z</time>
      </trkpt>
      <trkpt lat="44.42054" lon="5.16096">
        <ele>569.718506</ele>
        <time>2015-03-08T14:55:05Z</time>
      </trkpt>
      <trkpt lat="44.42057" lon="5.161">
        <ele>569.237793</ele>
        <time>2015-03-08T14:55:10Z</time>
      </trkpt>
      <trkpt lat="44.42058" lon="5.16101">
        <ele>569.718506</ele>
        <time>2015-03-08T14:55:12Z</time>
      </trkpt>
      <trkpt lat="44.42066" lon="5.16109">
        <ele>569.718506</ele>
        <time>2015-03-08T14:55:23Z</time>
      </trkpt>
      <trkpt lat="44.42066" lon="5.16106">
        <ele>569.237793</ele>
        <time>2015-03-08T14:55:29Z</time>
      </trkpt>
      <trkpt lat="44.42059" lon="5.16097">
        <ele>569.718506</ele>
        <time>2015-03-08T14:55:38Z</time>
      </trkpt>
      <trkpt lat="44.4205" lon="5.16084">
        <ele>569.718506</ele>
        <time>2015-03-08T14:55:46Z</time>
      </trkpt>
      <trkpt lat="44.4205" lon="5.16083">
        <ele>569.718506</ele>
        <time>2015-03-08T14:55:48Z</time>
      </trkpt>
      <trkpt lat="44.42046" lon="5.16078">
        <ele>569.718506</ele>
        <time>2015-03-08T14:55:51Z</time>
      </trkpt>
      <trkpt lat="44.4204" lon="5.16076">
        <ele>569.237793</ele>
        <time>2015-03-08T14:55:59Z</time>
      </trkpt>
      <trkpt lat="44.42035" lon="5.16059">
        <ele>569.237793</ele>
        <time>2015-03-08T14:56:09Z</time>
      </trkpt>
      <trkpt lat="44.42029" lon="5.16052">
        <ele>568.75708</ele>
        <time>2015-03-08T14:56:16Z</time>
      </trkpt>
      <trkpt lat="44.42024" lon="5.16045">
        <ele>568.75708</ele>
        <time>2015-03-08T14:56:21Z</time>
      </trkpt>
      <trkpt lat="44.42018" lon="5.16039">
        <ele>568.75708</ele>
        <time>2015-03-08T14:56:25Z</time>
      </trkpt>
      <trkpt lat="44.42017" lon="5.16038">
        <ele>568.276367</ele>
        <time>2015-03-08T14:56:27Z</time>
      </trkpt>
      <trkpt lat="44.42011" lon="5.16028">
        <ele>568.75708</ele>
        <time>2015-03-08T14:56:33Z</time>
      </trkpt>
      <trkpt lat="44.42009" lon="5.16013">
        <ele>569.237793</ele>
        <time>2015-03-08T14:56:43Z</time>
      </trkpt>
      <trkpt lat="44.42007" lon="5.16001">
        <ele>569.718506</ele>
        <time>2015-03-08T14:56:52Z</time>
      </trkpt>
      <trkpt lat="44.42007" lon="5.15998">
        <ele>569.237793</ele>
        <time>2015-03-08T14:56:54Z</time>
      </trkpt>
      <trkpt lat="44.42005" lon="5.15995">
        <ele>569.237793</ele>
        <time>2015-03-08T14:56:56Z</time>
      </trkpt>
      <trkpt lat="44.42004" lon="5.15988">
        <ele>569.237793</ele>
        <time>2015-03-08T14:57:00Z</time>
      </trkpt>
      <trkpt lat="44.42005" lon="5.15978">
        <ele>570.679688</ele>
        <time>2015-03-08T14:57:09Z</time>
      </trkpt>
      <trkpt lat="44.42007" lon="5.1597">
        <ele>571.1604</ele>
        <time>2015-03-08T14:57:18Z</time>
      </trkpt>
      <trkpt lat="44.42017" lon="5.15956">
        <ele>572.602539</ele>
        <time>2015-03-08T14:57:32Z</time>
      </trkpt>
      <trkpt lat="44.42019" lon="5.1595">
        <ele>573.083252</ele>
        <time>2015-03-08T14:57:40Z</time>
      </trkpt>
      <trkpt lat="44.42023" lon="5.15943">
        <ele>574.044434</ele>
        <time>2015-03-08T14:57:48Z</time>
      </trkpt>
      <trkpt lat="44.42028" lon="5.15938">
        <ele>575.005859</ele>
        <time>2015-03-08T14:57:55Z</time>
      </trkpt>
      <trkpt lat="44.42033" lon="5.15934">
        <ele>576.447754</ele>
        <time>2015-03-08T14:58:02Z</time>
      </trkpt>
      <trkpt lat="44.42039" lon="5.15932">
        <ele>577.889648</ele>
        <time>2015-03-08T14:58:10Z</time>
      </trkpt>
      <trkpt lat="44.42052" lon="5.15927">
        <ele>579.812256</ele>
        <time>2015-03-08T14:58:27Z</time>
      </trkpt>
      <trkpt lat="44.42056" lon="5.15915">
        <ele>581.734863</ele>
        <time>2015-03-08T14:58:38Z</time>
      </trkpt>
      <trkpt lat="44.42055" lon="5.15905">
        <ele>582.696289</ele>
        <time>2015-03-08T14:58:48Z</time>
      </trkpt>
      <trkpt lat="44.42049" lon="5.15895">
        <ele>584.618896</ele>
        <time>2015-03-08T14:58:59Z</time>
      </trkpt>
      <trkpt lat="44.42039" lon="5.15888">
        <ele>586.541504</ele>
        <time>2015-03-08T14:59:11Z</time>
      </trkpt>
      <trkpt lat="44.42037" lon="5.1588">
        <ele>587.983398</ele>
        <time>2015-03-08T14:59:20Z</time>
      </trkpt>
      <trkpt lat="44.42038" lon="5.15867">
        <ele>588.945068</ele>
        <time>2015-03-08T14:59:29Z</time>
      </trkpt>
      <trkpt lat="44.4204" lon="5.15852">
        <ele>590.386963</ele>
        <time>2015-03-08T14:59:39Z</time>
      </trkpt>
      <trkpt lat="44.42047" lon="5.15839">
        <ele>592.790283</ele>
        <time>2015-03-08T14:59:51Z</time>
      </trkpt>
      <trkpt lat="44.42054" lon="5.15839">
        <ele>593.751465</ele>
        <time>2015-03-08T14:59:58Z</time>
      </trkpt>
      <trkpt lat="44.42063" lon="5.15844">
        <ele>594.712646</ele>
        <time>2015-03-08T15:00:08Z</time>
      </trkpt>
      <trkpt lat="44.4207" lon="5.1585">
        <ele>596.154785</ele>
        <time>2015-03-08T15:00:18Z</time>
      </trkpt>
      <trkpt lat="44.42075" lon="5.15852">
        <ele>597.115967</ele>
        <time>2015-03-08T15:00:25Z</time>
      </trkpt>
      <trkpt lat="44.42085" lon="5.15862">
        <ele>598.557861</ele>
        <time>2015-03-08T15:00:38Z</time>
      </trkpt>
      <trkpt lat="44.42093" lon="5.15867">
        <ele>599.038574</ele>
        <time>2015-03-08T15:00:47Z</time>
      </trkpt>
      <trkpt lat="44.42097" lon="5.15871">
        <ele>600</ele>
        <time>2015-03-08T15:00:52Z</time>
      </trkpt>
      <trkpt lat="44.42104" lon="5.15882">
        <ele>600.961182</ele>
        <time>2015-03-08T15:01:01Z</time>
      </trkpt>
      <trkpt lat="44.42106" lon="5.15886">
        <ele>601.441895</ele>
        <time>2015-03-08T15:01:05Z</time>
      </trkpt>
      <trkpt lat="44.42116" lon="5.15893">
        <ele>602.883789</ele>
        <time>2015-03-08T15:01:17Z</time>
      </trkpt>
      <trkpt lat="44.42123" lon="5.15899">
        <ele>603.845215</ele>
        <time>2015-03-08T15:01:26Z</time>
      </trkpt>
      <trkpt lat="44.42125" lon="5.159">
        <ele>603.845215</ele>
        <time>2015-03-08T15:01:28Z</time>
      </trkpt>
      <trkpt lat="44.42135" lon="5.15906">
        <ele>605.287354</ele>
        <time>2015-03-08T15:01:39Z</time>
      </trkpt>
      <trkpt lat="44.42144" lon="5.15913">
        <ele>606.248535</ele>
        <time>2015-03-08T15:01:50Z</time>
      </trkpt>
      <trkpt lat="44.42155" lon="5.15921">
        <ele>608.171387</ele>
        <time>2015-03-08T15:02:02Z</time>
      </trkpt>
      <trkpt lat="44.42164" lon="5.15922">
        <ele>609.613281</ele>
        <time>2015-03-08T15:02:12Z</time>
      </trkpt>
      <trkpt lat="44.42174" lon="5.15927">
        <ele>610.574463</ele>
        <time>2015-03-08T15:02:21Z</time>
      </trkpt>
      <trkpt lat="44.42185" lon="5.1594">
        <ele>610.574463</ele>
        <time>2015-03-08T15:02:34Z</time>
      </trkpt>
      <trkpt lat="44.42188" lon="5.15944">
        <ele>610.574463</ele>
        <time>2015-03-08T15:02:38Z</time>
      </trkpt>
      <trkpt lat="44.4219" lon="5.15946">
        <ele>610.574463</ele>
        <time>2015-03-08T15:02:40Z</time>
      </trkpt>
      <trkpt lat="44.42193" lon="5.15957">
        <ele>610.574463</ele>
        <time>2015-03-08T15:02:46Z</time>
      </trkpt>
      <trkpt lat="44.42197" lon="5.15966">
        <ele>611.055176</ele>
        <time>2015-03-08T15:02:52Z</time>
      </trkpt>
      <trkpt lat="44.42202" lon="5.15973">
        <ele>611.535889</ele>
        <time>2015-03-08T15:02:59Z</time>
      </trkpt>
      <trkpt lat="44.42206" lon="5.15974">
        <ele>612.016602</ele>
        <time>2015-03-08T15:03:06Z</time>
      </trkpt>
      <trkpt lat="44.42208" lon="5.15975">
        <ele>612.49707</ele>
        <time>2015-03-08T15:03:35Z</time>
      </trkpt>
      <trkpt lat="44.42209" lon="5.1598">
        <ele>612.016602</ele>
        <time>2015-03-08T15:04:11Z</time>
      </trkpt>
      <trkpt lat="44.4221" lon="5.15978">
        <ele>612.016602</ele>
        <time>2015-03-08T15:04:38Z</time>
      </trkpt>
      <trkpt lat="44.42209" lon="5.15979">
        <ele>611.535889</ele>
        <time>2015-03-08T15:04:53Z</time>
      </trkpt>
      <trkpt lat="44.42206" lon="5.15972">
        <ele>611.055176</ele>
        <time>2015-03-08T15:05:07Z</time>
      </trkpt>
      <trkpt lat="44.422" lon="5.15963">
        <ele>611.055176</ele>
        <time>2015-03-08T15:05:20Z</time>
      </trkpt>
      <trkpt lat="44.42203" lon="5.15966">
        <ele>611.055176</ele>
        <time>2015-03-08T15:05:47Z</time>
      </trkpt>
      <trkpt lat="44.42206" lon="5.15975">
        <ele>612.016602</ele>
        <time>2015-03-08T15:05:57Z</time>
      </trkpt>
      <trkpt lat="44.42206" lon="5.15976">
        <ele>612.016602</ele>
        <time>2015-03-08T15:06:06Z</time>
      </trkpt>
      <trkpt lat="44.42206" lon="5.15978">
        <ele>612.016602</ele>
        <time>2015-03-08T15:06:47Z</time>
      </trkpt>
      <trkpt lat="44.42209" lon="5.1598">
        <ele>612.016602</ele>
        <time>2015-03-08T15:07:06Z</time>
      </trkpt>
      <trkpt lat="44.42217" lon="5.1598">
        <ele>613.458496</ele>
        <time>2015-03-08T15:07:20Z</time>
      </trkpt>
      <trkpt lat="44.42225" lon="5.15975">
        <ele>613.938965</ele>
        <time>2015-03-08T15:07:33Z</time>
      </trkpt>
      <trkpt lat="44.42245" lon="5.15967">
        <ele>617.303711</ele>
        <time>2015-03-08T15:07:56Z</time>
      </trkpt>
      <trkpt lat="44.42254" lon="5.15958">
        <ele>619.707031</ele>
        <time>2015-03-08T15:08:12Z</time>
      </trkpt>
      <trkpt lat="44.42259" lon="5.15952">
        <ele>620.668457</ele>
        <time>2015-03-08T15:08:24Z</time>
      </trkpt>
      <trkpt lat="44.42269" lon="5.15932">
        <ele>623.55249</ele>
        <time>2015-03-08T15:08:44Z</time>
      </trkpt>
      <trkpt lat="44.42276" lon="5.1592">
        <ele>625.474854</ele>
        <time>2015-03-08T15:08:56Z</time>
      </trkpt>
      <trkpt lat="44.42285" lon="5.15909">
        <ele>628.358887</ele>
        <time>2015-03-08T15:09:13Z</time>
      </trkpt>
      <trkpt lat="44.42286" lon="5.15895">
        <ele>629.800781</ele>
        <time>2015-03-08T15:09:26Z</time>
      </trkpt>
      <trkpt lat="44.42284" lon="5.15876">
        <ele>632.204102</ele>
        <time>2015-03-08T15:09:42Z</time>
      </trkpt>
      <trkpt lat="44.42281" lon="5.15868">
        <ele>634.126709</ele>
        <time>2015-03-08T15:09:57Z</time>
      </trkpt>
      <trkpt lat="44.42278" lon="5.15866">
        <ele>634.607422</ele>
        <time>2015-03-08T15:10:10Z</time>
      </trkpt>
      <trkpt lat="44.42273" lon="5.15862">
        <ele>636.049561</ele>
        <time>2015-03-08T15:10:32Z</time>
      </trkpt>
      <trkpt lat="44.42266" lon="5.15847">
        <ele>637.491455</ele>
        <time>2015-03-08T15:10:48Z</time>
      </trkpt>
      <trkpt lat="44.42269" lon="5.15835">
        <ele>638.933594</ele>
        <time>2015-03-08T15:11:00Z</time>
      </trkpt>
      <trkpt lat="44.42269" lon="5.15824">
        <ele>640.855957</ele>
        <time>2015-03-08T15:11:11Z</time>
      </trkpt>
      <trkpt lat="44.42263" lon="5.15819">
        <ele>641.33667</ele>
        <time>2015-03-08T15:11:22Z</time>
      </trkpt>
      <trkpt lat="44.42249" lon="5.15817">
        <ele>642.298096</ele>
        <time>2015-03-08T15:11:35Z</time>
      </trkpt>
      <trkpt lat="44.42246" lon="5.15817">
        <ele>642.778809</ele>
        <time>2015-03-08T15:11:40Z</time>
      </trkpt>
      <trkpt lat="44.42237" lon="5.15816">
        <ele>643.73999</ele>
        <time>2015-03-08T15:11:50Z</time>
      </trkpt>
      <trkpt lat="44.42229" lon="5.15817">
        <ele>643.73999</ele>
        <time>2015-03-08T15:12:01Z</time>
      </trkpt>
      <trkpt lat="44.4222" lon="5.15812">
        <ele>645.181885</ele>
        <time>2015-03-08T15:12:13Z</time>
      </trkpt>
      <trkpt lat="44.42218" lon="5.15799">
        <ele>646.143311</ele>
        <time>2015-03-08T15:12:23Z</time>
      </trkpt>
      <trkpt lat="44.42221" lon="5.15788">
        <ele>647.585205</ele>
        <time>2015-03-08T15:12:34Z</time>
      </trkpt>
      <trkpt lat="44.42228" lon="5.15778">
        <ele>649.507813</ele>
        <time>2015-03-08T15:12:48Z</time>
      </trkpt>
      <trkpt lat="44.42233" lon="5.15775">
        <ele>651.43042</ele>
        <time>2015-03-08T15:12:55Z</time>
      </trkpt>
      <trkpt lat="44.42245" lon="5.15773">
        <ele>652.872559</ele>
        <time>2015-03-08T15:13:09Z</time>
      </trkpt>
      <trkpt lat="44.42255" lon="5.15769">
        <ele>654.314697</ele>
        <time>2015-03-08T15:13:21Z</time>
      </trkpt>
      <trkpt lat="44.42262" lon="5.15764">
        <ele>655.275879</ele>
        <time>2015-03-08T15:13:31Z</time>
      </trkpt>
      <trkpt lat="44.42275" lon="5.15756">
        <ele>657.198486</ele>
        <time>2015-03-08T15:13:45Z</time>
      </trkpt>
      <trkpt lat="44.42286" lon="5.15748">
        <ele>659.121094</ele>
        <time>2015-03-08T15:13:59Z</time>
      </trkpt>
      <trkpt lat="44.42293" lon="5.15748">
        <ele>659.601807</ele>
        <time>2015-03-08T15:14:07Z</time>
      </trkpt>
      <trkpt lat="44.42295" lon="5.15751">
        <ele>661.524414</ele>
        <time>2015-03-08T15:14:18Z</time>
      </trkpt>
      <trkpt lat="44.42303" lon="5.15757">
        <ele>662.966309</ele>
        <time>2015-03-08T15:14:27Z</time>
      </trkpt>
      <trkpt lat="44.42309" lon="5.15756">
        <ele>664.408203</ele>
        <time>2015-03-08T15:14:36Z</time>
      </trkpt>
      <trkpt lat="44.42315" lon="5.15748">
        <ele>666.330811</ele>
        <time>2015-03-08T15:14:49Z</time>
      </trkpt>
      <trkpt lat="44.42317" lon="5.15733">
        <ele>668.253662</ele>
        <time>2015-03-08T15:15:11Z</time>
      </trkpt>
      <trkpt lat="44.42311" lon="5.15724">
        <ele>669.215088</ele>
        <time>2015-03-08T15:15:22Z</time>
      </trkpt>
      <trkpt lat="44.423" lon="5.1572">
        <ele>670.656982</ele>
        <time>2015-03-08T15:15:36Z</time>
      </trkpt>
      <trkpt lat="44.42288" lon="5.15717">
        <ele>672.098877</ele>
        <time>2015-03-08T15:15:51Z</time>
      </trkpt>
      <trkpt lat="44.42284" lon="5.15711">
        <ele>673.060303</ele>
        <time>2015-03-08T15:16:00Z</time>
      </trkpt>
      <trkpt lat="44.42275" lon="5.15697">
        <ele>674.98291</ele>
        <time>2015-03-08T15:16:17Z</time>
      </trkpt>
      <trkpt lat="44.42281" lon="5.1569">
        <ele>675.463379</ele>
        <time>2015-03-08T15:16:24Z</time>
      </trkpt>
      <trkpt lat="44.42283" lon="5.15691">
        <ele>676.424805</ele>
        <time>2015-03-08T15:16:28Z</time>
      </trkpt>
      <trkpt lat="44.42287" lon="5.15695">
        <ele>677.38623</ele>
        <time>2015-03-08T15:16:36Z</time>
      </trkpt>
      <trkpt lat="44.42296" lon="5.15699">
        <ele>677.866699</ele>
        <time>2015-03-08T15:16:49Z</time>
      </trkpt>
      <trkpt lat="44.42302" lon="5.15698">
        <ele>678.828125</ele>
        <time>2015-03-08T15:16:57Z</time>
      </trkpt>
      <trkpt lat="44.42313" lon="5.157">
        <ele>679.789307</ele>
        <time>2015-03-08T15:17:09Z</time>
      </trkpt>
      <trkpt lat="44.42322" lon="5.157">
        <ele>681.231445</ele>
        <time>2015-03-08T15:17:20Z</time>
      </trkpt>
      <trkpt lat="44.42331" lon="5.157">
        <ele>682.192627</ele>
        <time>2015-03-08T15:17:29Z</time>
      </trkpt>
      <trkpt lat="44.42338" lon="5.15699">
        <ele>682.67334</ele>
        <time>2015-03-08T15:17:36Z</time>
      </trkpt>
      <trkpt lat="44.42346" lon="5.15698">
        <ele>683.634521</ele>
        <time>2015-03-08T15:17:45Z</time>
      </trkpt>
      <trkpt lat="44.42354" lon="5.15696">
        <ele>684.596191</ele>
        <time>2015-03-08T15:17:54Z</time>
      </trkpt>
      <trkpt lat="44.42361" lon="5.15698">
        <ele>685.076904</ele>
        <time>2015-03-08T15:18:02Z</time>
      </trkpt>
      <trkpt lat="44.42371" lon="5.15697">
        <ele>686.038086</ele>
        <time>2015-03-08T15:18:10Z</time>
      </trkpt>
      <trkpt lat="44.42376" lon="5.15697">
        <ele>686.999268</ele>
        <time>2015-03-08T15:18:16Z</time>
      </trkpt>
      <trkpt lat="44.42387" lon="5.15698">
        <ele>687.47998</ele>
        <time>2015-03-08T15:18:24Z</time>
      </trkpt>
      <trkpt lat="44.42398" lon="5.157">
        <ele>688.441406</ele>
        <time>2015-03-08T15:18:35Z</time>
      </trkpt>
      <trkpt lat="44.42408" lon="5.15696">
        <ele>688.922119</ele>
        <time>2015-03-08T15:18:45Z</time>
      </trkpt>
      <trkpt lat="44.42417" lon="5.15693">
        <ele>689.402588</ele>
        <time>2015-03-08T15:18:57Z</time>
      </trkpt>
      <trkpt lat="44.42423" lon="5.15679">
        <ele>688.922119</ele>
        <time>2015-03-08T15:21:29Z</time>
      </trkpt>
      <trkpt lat="44.42427" lon="5.15667">
        <ele>689.402588</ele>
        <time>2015-03-08T15:21:40Z</time>
      </trkpt>
      <trkpt lat="44.4243" lon="5.15661">
        <ele>689.402588</ele>
        <time>2015-03-08T15:21:46Z</time>
      </trkpt>
      <trkpt lat="44.42433" lon="5.15654">
        <ele>689.402588</ele>
        <time>2015-03-08T15:21:53Z</time>
      </trkpt>
      <trkpt lat="44.42433" lon="5.15647">
        <ele>689.402588</ele>
        <time>2015-03-08T15:21:59Z</time>
      </trkpt>
      <trkpt lat="44.42433" lon="5.15636">
        <ele>689.883301</ele>
        <time>2015-03-08T15:22:08Z</time>
      </trkpt>
      <trkpt lat="44.42434" lon="5.15624">
        <ele>690.364014</ele>
        <time>2015-03-08T15:22:20Z</time>
      </trkpt>
      <trkpt lat="44.42434" lon="5.15611">
        <ele>691.325195</ele>
        <time>2015-03-08T15:22:31Z</time>
      </trkpt>
      <trkpt lat="44.42434" lon="5.15606">
        <ele>691.325195</ele>
        <time>2015-03-08T15:22:33Z</time>
      </trkpt>
      <trkpt lat="44.42432" lon="5.15589">
        <ele>691.325195</ele>
        <time>2015-03-08T15:22:43Z</time>
      </trkpt>
      <trkpt lat="44.42434" lon="5.1558">
        <ele>691.325195</ele>
        <time>2015-03-08T15:22:52Z</time>
      </trkpt>
      <trkpt lat="44.42437" lon="5.15575">
        <ele>691.325195</ele>
        <time>2015-03-08T15:22:56Z</time>
      </trkpt>
      <trkpt lat="44.4244" lon="5.15565">
        <ele>691.325195</ele>
        <time>2015-03-08T15:23:04Z</time>
      </trkpt>
      <trkpt lat="44.42445" lon="5.15556">
        <ele>691.325195</ele>
        <time>2015-03-08T15:23:11Z</time>
      </trkpt>
      <trkpt lat="44.42451" lon="5.15549">
        <ele>690.844482</ele>
        <time>2015-03-08T15:23:19Z</time>
      </trkpt>
      <trkpt lat="44.4246" lon="5.15552">
        <ele>690.364014</ele>
        <time>2015-03-08T15:23:27Z</time>
      </trkpt>
      <trkpt lat="44.42465" lon="5.15567">
        <ele>690.844482</ele>
        <time>2015-03-08T15:23:37Z</time>
      </trkpt>
      <trkpt lat="44.42469" lon="5.15574">
        <ele>691.325195</ele>
        <time>2015-03-08T15:23:43Z</time>
      </trkpt>
      <trkpt lat="44.42472" lon="5.15575">
        <ele>691.805908</ele>
        <time>2015-03-08T15:23:47Z</time>
      </trkpt>
      <trkpt lat="44.42482" lon="5.15578">
        <ele>692.286621</ele>
        <time>2015-03-08T15:23:57Z</time>
      </trkpt>
      <trkpt lat="44.42493" lon="5.1558">
        <ele>691.805908</ele>
        <time>2015-03-08T15:24:08Z</time>
      </trkpt>
      <trkpt lat="44.42496" lon="5.15581">
        <ele>691.325195</ele>
        <time>2015-03-08T15:24:11Z</time>
      </trkpt>
      <trkpt lat="44.42503" lon="5.15597">
        <ele>689.883301</ele>
        <time>2015-03-08T15:24:24Z</time>
      </trkpt>
      <trkpt lat="44.42513" lon="5.15606">
        <ele>688.922119</ele>
        <time>2015-03-08T15:24:33Z</time>
      </trkpt>
      <trkpt lat="44.42519" lon="5.15613">
        <ele>688.441406</ele>
        <time>2015-03-08T15:24:41Z</time>
      </trkpt>
      <trkpt lat="44.42524" lon="5.15621">
        <ele>688.441406</ele>
        <time>2015-03-08T15:24:50Z</time>
      </trkpt>
      <trkpt lat="44.42525" lon="5.15624">
        <ele>687.960693</ele>
        <time>2015-03-08T15:24:52Z</time>
      </trkpt>
      <trkpt lat="44.42526" lon="5.15631">
        <ele>687.960693</ele>
        <time>2015-03-08T15:24:56Z</time>
      </trkpt>
      <trkpt lat="44.4253" lon="5.15638">
        <ele>687.960693</ele>
        <time>2015-03-08T15:25:02Z</time>
      </trkpt>
      <trkpt lat="44.42538" lon="5.1564">
        <ele>687.47998</ele>
        <time>2015-03-08T15:25:10Z</time>
      </trkpt>
      <trkpt lat="44.42544" lon="5.15633">
        <ele>686.518799</ele>
        <time>2015-03-08T15:25:18Z</time>
      </trkpt>
      <trkpt lat="44.42558" lon="5.15632">
        <ele>685.557373</ele>
        <time>2015-03-08T15:25:29Z</time>
      </trkpt>
      <trkpt lat="44.42566" lon="5.15636">
        <ele>685.076904</ele>
        <time>2015-03-08T15:25:36Z</time>
      </trkpt>
      <trkpt lat="44.42569" lon="5.1564">
        <ele>684.596191</ele>
        <time>2015-03-08T15:25:39Z</time>
      </trkpt>
      <trkpt lat="44.42576" lon="5.15646">
        <ele>684.596191</ele>
        <time>2015-03-08T15:25:46Z</time>
      </trkpt>
      <trkpt lat="44.42584" lon="5.15652">
        <ele>684.596191</ele>
        <time>2015-03-08T15:25:53Z</time>
      </trkpt>
      <trkpt lat="44.42592" lon="5.15659">
        <ele>684.596191</ele>
        <time>2015-03-08T15:26:00Z</time>
      </trkpt>
      <trkpt lat="44.42594" lon="5.15659">
        <ele>685.076904</ele>
        <time>2015-03-08T15:26:02Z</time>
      </trkpt>
      <trkpt lat="44.42596" lon="5.15661">
        <ele>685.557373</ele>
        <time>2015-03-08T15:26:04Z</time>
      </trkpt>
      <trkpt lat="44.42601" lon="5.15664">
        <ele>686.038086</ele>
        <time>2015-03-08T15:26:10Z</time>
      </trkpt>
      <trkpt lat="44.42607" lon="5.15669">
        <ele>685.076904</ele>
        <time>2015-03-08T15:26:16Z</time>
      </trkpt>
      <trkpt lat="44.42614" lon="5.15678">
        <ele>685.076904</ele>
        <time>2015-03-08T15:26:25Z</time>
      </trkpt>
      <trkpt lat="44.4262" lon="5.15684">
        <ele>685.557373</ele>
        <time>2015-03-08T15:26:33Z</time>
      </trkpt>
      <trkpt lat="44.42624" lon="5.15688">
        <ele>686.038086</ele>
        <time>2015-03-08T15:26:38Z</time>
      </trkpt>
      <trkpt lat="44.42629" lon="5.15689">
        <ele>686.038086</ele>
        <time>2015-03-08T15:26:42Z</time>
      </trkpt>
      <trkpt lat="44.42633" lon="5.15691">
        <ele>686.518799</ele>
        <time>2015-03-08T15:26:45Z</time>
      </trkpt>
      <trkpt lat="44.4264" lon="5.157">
        <ele>686.999268</ele>
        <time>2015-03-08T15:26:53Z</time>
      </trkpt>
      <trkpt lat="44.42644" lon="5.1571">
        <ele>687.47998</ele>
        <time>2015-03-08T15:27:01Z</time>
      </trkpt>
      <trkpt lat="44.4265" lon="5.15718">
        <ele>687.960693</ele>
        <time>2015-03-08T15:27:10Z</time>
      </trkpt>
      <trkpt lat="44.42659" lon="5.15722">
        <ele>688.922119</ele>
        <time>2015-03-08T15:27:19Z</time>
      </trkpt>
      <trkpt lat="44.42668" lon="5.15724">
        <ele>689.883301</ele>
        <time>2015-03-08T15:27:29Z</time>
      </trkpt>
      <trkpt lat="44.42675" lon="5.15729">
        <ele>690.364014</ele>
        <time>2015-03-08T15:27:36Z</time>
      </trkpt>
      <trkpt lat="44.42679" lon="5.1573">
        <ele>690.364014</ele>
        <time>2015-03-08T15:27:40Z</time>
      </trkpt>
      <trkpt lat="44.42682" lon="5.15729">
        <ele>690.364014</ele>
        <time>2015-03-08T15:27:42Z</time>
      </trkpt>
      <trkpt lat="44.42687" lon="5.15728">
        <ele>690.844482</ele>
        <time>2015-03-08T15:27:49Z</time>
      </trkpt>
      <trkpt lat="44.42698" lon="5.15734">
        <ele>691.325195</ele>
        <time>2015-03-08T15:27:59Z</time>
      </trkpt>
      <trkpt lat="44.42705" lon="5.1574">
        <ele>690.364014</ele>
        <time>2015-03-08T15:28:10Z</time>
      </trkpt>
      <trkpt lat="44.42708" lon="5.15749">
        <ele>690.844482</ele>
        <time>2015-03-08T15:28:19Z</time>
      </trkpt>
      <trkpt lat="44.42713" lon="5.15753">
        <ele>690.844482</ele>
        <time>2015-03-08T15:28:24Z</time>
      </trkpt>
      <trkpt lat="44.42722" lon="5.15762">
        <ele>690.844482</ele>
        <time>2015-03-08T15:28:33Z</time>
      </trkpt>
      <trkpt lat="44.42734" lon="5.15767">
        <ele>690.364014</ele>
        <time>2015-03-08T15:28:42Z</time>
      </trkpt>
      <trkpt lat="44.42744" lon="5.15773">
        <ele>690.844482</ele>
        <time>2015-03-08T15:28:50Z</time>
      </trkpt>
      <trkpt lat="44.4275" lon="5.15778">
        <ele>691.325195</ele>
        <time>2015-03-08T15:28:57Z</time>
      </trkpt>
      <trkpt lat="44.42759" lon="5.15785">
        <ele>690.364014</ele>
        <time>2015-03-08T15:29:07Z</time>
      </trkpt>
      <trkpt lat="44.42766" lon="5.15795">
        <ele>690.844482</ele>
        <time>2015-03-08T15:29:16Z</time>
      </trkpt>
      <trkpt lat="44.4277" lon="5.15801">
        <ele>690.844482</ele>
        <time>2015-03-08T15:29:22Z</time>
      </trkpt>
      <trkpt lat="44.42774" lon="5.15806">
        <ele>690.844482</ele>
        <time>2015-03-08T15:29:27Z</time>
      </trkpt>
      <trkpt lat="44.42781" lon="5.15811">
        <ele>690.844482</ele>
        <time>2015-03-08T15:29:36Z</time>
      </trkpt>
      <trkpt lat="44.42783" lon="5.15811">
        <ele>690.844482</ele>
        <time>2015-03-08T15:29:38Z</time>
      </trkpt>
      <trkpt lat="44.42787" lon="5.15814">
        <ele>690.364014</ele>
        <time>2015-03-08T15:29:42Z</time>
      </trkpt>
      <trkpt lat="44.42791" lon="5.1582">
        <ele>690.364014</ele>
        <time>2015-03-08T15:29:47Z</time>
      </trkpt>
      <trkpt lat="44.42794" lon="5.15821">
        <ele>690.364014</ele>
        <time>2015-03-08T15:29:49Z</time>
      </trkpt>
      <trkpt lat="44.428" lon="5.1583">
        <ele>690.364014</ele>
        <time>2015-03-08T15:29:56Z</time>
      </trkpt>
      <trkpt lat="44.42801" lon="5.15833">
        <ele>690.844482</ele>
        <time>2015-03-08T15:29:58Z</time>
      </trkpt>
      <trkpt lat="44.42806" lon="5.15847">
        <ele>690.364014</ele>
        <time>2015-03-08T15:30:07Z</time>
      </trkpt>
      <trkpt lat="44.42812" lon="5.1586">
        <ele>690.844482</ele>
        <time>2015-03-08T15:30:17Z</time>
      </trkpt>
      <trkpt lat="44.4282" lon="5.15874">
        <ele>690.844482</ele>
        <time>2015-03-08T15:30:28Z</time>
      </trkpt>
      <trkpt lat="44.4282" lon="5.15875">
        <ele>690.844482</ele>
        <time>2015-03-08T15:30:29Z</time>
      </trkpt>
      <trkpt lat="44.42827" lon="5.15886">
        <ele>690.364014</ele>
        <time>2015-03-08T15:30:38Z</time>
      </trkpt>
      <trkpt lat="44.42834" lon="5.1589">
        <ele>690.364014</ele>
        <time>2015-03-08T15:30:45Z</time>
      </trkpt>
      <trkpt lat="44.4284" lon="5.15895">
        <ele>690.844482</ele>
        <time>2015-03-08T15:30:52Z</time>
      </trkpt>
      <trkpt lat="44.42844" lon="5.15902">
        <ele>690.844482</ele>
        <time>2015-03-08T15:31:02Z</time>
      </trkpt>
      <trkpt lat="44.42844" lon="5.15907">
        <ele>690.844482</ele>
        <time>2015-03-08T15:31:09Z</time>
      </trkpt>
      <trkpt lat="44.42846" lon="5.15912">
        <ele>691.325195</ele>
        <time>2015-03-08T15:31:16Z</time>
      </trkpt>
      <trkpt lat="44.42848" lon="5.1591">
        <ele>691.325195</ele>
        <time>2015-03-08T15:31:24Z</time>
      </trkpt>
      <trkpt lat="44.42847" lon="5.15914">
        <ele>690.844482</ele>
        <time>2015-03-08T15:31:44Z</time>
      </trkpt>
      <trkpt lat="44.42851" lon="5.15912">
        <ele>690.844482</ele>
        <time>2015-03-08T15:37:07Z</time>
      </trkpt>
      <trkpt lat="44.42851" lon="5.15911">
        <ele>690.364014</ele>
        <time>2015-03-08T15:37:08Z</time>
      </trkpt>
      <trkpt lat="44.4285" lon="5.15904">
        <ele>689.883301</ele>
        <time>2015-03-08T15:37:17Z</time>
      </trkpt>
      <trkpt lat="44.42852" lon="5.15901">
        <ele>689.402588</ele>
        <time>2015-03-08T15:37:27Z</time>
      </trkpt>
      <trkpt lat="44.42852" lon="5.15902">
        <ele>689.883301</ele>
        <time>2015-03-08T15:38:01Z</time>
      </trkpt>
      <trkpt lat="44.42864" lon="5.15898">
        <ele>689.883301</ele>
        <time>2015-03-08T15:38:26Z</time>
      </trkpt>
      <trkpt lat="44.42875" lon="5.15898">
        <ele>688.441406</ele>
        <time>2015-03-08T15:38:35Z</time>
      </trkpt>
      <trkpt lat="44.42886" lon="5.15893">
        <ele>688.441406</ele>
        <time>2015-03-08T15:38:43Z</time>
      </trkpt>
      <trkpt lat="44.42894" lon="5.15887">
        <ele>687.960693</ele>
        <time>2015-03-08T15:38:52Z</time>
      </trkpt>
      <trkpt lat="44.429" lon="5.15879">
        <ele>687.47998</ele>
        <time>2015-03-08T15:39:01Z</time>
      </trkpt>
      <trkpt lat="44.42906" lon="5.15875">
        <ele>686.518799</ele>
        <time>2015-03-08T15:39:07Z</time>
      </trkpt>
      <trkpt lat="44.42914" lon="5.15874">
        <ele>685.557373</ele>
        <time>2015-03-08T15:39:16Z</time>
      </trkpt>
      <trkpt lat="44.42923" lon="5.15874">
        <ele>684.596191</ele>
        <time>2015-03-08T15:39:24Z</time>
      </trkpt>
      <trkpt lat="44.4293" lon="5.15873">
        <ele>684.115479</ele>
        <time>2015-03-08T15:39:30Z</time>
      </trkpt>
      <trkpt lat="44.42938" lon="5.1587">
        <ele>683.153809</ele>
        <time>2015-03-08T15:39:40Z</time>
      </trkpt>
      <trkpt lat="44.42948" lon="5.15873">
        <ele>681.711914</ele>
        <time>2015-03-08T15:39:49Z</time>
      </trkpt>
      <trkpt lat="44.42956" lon="5.15876">
        <ele>681.231445</ele>
        <time>2015-03-08T15:39:57Z</time>
      </trkpt>
      <trkpt lat="44.4296" lon="5.15876">
        <ele>680.750732</ele>
        <time>2015-03-08T15:40:02Z</time>
      </trkpt>
      <trkpt lat="44.42962" lon="5.15875">
        <ele>680.750732</ele>
        <time>2015-03-08T15:40:04Z</time>
      </trkpt>
      <trkpt lat="44.42969" lon="5.15872">
        <ele>680.27002</ele>
        <time>2015-03-08T15:40:11Z</time>
      </trkpt>
      <trkpt lat="44.42979" lon="5.15869">
        <ele>678.828125</ele>
        <time>2015-03-08T15:40:22Z</time>
      </trkpt>
      <trkpt lat="44.42987" lon="5.15862">
        <ele>678.347412</ele>
        <time>2015-03-08T15:40:31Z</time>
      </trkpt>
      <trkpt lat="44.42987" lon="5.15861">
        <ele>678.347412</ele>
        <time>2015-03-08T15:40:32Z</time>
      </trkpt>
      <trkpt lat="44.42991" lon="5.15849">
        <ele>677.38623</ele>
        <time>2015-03-08T15:40:44Z</time>
      </trkpt>
      <trkpt lat="44.42992" lon="5.15841">
        <ele>675.944092</ele>
        <time>2015-03-08T15:40:51Z</time>
      </trkpt>
      <trkpt lat="44.42992" lon="5.15839">
        <ele>675.944092</ele>
        <time>2015-03-08T15:40:54Z</time>
      </trkpt>
      <trkpt lat="44.42987" lon="5.15828">
        <ele>674.502197</ele>
        <time>2015-03-08T15:41:03Z</time>
      </trkpt>
      <trkpt lat="44.42987" lon="5.15824">
        <ele>674.021484</ele>
        <time>2015-03-08T15:41:09Z</time>
      </trkpt>
      <trkpt lat="44.42999" lon="5.15826">
        <ele>673.541016</ele>
        <time>2015-03-08T15:41:18Z</time>
      </trkpt>
      <trkpt lat="44.43001" lon="5.15828">
        <ele>673.541016</ele>
        <time>2015-03-08T15:41:21Z</time>
      </trkpt>
      <trkpt lat="44.43011" lon="5.15833">
        <ele>673.060303</ele>
        <time>2015-03-08T15:41:29Z</time>
      </trkpt>
      <trkpt lat="44.43019" lon="5.15835">
        <ele>673.541016</ele>
        <time>2015-03-08T15:41:37Z</time>
      </trkpt>
      <trkpt lat="44.43027" lon="5.15834">
        <ele>672.57959</ele>
        <time>2015-03-08T15:41:47Z</time>
      </trkpt>
      <trkpt lat="44.43038" lon="5.15837">
        <ele>671.137695</ele>
        <time>2015-03-08T15:41:57Z</time>
      </trkpt>
      <trkpt lat="44.4305" lon="5.15836">
        <ele>671.137695</ele>
        <time>2015-03-08T15:42:06Z</time>
      </trkpt>
      <trkpt lat="44.43061" lon="5.15835">
        <ele>672.098877</ele>
        <time>2015-03-08T15:42:17Z</time>
      </trkpt>
      <trkpt lat="44.43073" lon="5.15833">
        <ele>673.060303</ele>
        <time>2015-03-08T15:42:25Z</time>
      </trkpt>
      <trkpt lat="44.43078" lon="5.1583">
        <ele>673.060303</ele>
        <time>2015-03-08T15:42:31Z</time>
      </trkpt>
      <trkpt lat="44.43086" lon="5.15827">
        <ele>673.060303</ele>
        <time>2015-03-08T15:42:38Z</time>
      </trkpt>
      <trkpt lat="44.43093" lon="5.15823">
        <ele>673.541016</ele>
        <time>2015-03-08T15:42:45Z</time>
      </trkpt>
      <trkpt lat="44.43099" lon="5.15823">
        <ele>673.541016</ele>
        <time>2015-03-08T15:42:50Z</time>
      </trkpt>
      <trkpt lat="44.43105" lon="5.15823">
        <ele>672.57959</ele>
        <time>2015-03-08T15:42:58Z</time>
      </trkpt>
      <trkpt lat="44.4311" lon="5.1582">
        <ele>672.57959</ele>
        <time>2015-03-08T15:43:05Z</time>
      </trkpt>
      <trkpt lat="44.43123" lon="5.15824">
        <ele>673.060303</ele>
        <time>2015-03-08T15:43:15Z</time>
      </trkpt>
      <trkpt lat="44.43134" lon="5.15824">
        <ele>673.541016</ele>
        <time>2015-03-08T15:43:23Z</time>
      </trkpt>
      <trkpt lat="44.43141" lon="5.1582">
        <ele>672.57959</ele>
        <time>2015-03-08T15:43:30Z</time>
      </trkpt>
      <trkpt lat="44.43148" lon="5.15815">
        <ele>672.098877</ele>
        <time>2015-03-08T15:43:40Z</time>
      </trkpt>
      <trkpt lat="44.43155" lon="5.15815">
        <ele>672.57959</ele>
        <time>2015-03-08T15:43:47Z</time>
      </trkpt>
      <trkpt lat="44.43162" lon="5.15813">
        <ele>672.57959</ele>
        <time>2015-03-08T15:43:52Z</time>
      </trkpt>
      <trkpt lat="44.43173" lon="5.15805">
        <ele>674.502197</ele>
        <time>2015-03-08T15:44:03Z</time>
      </trkpt>
      <trkpt lat="44.43178" lon="5.15802">
        <ele>675.463379</ele>
        <time>2015-03-08T15:44:10Z</time>
      </trkpt>
      <trkpt lat="44.43186" lon="5.15801">
        <ele>675.944092</ele>
        <time>2015-03-08T15:44:15Z</time>
      </trkpt>
      <trkpt lat="44.43195" lon="5.15794">
        <ele>676.424805</ele>
        <time>2015-03-08T15:44:25Z</time>
      </trkpt>
      <trkpt lat="44.43201" lon="5.15788">
        <ele>675.463379</ele>
        <time>2015-03-08T15:44:34Z</time>
      </trkpt>
      <trkpt lat="44.43215" lon="5.15787">
        <ele>674.98291</ele>
        <time>2015-03-08T15:44:47Z</time>
      </trkpt>
      <trkpt lat="44.43223" lon="5.15787">
        <ele>674.502197</ele>
        <time>2015-03-08T15:44:54Z</time>
      </trkpt>
      <trkpt lat="44.4323" lon="5.15786">
        <ele>674.502197</ele>
        <time>2015-03-08T15:45:01Z</time>
      </trkpt>
      <trkpt lat="44.43237" lon="5.15785">
        <ele>674.98291</ele>
        <time>2015-03-08T15:45:08Z</time>
      </trkpt>
      <trkpt lat="44.43248" lon="5.1578">
        <ele>674.021484</ele>
        <time>2015-03-08T15:45:19Z</time>
      </trkpt>
      <trkpt lat="44.43257" lon="5.15781">
        <ele>673.541016</ele>
        <time>2015-03-08T15:45:26Z</time>
      </trkpt>
      <trkpt lat="44.43265" lon="5.15775">
        <ele>672.57959</ele>
        <time>2015-03-08T15:45:35Z</time>
      </trkpt>
      <trkpt lat="44.43265" lon="5.15774">
        <ele>672.57959</ele>
        <time>2015-03-08T15:45:36Z</time>
      </trkpt>
      <trkpt lat="44.43266" lon="5.15765">
        <ele>672.098877</ele>
        <time>2015-03-08T15:45:43Z</time>
      </trkpt>
      <trkpt lat="44.43272" lon="5.15758">
        <ele>671.618164</ele>
        <time>2015-03-08T15:45:51Z</time>
      </trkpt>
      <trkpt lat="44.4328" lon="5.15758">
        <ele>672.098877</ele>
        <time>2015-03-08T15:45:59Z</time>
      </trkpt>
      <trkpt lat="44.43283" lon="5.1575">
        <ele>671.618164</ele>
        <time>2015-03-08T15:46:07Z</time>
      </trkpt>
      <trkpt lat="44.43288" lon="5.15744">
        <ele>671.137695</ele>
        <time>2015-03-08T15:46:16Z</time>
      </trkpt>
      <trkpt lat="44.43298" lon="5.15739">
        <ele>670.656982</ele>
        <time>2015-03-08T15:46:26Z</time>
      </trkpt>
      <trkpt lat="44.4331" lon="5.15745">
        <ele>670.656982</ele>
        <time>2015-03-08T15:46:35Z</time>
      </trkpt>
      <trkpt lat="44.43311" lon="5.15748">
        <ele>670.656982</ele>
        <time>2015-03-08T15:46:38Z</time>
      </trkpt>
      <trkpt lat="44.43317" lon="5.15756">
        <ele>671.137695</ele>
        <time>2015-03-08T15:46:46Z</time>
      </trkpt>
      <trkpt lat="44.4332" lon="5.15756">
        <ele>671.618164</ele>
        <time>2015-03-08T15:46:48Z</time>
      </trkpt>
      <trkpt lat="44.43329" lon="5.15758">
        <ele>673.060303</ele>
        <time>2015-03-08T15:46:58Z</time>
      </trkpt>
      <trkpt lat="44.43333" lon="5.15758">
        <ele>673.541016</ele>
        <time>2015-03-08T15:47:04Z</time>
      </trkpt>
      <trkpt lat="44.43337" lon="5.15759">
        <ele>674.502197</ele>
        <time>2015-03-08T15:47:12Z</time>
      </trkpt>
      <trkpt lat="44.43341" lon="5.1576">
        <ele>674.98291</ele>
        <time>2015-03-08T15:47:19Z</time>
      </trkpt>
      <trkpt lat="44.43342" lon="5.1576">
        <ele>674.98291</ele>
        <time>2015-03-08T15:47:27Z</time>
      </trkpt>
      <trkpt lat="44.43342" lon="5.15759">
        <ele>675.463379</ele>
        <time>2015-03-08T15:48:05Z</time>
      </trkpt>
      <trkpt lat="44.43343" lon="5.15761">
        <ele>675.944092</ele>
        <time>2015-03-08T15:48:49Z</time>
      </trkpt>
      <trkpt lat="44.43349" lon="5.15758">
        <ele>677.866699</ele>
        <time>2015-03-08T15:48:58Z</time>
      </trkpt>
      <trkpt lat="44.4336" lon="5.15756">
        <ele>681.231445</ele>
        <time>2015-03-08T15:49:14Z</time>
      </trkpt>
      <trkpt lat="44.43369" lon="5.15749">
        <ele>682.67334</ele>
        <time>2015-03-08T15:49:24Z</time>
      </trkpt>
      <trkpt lat="44.43372" lon="5.1574">
        <ele>684.596191</ele>
        <time>2015-03-08T15:49:33Z</time>
      </trkpt>
      <trkpt lat="44.4338" lon="5.15726">
        <ele>686.038086</ele>
        <time>2015-03-08T15:49:44Z</time>
      </trkpt>
      <trkpt lat="44.43381" lon="5.1572">
        <ele>686.038086</ele>
        <time>2015-03-08T15:49:48Z</time>
      </trkpt>
      <trkpt lat="44.43382" lon="5.15713">
        <ele>685.557373</ele>
        <time>2015-03-08T15:49:53Z</time>
      </trkpt>
      <trkpt lat="44.43382" lon="5.15705">
        <ele>685.557373</ele>
        <time>2015-03-08T15:49:58Z</time>
      </trkpt>
      <trkpt lat="44.43389" lon="5.15705">
        <ele>686.038086</ele>
        <time>2015-03-08T15:50:06Z</time>
      </trkpt>
      <trkpt lat="44.43402" lon="5.15708">
        <ele>685.557373</ele>
        <time>2015-03-08T15:50:18Z</time>
      </trkpt>
      <trkpt lat="44.43408" lon="5.15707">
        <ele>686.038086</ele>
        <time>2015-03-08T15:50:26Z</time>
      </trkpt>
      <trkpt lat="44.43415" lon="5.15704">
        <ele>684.596191</ele>
        <time>2015-03-08T15:50:36Z</time>
      </trkpt>
      <trkpt lat="44.43422" lon="5.15703">
        <ele>684.596191</ele>
        <time>2015-03-08T15:50:42Z</time>
      </trkpt>
      <trkpt lat="44.43427" lon="5.15701">
        <ele>683.634521</ele>
        <time>2015-03-08T15:50:49Z</time>
      </trkpt>
      <trkpt lat="44.43438" lon="5.15705">
        <ele>685.076904</ele>
        <time>2015-03-08T15:50:57Z</time>
      </trkpt>
      <trkpt lat="44.4344" lon="5.15705">
        <ele>685.076904</ele>
        <time>2015-03-08T15:50:59Z</time>
      </trkpt>
      <trkpt lat="44.43451" lon="5.15703">
        <ele>685.076904</ele>
        <time>2015-03-08T15:51:07Z</time>
      </trkpt>
      <trkpt lat="44.43453" lon="5.15706">
        <ele>685.076904</ele>
        <time>2015-03-08T15:51:14Z</time>
      </trkpt>
      <trkpt lat="44.43459" lon="5.15707">
        <ele>684.596191</ele>
        <time>2015-03-08T15:51:20Z</time>
      </trkpt>
      <trkpt lat="44.43463" lon="5.15702">
        <ele>684.596191</ele>
        <time>2015-03-08T15:51:26Z</time>
      </trkpt>
      <trkpt lat="44.43467" lon="5.15693">
        <ele>685.076904</ele>
        <time>2015-03-08T15:51:34Z</time>
      </trkpt>
      <trkpt lat="44.43475" lon="5.15689">
        <ele>684.596191</ele>
        <time>2015-03-08T15:51:38Z</time>
      </trkpt>
      <trkpt lat="44.43479" lon="5.15694">
        <ele>685.076904</ele>
        <time>2015-03-08T15:51:43Z</time>
      </trkpt>
      <trkpt lat="44.43485" lon="5.15702">
        <ele>684.596191</ele>
        <time>2015-03-08T15:51:51Z</time>
      </trkpt>
      <trkpt lat="44.43492" lon="5.15706">
        <ele>684.115479</ele>
        <time>2015-03-08T15:51:59Z</time>
      </trkpt>
      <trkpt lat="44.43498" lon="5.15703">
        <ele>684.596191</ele>
        <time>2015-03-08T15:52:07Z</time>
      </trkpt>
      <trkpt lat="44.43503" lon="5.15703">
        <ele>684.115479</ele>
        <time>2015-03-08T15:52:11Z</time>
      </trkpt>
      <trkpt lat="44.43509" lon="5.15703">
        <ele>683.634521</ele>
        <time>2015-03-08T15:52:17Z</time>
      </trkpt>
      <trkpt lat="44.43514" lon="5.15703">
        <ele>683.153809</ele>
        <time>2015-03-08T15:52:22Z</time>
      </trkpt>
      <trkpt lat="44.43525" lon="5.15702">
        <ele>683.634521</ele>
        <time>2015-03-08T15:52:33Z</time>
      </trkpt>
      <trkpt lat="44.43533" lon="5.15703">
        <ele>683.153809</ele>
        <time>2015-03-08T15:52:39Z</time>
      </trkpt>
      <trkpt lat="44.43541" lon="5.15706">
        <ele>683.153809</ele>
        <time>2015-03-08T15:52:47Z</time>
      </trkpt>
      <trkpt lat="44.43546" lon="5.15705">
        <ele>682.192627</ele>
        <time>2015-03-08T15:52:54Z</time>
      </trkpt>
      <trkpt lat="44.43547" lon="5.15706">
        <ele>682.192627</ele>
        <time>2015-03-08T15:52:55Z</time>
      </trkpt>
      <trkpt lat="44.43555" lon="5.15705">
        <ele>682.192627</ele>
        <time>2015-03-08T15:53:02Z</time>
      </trkpt>
      <trkpt lat="44.43561" lon="5.15705">
        <ele>682.192627</ele>
        <time>2015-03-08T15:53:10Z</time>
      </trkpt>
      <trkpt lat="44.43568" lon="5.15706">
        <ele>681.711914</ele>
        <time>2015-03-08T15:53:16Z</time>
      </trkpt>
      <trkpt lat="44.43578" lon="5.15707">
        <ele>681.711914</ele>
        <time>2015-03-08T15:53:23Z</time>
      </trkpt>
      <trkpt lat="44.43586" lon="5.15705">
        <ele>680.750732</ele>
        <time>2015-03-08T15:53:31Z</time>
      </trkpt>
      <trkpt lat="44.43593" lon="5.15704">
        <ele>680.750732</ele>
        <time>2015-03-08T15:53:38Z</time>
      </trkpt>
      <trkpt lat="44.43599" lon="5.15702">
        <ele>680.27002</ele>
        <time>2015-03-08T15:53:44Z</time>
      </trkpt>
      <trkpt lat="44.43606" lon="5.15704">
        <ele>680.27002</ele>
        <time>2015-03-08T15:53:49Z</time>
      </trkpt>
      <trkpt lat="44.43611" lon="5.15705">
        <ele>679.789307</ele>
        <time>2015-03-08T15:53:54Z</time>
      </trkpt>
      <trkpt lat="44.43616" lon="5.15706">
        <ele>679.789307</ele>
        <time>2015-03-08T15:54:01Z</time>
      </trkpt>
      <trkpt lat="44.43624" lon="5.15706">
        <ele>679.308594</ele>
        <time>2015-03-08T15:54:09Z</time>
      </trkpt>
      <trkpt lat="44.43631" lon="5.15707">
        <ele>679.308594</ele>
        <time>2015-03-08T15:54:15Z</time>
      </trkpt>
      <trkpt lat="44.43637" lon="5.15707">
        <ele>678.828125</ele>
        <time>2015-03-08T15:54:21Z</time>
      </trkpt>
      <trkpt lat="44.43642" lon="5.15706">
        <ele>678.347412</ele>
        <time>2015-03-08T15:54:27Z</time>
      </trkpt>
      <trkpt lat="44.43642" lon="5.15705">
        <ele>678.347412</ele>
        <time>2015-03-08T15:54:29Z</time>
      </trkpt>
      <trkpt lat="44.43645" lon="5.15704">
        <ele>678.347412</ele>
        <time>2015-03-08T15:54:31Z</time>
      </trkpt>
      <trkpt lat="44.4365" lon="5.15702">
        <ele>677.866699</ele>
        <time>2015-03-08T15:54:39Z</time>
      </trkpt>
      <trkpt lat="44.43658" lon="5.15703">
        <ele>677.866699</ele>
        <time>2015-03-08T15:54:45Z</time>
      </trkpt>
      <trkpt lat="44.43676" lon="5.15711">
        <ele>677.866699</ele>
        <time>2015-03-08T15:54:57Z</time>
      </trkpt>
      <trkpt lat="44.43681" lon="5.15713">
        <ele>677.866699</ele>
        <time>2015-03-08T15:55:02Z</time>
      </trkpt>
      <trkpt lat="44.43686" lon="5.15712">
        <ele>677.38623</ele>
        <time>2015-03-08T15:55:08Z</time>
      </trkpt>
      <trkpt lat="44.43692" lon="5.15714">
        <ele>676.905518</ele>
        <time>2015-03-08T15:55:15Z</time>
      </trkpt>
      <trkpt lat="44.43696" lon="5.15715">
        <ele>676.905518</ele>
        <time>2015-03-08T15:55:20Z</time>
      </trkpt>
      <trkpt lat="44.43704" lon="5.15718">
        <ele>676.424805</ele>
        <time>2015-03-08T15:55:27Z</time>
      </trkpt>
      <trkpt lat="44.43707" lon="5.15719">
        <ele>676.424805</ele>
        <time>2015-03-08T15:55:29Z</time>
      </trkpt>
      <trkpt lat="44.43714" lon="5.15723">
        <ele>675.944092</ele>
        <time>2015-03-08T15:55:37Z</time>
      </trkpt>
      <trkpt lat="44.43725" lon="5.15726">
        <ele>675.463379</ele>
        <time>2015-03-08T15:55:45Z</time>
      </trkpt>
      <trkpt lat="44.43734" lon="5.1573">
        <ele>674.98291</ele>
        <time>2015-03-08T15:55:54Z</time>
      </trkpt>
      <trkpt lat="44.4374" lon="5.1573">
        <ele>674.502197</ele>
        <time>2015-03-08T15:55:58Z</time>
      </trkpt>
      <trkpt lat="44.43746" lon="5.15729">
        <ele>674.021484</ele>
        <time>2015-03-08T15:56:04Z</time>
      </trkpt>
      <trkpt lat="44.43752" lon="5.1573">
        <ele>673.541016</ele>
        <time>2015-03-08T15:56:11Z</time>
      </trkpt>
      <trkpt lat="44.43756" lon="5.15727">
        <ele>674.021484</ele>
        <time>2015-03-08T15:56:14Z</time>
      </trkpt>
      <trkpt lat="44.43759" lon="5.15711">
        <ele>675.463379</ele>
        <time>2015-03-08T15:56:23Z</time>
      </trkpt>
      <trkpt lat="44.43759" lon="5.15708">
        <ele>675.463379</ele>
        <time>2015-03-08T15:56:26Z</time>
      </trkpt>
      <trkpt lat="44.43759" lon="5.15696">
        <ele>676.424805</ele>
        <time>2015-03-08T15:56:33Z</time>
      </trkpt>
      <trkpt lat="44.43754" lon="5.15681">
        <ele>676.424805</ele>
        <time>2015-03-08T15:56:43Z</time>
      </trkpt>
      <trkpt lat="44.43755" lon="5.15669">
        <ele>676.424805</ele>
        <time>2015-03-08T15:56:55Z</time>
      </trkpt>
      <trkpt lat="44.43754" lon="5.15656">
        <ele>677.38623</ele>
        <time>2015-03-08T15:57:07Z</time>
      </trkpt>
      <trkpt lat="44.43743" lon="5.15646">
        <ele>678.347412</ele>
        <time>2015-03-08T15:57:15Z</time>
      </trkpt>
      <trkpt lat="44.43743" lon="5.15625">
        <ele>678.828125</ele>
        <time>2015-03-08T15:57:24Z</time>
      </trkpt>
      <trkpt lat="44.43754" lon="5.15603">
        <ele>680.750732</ele>
        <time>2015-03-08T15:57:36Z</time>
      </trkpt>
      <trkpt lat="44.43762" lon="5.15595">
        <ele>683.153809</ele>
        <time>2015-03-08T15:57:49Z</time>
      </trkpt>
      <trkpt lat="44.43758" lon="5.15593">
        <ele>684.596191</ele>
        <time>2015-03-08T15:57:57Z</time>
      </trkpt>
      <trkpt lat="44.43753" lon="5.1559">
        <ele>686.518799</ele>
        <time>2015-03-08T15:58:13Z</time>
      </trkpt>
      <trkpt lat="44.43739" lon="5.1558">
        <ele>689.883301</ele>
        <time>2015-03-08T15:58:34Z</time>
      </trkpt>
      <trkpt lat="44.43745" lon="5.15564">
        <ele>692.767334</ele>
        <time>2015-03-08T15:58:54Z</time>
      </trkpt>
      <trkpt lat="44.43732" lon="5.15551">
        <ele>694.689697</ele>
        <time>2015-03-08T15:59:09Z</time>
      </trkpt>
      <trkpt lat="44.43734" lon="5.15547">
        <ele>696.131836</ele>
        <time>2015-03-08T15:59:19Z</time>
      </trkpt>
      <trkpt lat="44.43737" lon="5.1554">
        <ele>697.57373</ele>
        <time>2015-03-08T15:59:29Z</time>
      </trkpt>
      <trkpt lat="44.4374" lon="5.15527">
        <ele>699.015625</ele>
        <time>2015-03-08T15:59:41Z</time>
      </trkpt>
      <trkpt lat="44.43733" lon="5.15518">
        <ele>700.458008</ele>
        <time>2015-03-08T15:59:52Z</time>
      </trkpt>
      <trkpt lat="44.43734" lon="5.15506">
        <ele>702.380371</ele>
        <time>2015-03-08T16:00:05Z</time>
      </trkpt>
      <trkpt lat="44.43737" lon="5.15496">
        <ele>702.380371</ele>
        <time>2015-03-08T16:00:15Z</time>
      </trkpt>
      <trkpt lat="44.43738" lon="5.15484">
        <ele>702.380371</ele>
        <time>2015-03-08T16:00:26Z</time>
      </trkpt>
      <trkpt lat="44.43734" lon="5.15471">
        <ele>702.380371</ele>
        <time>2015-03-08T16:00:36Z</time>
      </trkpt>
      <trkpt lat="44.43735" lon="5.1545">
        <ele>701.899902</ele>
        <time>2015-03-08T16:00:49Z</time>
      </trkpt>
      <trkpt lat="44.43739" lon="5.15431">
        <ele>702.380371</ele>
        <time>2015-03-08T16:01:02Z</time>
      </trkpt>
      <trkpt lat="44.43737" lon="5.15426">
        <ele>702.380371</ele>
        <time>2015-03-08T16:01:11Z</time>
      </trkpt>
      <trkpt lat="44.43741" lon="5.15424">
        <ele>702.380371</ele>
        <time>2015-03-08T16:01:25Z</time>
      </trkpt>
      <trkpt lat="44.43739" lon="5.15417">
        <ele>701.899902</ele>
        <time>2015-03-08T16:01:33Z</time>
      </trkpt>
      <trkpt lat="44.43736" lon="5.15403">
        <ele>700.458008</ele>
        <time>2015-03-08T16:01:44Z</time>
      </trkpt>
      <trkpt lat="44.43733" lon="5.15391">
        <ele>700.458008</ele>
        <time>2015-03-08T16:01:58Z</time>
      </trkpt>
      <trkpt lat="44.43749" lon="5.1539">
        <ele>700.458008</ele>
        <time>2015-03-08T16:02:11Z</time>
      </trkpt>
      <trkpt lat="44.4375" lon="5.15391">
        <ele>700.458008</ele>
        <time>2015-03-08T16:02:12Z</time>
      </trkpt>
      <trkpt lat="44.43751" lon="5.15402">
        <ele>701.419189</ele>
        <time>2015-03-08T16:02:20Z</time>
      </trkpt>
      <trkpt lat="44.43752" lon="5.15403">
        <ele>701.899902</ele>
        <time>2015-03-08T16:02:21Z</time>
      </trkpt>
      <trkpt lat="44.43758" lon="5.15402">
        <ele>702.380371</ele>
        <time>2015-03-08T16:02:28Z</time>
      </trkpt>
      <trkpt lat="44.43764" lon="5.15403">
        <ele>704.303223</ele>
        <time>2015-03-08T16:02:39Z</time>
      </trkpt>
      <trkpt lat="44.43773" lon="5.15404">
        <ele>705.745117</ele>
        <time>2015-03-08T16:02:51Z</time>
      </trkpt>
      <trkpt lat="44.43775" lon="5.15394">
        <ele>707.667725</ele>
        <time>2015-03-08T16:03:01Z</time>
      </trkpt>
      <trkpt lat="44.4378" lon="5.15391">
        <ele>707.667725</ele>
        <time>2015-03-08T16:03:09Z</time>
      </trkpt>
      <trkpt lat="44.43787" lon="5.15396">
        <ele>708.628906</ele>
        <time>2015-03-08T16:03:18Z</time>
      </trkpt>
      <trkpt lat="44.43797" lon="5.15401">
        <ele>709.590332</ele>
        <time>2015-03-08T16:03:28Z</time>
      </trkpt>
      <trkpt lat="44.43804" lon="5.15409">
        <ele>711.032227</ele>
        <time>2015-03-08T16:03:39Z</time>
      </trkpt>
      <trkpt lat="44.43813" lon="5.15405">
        <ele>711.993652</ele>
        <time>2015-03-08T16:03:49Z</time>
      </trkpt>
      <trkpt lat="44.43815" lon="5.15414">
        <ele>712.474121</ele>
        <time>2015-03-08T16:03:59Z</time>
      </trkpt>
      <trkpt lat="44.43818" lon="5.15423">
        <ele>712.474121</ele>
        <time>2015-03-08T16:04:05Z</time>
      </trkpt>
      <trkpt lat="44.43824" lon="5.15432">
        <ele>712.954834</ele>
        <time>2015-03-08T16:04:14Z</time>
      </trkpt>
      <trkpt lat="44.43831" lon="5.1544">
        <ele>713.916016</ele>
        <time>2015-03-08T16:04:24Z</time>
      </trkpt>
      <trkpt lat="44.43836" lon="5.15445">
        <ele>714.877441</ele>
        <time>2015-03-08T16:04:31Z</time>
      </trkpt>
      <trkpt lat="44.43844" lon="5.15452">
        <ele>716.800293</ele>
        <time>2015-03-08T16:04:45Z</time>
      </trkpt>
      <trkpt lat="44.43846" lon="5.15454">
        <ele>716.800293</ele>
        <time>2015-03-08T16:04:48Z</time>
      </trkpt>
      <trkpt lat="44.43853" lon="5.15454">
        <ele>717.761475</ele>
        <time>2015-03-08T16:04:57Z</time>
      </trkpt>
      <trkpt lat="44.43857" lon="5.15455">
        <ele>718.7229</ele>
        <time>2015-03-08T16:05:04Z</time>
      </trkpt>
      <trkpt lat="44.43863" lon="5.15455">
        <ele>720.164795</ele>
        <time>2015-03-08T16:05:18Z</time>
      </trkpt>
      <trkpt lat="44.43873" lon="5.15451">
        <ele>721.126221</ele>
        <time>2015-03-08T16:05:29Z</time>
      </trkpt>
      <trkpt lat="44.43886" lon="5.1545">
        <ele>723.048828</ele>
        <time>2015-03-08T16:05:41Z</time>
      </trkpt>
      <trkpt lat="44.43886" lon="5.15452">
        <ele>723.048828</ele>
        <time>2015-03-08T16:05:43Z</time>
      </trkpt>
      <trkpt lat="44.43894" lon="5.15457">
        <ele>723.529541</ele>
        <time>2015-03-08T16:05:51Z</time>
      </trkpt>
      <trkpt lat="44.439" lon="5.15459">
        <ele>724.490723</ele>
        <time>2015-03-08T16:06:01Z</time>
      </trkpt>
      <trkpt lat="44.43904" lon="5.15462">
        <ele>724.971436</ele>
        <time>2015-03-08T16:06:07Z</time>
      </trkpt>
      <trkpt lat="44.43909" lon="5.15468">
        <ele>726.41333</ele>
        <time>2015-03-08T16:06:17Z</time>
      </trkpt>
      <trkpt lat="44.43917" lon="5.1547">
        <ele>727.374756</ele>
        <time>2015-03-08T16:06:27Z</time>
      </trkpt>
      <trkpt lat="44.43923" lon="5.15477">
        <ele>728.81665</ele>
        <time>2015-03-08T16:06:37Z</time>
      </trkpt>
      <trkpt lat="44.4393" lon="5.15481">
        <ele>730.258545</ele>
        <time>2015-03-08T16:06:48Z</time>
      </trkpt>
      <trkpt lat="44.43935" lon="5.15483">
        <ele>731.219971</ele>
        <time>2015-03-08T16:06:58Z</time>
      </trkpt>
      <trkpt lat="44.4394" lon="5.15485">
        <ele>732.662109</ele>
        <time>2015-03-08T16:07:09Z</time>
      </trkpt>
      <trkpt lat="44.43944" lon="5.15487">
        <ele>733.142578</ele>
        <time>2015-03-08T16:07:17Z</time>
      </trkpt>
      <trkpt lat="44.43946" lon="5.15491">
        <ele>733.142578</ele>
        <time>2015-03-08T16:07:30Z</time>
      </trkpt>
      <trkpt lat="44.43945" lon="5.15499">
        <ele>733.623291</ele>
        <time>2015-03-08T16:07:38Z</time>
      </trkpt>
      <trkpt lat="44.43945" lon="5.15502">
        <ele>733.623291</ele>
        <time>2015-03-08T16:07:40Z</time>
      </trkpt>
      <trkpt lat="44.43947" lon="5.15522">
        <ele>736.026611</ele>
        <time>2015-03-08T16:07:55Z</time>
      </trkpt>
      <trkpt lat="44.43948" lon="5.15536">
        <ele>736.507324</ele>
        <time>2015-03-08T16:08:06Z</time>
      </trkpt>
      <trkpt lat="44.43954" lon="5.15543">
        <ele>737.949219</ele>
        <time>2015-03-08T16:08:17Z</time>
      </trkpt>
      <trkpt lat="44.43959" lon="5.15541">
        <ele>738.429932</ele>
        <time>2015-03-08T16:08:23Z</time>
      </trkpt>
      <trkpt lat="44.43966" lon="5.15542">
        <ele>739.871826</ele>
        <time>2015-03-08T16:08:34Z</time>
      </trkpt>
      <trkpt lat="44.4397" lon="5.15545">
        <ele>740.352539</ele>
        <time>2015-03-08T16:08:42Z</time>
      </trkpt>
      <trkpt lat="44.43972" lon="5.15558">
        <ele>740.352539</ele>
        <time>2015-03-08T16:08:51Z</time>
      </trkpt>
      <trkpt lat="44.43975" lon="5.15573">
        <ele>739.871826</ele>
        <time>2015-03-08T16:09:02Z</time>
      </trkpt>
      <trkpt lat="44.43976" lon="5.15583">
        <ele>740.833008</ele>
        <time>2015-03-08T16:09:13Z</time>
      </trkpt>
      <trkpt lat="44.43982" lon="5.15591">
        <ele>740.833008</ele>
        <time>2015-03-08T16:09:22Z</time>
      </trkpt>
      <trkpt lat="44.43986" lon="5.15601">
        <ele>742.275146</ele>
        <time>2015-03-08T16:09:32Z</time>
      </trkpt>
      <trkpt lat="44.4399" lon="5.15613">
        <ele>742.755859</ele>
        <time>2015-03-08T16:09:41Z</time>
      </trkpt>
      <trkpt lat="44.43994" lon="5.15628">
        <ele>742.755859</ele>
        <time>2015-03-08T16:09:51Z</time>
      </trkpt>
      <trkpt lat="44.44" lon="5.15637">
        <ele>743.236328</ele>
        <time>2015-03-08T16:10:02Z</time>
      </trkpt>
      <trkpt lat="44.44003" lon="5.15649">
        <ele>743.236328</ele>
        <time>2015-03-08T16:10:10Z</time>
      </trkpt>
      <trkpt lat="44.4401" lon="5.15656">
        <ele>743.717041</ele>
        <time>2015-03-08T16:10:18Z</time>
      </trkpt>
      <trkpt lat="44.44019" lon="5.15661">
        <ele>744.197754</ele>
        <time>2015-03-08T16:10:29Z</time>
      </trkpt>
      <trkpt lat="44.44027" lon="5.1567">
        <ele>744.678223</ele>
        <time>2015-03-08T16:10:41Z</time>
      </trkpt>
      <trkpt lat="44.44034" lon="5.15678">
        <ele>745.639648</ele>
        <time>2015-03-08T16:10:51Z</time>
      </trkpt>
      <trkpt lat="44.44043" lon="5.15683">
        <ele>747.081543</ele>
        <time>2015-03-08T16:11:02Z</time>
      </trkpt>
      <trkpt lat="44.44044" lon="5.15685">
        <ele>747.081543</ele>
        <time>2015-03-08T16:11:04Z</time>
      </trkpt>
      <trkpt lat="44.44052" lon="5.1569">
        <ele>748.043213</ele>
        <time>2015-03-08T16:11:13Z</time>
      </trkpt>
      <trkpt lat="44.44058" lon="5.15697">
        <ele>749.004395</ele>
        <time>2015-03-08T16:11:21Z</time>
      </trkpt>
      <trkpt lat="44.44065" lon="5.15711">
        <ele>749.485107</ele>
        <time>2015-03-08T16:11:32Z</time>
      </trkpt>
      <trkpt lat="44.4407" lon="5.15717">
        <ele>750.446533</ele>
        <time>2015-03-08T16:11:41Z</time>
      </trkpt>
      <trkpt lat="44.44077" lon="5.15727">
        <ele>751.888428</ele>
        <time>2015-03-08T16:11:52Z</time>
      </trkpt>
      <trkpt lat="44.44081" lon="5.15736">
        <ele>752.849609</ele>
        <time>2015-03-08T16:12:01Z</time>
      </trkpt>
      <trkpt lat="44.44088" lon="5.15742">
        <ele>753.811035</ele>
        <time>2015-03-08T16:12:10Z</time>
      </trkpt>
      <trkpt lat="44.44092" lon="5.15752">
        <ele>755.25293</ele>
        <time>2015-03-08T16:12:20Z</time>
      </trkpt>
      <trkpt lat="44.44097" lon="5.15761">
        <ele>756.214111</ele>
        <time>2015-03-08T16:12:29Z</time>
      </trkpt>
      <trkpt lat="44.44101" lon="5.15767">
        <ele>756.694824</ele>
        <time>2015-03-08T16:12:37Z</time>
      </trkpt>
      <trkpt lat="44.44106" lon="5.15774">
        <ele>757.65625</ele>
        <time>2015-03-08T16:12:45Z</time>
      </trkpt>
      <trkpt lat="44.44112" lon="5.1578">
        <ele>758.617432</ele>
        <time>2015-03-08T16:12:56Z</time>
      </trkpt>
      <trkpt lat="44.44116" lon="5.15783">
        <ele>759.098145</ele>
        <time>2015-03-08T16:13:03Z</time>
      </trkpt>
      <trkpt lat="44.44119" lon="5.15793">
        <ele>760.059326</ele>
        <time>2015-03-08T16:13:15Z</time>
      </trkpt>
      <trkpt lat="44.44121" lon="5.15799">
        <ele>761.020752</ele>
        <time>2015-03-08T16:13:23Z</time>
      </trkpt>
      <trkpt lat="44.44126" lon="5.15808">
        <ele>761.501465</ele>
        <time>2015-03-08T16:13:34Z</time>
      </trkpt>
      <trkpt lat="44.44129" lon="5.15822">
        <ele>762.462646</ele>
        <time>2015-03-08T16:13:46Z</time>
      </trkpt>
      <trkpt lat="44.44129" lon="5.15834">
        <ele>763.424072</ele>
        <time>2015-03-08T16:13:55Z</time>
      </trkpt>
      <trkpt lat="44.44131" lon="5.15848">
        <ele>764.866211</ele>
        <time>2015-03-08T16:14:06Z</time>
      </trkpt>
      <trkpt lat="44.44132" lon="5.15861">
        <ele>765.346924</ele>
        <time>2015-03-08T16:14:16Z</time>
      </trkpt>
      <trkpt lat="44.44132" lon="5.15877">
        <ele>766.308105</ele>
        <time>2015-03-08T16:14:26Z</time>
      </trkpt>
      <trkpt lat="44.44131" lon="5.15886">
        <ele>767.269531</ele>
        <time>2015-03-08T16:14:34Z</time>
      </trkpt>
      <trkpt lat="44.44132" lon="5.15902">
        <ele>767.75</ele>
        <time>2015-03-08T16:14:45Z</time>
      </trkpt>
      <trkpt lat="44.44133" lon="5.15912">
        <ele>769.192139</ele>
        <time>2015-03-08T16:14:55Z</time>
      </trkpt>
      <trkpt lat="44.44136" lon="5.15919">
        <ele>770.15332</ele>
        <time>2015-03-08T16:15:05Z</time>
      </trkpt>
      <trkpt lat="44.44141" lon="5.15932">
        <ele>771.595215</ele>
        <time>2015-03-08T16:15:16Z</time>
      </trkpt>
      <trkpt lat="44.44145" lon="5.15949">
        <ele>771.595215</ele>
        <time>2015-03-08T16:15:29Z</time>
      </trkpt>
      <trkpt lat="44.44152" lon="5.15955">
        <ele>771.114746</ele>
        <time>2015-03-08T16:15:40Z</time>
      </trkpt>
      <trkpt lat="44.4416" lon="5.1596">
        <ele>770.634033</ele>
        <time>2015-03-08T16:15:47Z</time>
      </trkpt>
      <trkpt lat="44.44168" lon="5.15966">
        <ele>770.15332</ele>
        <time>2015-03-08T16:15:56Z</time>
      </trkpt>
      <trkpt lat="44.44176" lon="5.1597">
        <ele>769.672852</ele>
        <time>2015-03-08T16:16:03Z</time>
      </trkpt>
      <trkpt lat="44.44181" lon="5.1597">
        <ele>769.192139</ele>
        <time>2015-03-08T16:16:06Z</time>
      </trkpt>
      <trkpt lat="44.4419" lon="5.15974">
        <ele>768.230713</ele>
        <time>2015-03-08T16:16:15Z</time>
      </trkpt>
      <trkpt lat="44.44197" lon="5.15976">
        <ele>767.75</ele>
        <time>2015-03-08T16:16:21Z</time>
      </trkpt>
      <trkpt lat="44.44203" lon="5.15979">
        <ele>766.788818</ele>
        <time>2015-03-08T16:16:28Z</time>
      </trkpt>
      <trkpt lat="44.44205" lon="5.15982">
        <ele>766.788818</ele>
        <time>2015-03-08T16:16:31Z</time>
      </trkpt>
      <trkpt lat="44.44213" lon="5.15986">
        <ele>766.308105</ele>
        <time>2015-03-08T16:16:42Z</time>
      </trkpt>
      <trkpt lat="44.44215" lon="5.15988">
        <ele>766.308105</ele>
        <time>2015-03-08T16:16:45Z</time>
      </trkpt>
      <trkpt lat="44.44225" lon="5.15987">
        <ele>765.827637</ele>
        <time>2015-03-08T16:16:52Z</time>
      </trkpt>
      <trkpt lat="44.44236" lon="5.15988">
        <ele>765.346924</ele>
        <time>2015-03-08T16:17:01Z</time>
      </trkpt>
      <trkpt lat="44.44246" lon="5.15989">
        <ele>764.866211</ele>
        <time>2015-03-08T16:17:10Z</time>
      </trkpt>
      <trkpt lat="44.44254" lon="5.15991">
        <ele>763.904541</ele>
        <time>2015-03-08T16:17:21Z</time>
      </trkpt>
      <trkpt lat="44.44259" lon="5.15992">
        <ele>763.904541</ele>
        <time>2015-03-08T16:17:25Z</time>
      </trkpt>
      <trkpt lat="44.44269" lon="5.15994">
        <ele>763.424072</ele>
        <time>2015-03-08T16:17:33Z</time>
      </trkpt>
      <trkpt lat="44.44278" lon="5.15989">
        <ele>763.424072</ele>
        <time>2015-03-08T16:17:41Z</time>
      </trkpt>
      <trkpt lat="44.44287" lon="5.15988">
        <ele>762.943359</ele>
        <time>2015-03-08T16:17:50Z</time>
      </trkpt>
      <trkpt lat="44.44292" lon="5.15985">
        <ele>762.462646</ele>
        <time>2015-03-08T16:17:56Z</time>
      </trkpt>
      <trkpt lat="44.44293" lon="5.15985">
        <ele>761.982178</ele>
        <time>2015-03-08T16:17:57Z</time>
      </trkpt>
      <trkpt lat="44.443" lon="5.15984">
        <ele>761.501465</ele>
        <time>2015-03-08T16:18:04Z</time>
      </trkpt>
      <trkpt lat="44.44304" lon="5.15985">
        <ele>761.020752</ele>
        <time>2015-03-08T16:18:08Z</time>
      </trkpt>
      <trkpt lat="44.44306" lon="5.15985">
        <ele>761.020752</ele>
        <time>2015-03-08T16:18:11Z</time>
      </trkpt>
      <trkpt lat="44.44307" lon="5.15983">
        <ele>760.540039</ele>
        <time>2015-03-08T16:18:13Z</time>
      </trkpt>
      <trkpt lat="44.44313" lon="5.15971">
        <ele>760.059326</ele>
        <time>2015-03-08T16:18:21Z</time>
      </trkpt>
      <trkpt lat="44.44317" lon="5.15959">
        <ele>760.059326</ele>
        <time>2015-03-08T16:18:29Z</time>
      </trkpt>
      <trkpt lat="44.44321" lon="5.15948">
        <ele>760.540039</ele>
        <time>2015-03-08T16:18:38Z</time>
      </trkpt>
      <trkpt lat="44.44323" lon="5.15941">
        <ele>760.540039</ele>
        <time>2015-03-08T16:18:43Z</time>
      </trkpt>
      <trkpt lat="44.44327" lon="5.1594">
        <ele>760.540039</ele>
        <time>2015-03-08T16:18:49Z</time>
      </trkpt>
      <trkpt lat="44.44332" lon="5.15933">
        <ele>760.540039</ele>
        <time>2015-03-08T16:18:57Z</time>
      </trkpt>
      <trkpt lat="44.44341" lon="5.15933">
        <ele>760.540039</ele>
        <time>2015-03-08T16:19:06Z</time>
      </trkpt>
      <trkpt lat="44.44356" lon="5.15929">
        <ele>761.982178</ele>
        <time>2015-03-08T16:19:18Z</time>
      </trkpt>
      <trkpt lat="44.44366" lon="5.1593">
        <ele>762.462646</ele>
        <time>2015-03-08T16:19:28Z</time>
      </trkpt>
      <trkpt lat="44.44376" lon="5.15933">
        <ele>762.943359</ele>
        <time>2015-03-08T16:19:40Z</time>
      </trkpt>
      <trkpt lat="44.44378" lon="5.15933">
        <ele>762.943359</ele>
        <time>2015-03-08T16:19:42Z</time>
      </trkpt>
      <trkpt lat="44.44392" lon="5.15942">
        <ele>763.424072</ele>
        <time>2015-03-08T16:19:50Z</time>
      </trkpt>
      <trkpt lat="44.444" lon="5.15938">
        <ele>764.385498</ele>
        <time>2015-03-08T16:19:56Z</time>
      </trkpt>
      <trkpt lat="44.44407" lon="5.15938">
        <ele>765.346924</ele>
        <time>2015-03-08T16:20:03Z</time>
      </trkpt>
      <trkpt lat="44.44412" lon="5.15935">
        <ele>765.827637</ele>
        <time>2015-03-08T16:20:07Z</time>
      </trkpt>
      <trkpt lat="44.44417" lon="5.1593">
        <ele>765.827637</ele>
        <time>2015-03-08T16:20:13Z</time>
      </trkpt>
      <trkpt lat="44.44429" lon="5.15926">
        <ele>765.827637</ele>
        <time>2015-03-08T16:20:21Z</time>
      </trkpt>
      <trkpt lat="44.44437" lon="5.15923">
        <ele>766.788818</ele>
        <time>2015-03-08T16:20:29Z</time>
      </trkpt>
      <trkpt lat="44.44445" lon="5.15921">
        <ele>767.75</ele>
        <time>2015-03-08T16:20:37Z</time>
      </trkpt>
      <trkpt lat="44.4445" lon="5.15918">
        <ele>768.230713</ele>
        <time>2015-03-08T16:20:43Z</time>
      </trkpt>
      <trkpt lat="44.4446" lon="5.15915">
        <ele>769.192139</ele>
        <time>2015-03-08T16:20:51Z</time>
      </trkpt>
      <trkpt lat="44.44462" lon="5.15915">
        <ele>769.192139</ele>
        <time>2015-03-08T16:20:52Z</time>
      </trkpt>
      <trkpt lat="44.44473" lon="5.15918">
        <ele>769.672852</ele>
        <time>2015-03-08T16:21:01Z</time>
      </trkpt>
      <trkpt lat="44.44479" lon="5.15923">
        <ele>770.15332</ele>
        <time>2015-03-08T16:21:08Z</time>
      </trkpt>
      <trkpt lat="44.44485" lon="5.15926">
        <ele>769.672852</ele>
        <time>2015-03-08T16:21:13Z</time>
      </trkpt>
      <trkpt lat="44.44488" lon="5.15931">
        <ele>770.15332</ele>
        <time>2015-03-08T16:21:17Z</time>
      </trkpt>
      <trkpt lat="44.44489" lon="5.15933">
        <ele>769.672852</ele>
        <time>2015-03-08T16:21:19Z</time>
      </trkpt>
      <trkpt lat="44.44495" lon="5.15937">
        <ele>769.672852</ele>
        <time>2015-03-08T16:21:24Z</time>
      </trkpt>
      <trkpt lat="44.44504" lon="5.15952">
        <ele>771.114746</ele>
        <time>2015-03-08T16:21:38Z</time>
      </trkpt>
      <trkpt lat="44.44507" lon="5.15956">
        <ele>771.595215</ele>
        <time>2015-03-08T16:21:42Z</time>
      </trkpt>
      <trkpt lat="44.44512" lon="5.15966">
        <ele>771.595215</ele>
        <time>2015-03-08T16:21:49Z</time>
      </trkpt>
      <trkpt lat="44.44515" lon="5.15976">
        <ele>772.075928</ele>
        <time>2015-03-08T16:21:58Z</time>
      </trkpt>
      <trkpt lat="44.44516" lon="5.15986">
        <ele>772.075928</ele>
        <time>2015-03-08T16:22:05Z</time>
      </trkpt>
      <trkpt lat="44.44521" lon="5.15997">
        <ele>772.556641</ele>
        <time>2015-03-08T16:22:15Z</time>
      </trkpt>
      <trkpt lat="44.44528" lon="5.1601">
        <ele>773.998535</ele>
        <time>2015-03-08T16:22:26Z</time>
      </trkpt>
      <trkpt lat="44.44536" lon="5.16028">
        <ele>774.959961</ele>
        <time>2015-03-08T16:22:39Z</time>
      </trkpt>
      <trkpt lat="44.44539" lon="5.16035">
        <ele>775.44043</ele>
        <time>2015-03-08T16:22:45Z</time>
      </trkpt>
      <trkpt lat="44.44541" lon="5.16039">
        <ele>775.921143</ele>
        <time>2015-03-08T16:22:49Z</time>
      </trkpt>
      <trkpt lat="44.44549" lon="5.16051">
        <ele>777.363281</ele>
        <time>2015-03-08T16:22:59Z</time>
      </trkpt>
      <trkpt lat="44.44553" lon="5.16058">
        <ele>778.324463</ele>
        <time>2015-03-08T16:23:05Z</time>
      </trkpt>
      <trkpt lat="44.44563" lon="5.16068">
        <ele>779.766357</ele>
        <time>2015-03-08T16:23:17Z</time>
      </trkpt>
      <trkpt lat="44.44574" lon="5.16072">
        <ele>781.20874</ele>
        <time>2015-03-08T16:23:27Z</time>
      </trkpt>
      <trkpt lat="44.44582" lon="5.16075">
        <ele>782.169922</ele>
        <time>2015-03-08T16:23:35Z</time>
      </trkpt>
      <trkpt lat="44.44588" lon="5.16077">
        <ele>783.611816</ele>
        <time>2015-03-08T16:23:43Z</time>
      </trkpt>
      <trkpt lat="44.44594" lon="5.16078">
        <ele>785.053955</ele>
        <time>2015-03-08T16:23:52Z</time>
      </trkpt>
      <trkpt lat="44.44604" lon="5.16077">
        <ele>786.976318</ele>
        <time>2015-03-08T16:24:02Z</time>
      </trkpt>
      <trkpt lat="44.4461" lon="5.16079">
        <ele>787.937744</ele>
        <time>2015-03-08T16:24:12Z</time>
      </trkpt>
      <trkpt lat="44.44621" lon="5.1608">
        <ele>788.89917</ele>
        <time>2015-03-08T16:24:20Z</time>
      </trkpt>
      <trkpt lat="44.44628" lon="5.1608">
        <ele>789.860352</ele>
        <time>2015-03-08T16:24:28Z</time>
      </trkpt>
      <trkpt lat="44.44633" lon="5.1608">
        <ele>790.341064</ele>
        <time>2015-03-08T16:24:35Z</time>
      </trkpt>
      <trkpt lat="44.44645" lon="5.16078">
        <ele>790.821533</ele>
        <time>2015-03-08T16:24:45Z</time>
      </trkpt>
      <trkpt lat="44.44656" lon="5.16075">
        <ele>791.302246</ele>
        <time>2015-03-08T16:24:57Z</time>
      </trkpt>
      <trkpt lat="44.44661" lon="5.16075">
        <ele>792.263672</ele>
        <time>2015-03-08T16:25:05Z</time>
      </trkpt>
      <trkpt lat="44.4467" lon="5.16074">
        <ele>792.744385</ele>
        <time>2015-03-08T16:25:13Z</time>
      </trkpt>
      <trkpt lat="44.4468" lon="5.16074">
        <ele>793.705566</ele>
        <time>2015-03-08T16:25:23Z</time>
      </trkpt>
      <trkpt lat="44.44689" lon="5.16072">
        <ele>794.186279</ele>
        <time>2015-03-08T16:25:31Z</time>
      </trkpt>
      <trkpt lat="44.44696" lon="5.16071">
        <ele>794.666748</ele>
        <time>2015-03-08T16:25:40Z</time>
      </trkpt>
      <trkpt lat="44.44707" lon="5.16067">
        <ele>795.628174</ele>
        <time>2015-03-08T16:25:53Z</time>
      </trkpt>
      <trkpt lat="44.4471" lon="5.16066">
        <ele>796.589844</ele>
        <time>2015-03-08T16:26:03Z</time>
      </trkpt>
      <trkpt lat="44.4471" lon="5.16064">
        <ele>796.589844</ele>
        <time>2015-03-08T16:26:14Z</time>
      </trkpt>
      <trkpt lat="44.4471" lon="5.16061">
        <ele>796.589844</ele>
        <time>2015-03-08T16:26:40Z</time>
      </trkpt>
      <trkpt lat="44.4471" lon="5.16062">
        <ele>797.070313</ele>
        <time>2015-03-08T16:27:10Z</time>
      </trkpt>
      <trkpt lat="44.44711" lon="5.16061">
        <ele>797.070313</ele>
        <time>2015-03-08T16:27:24Z</time>
      </trkpt>
      <trkpt lat="44.44712" lon="5.16062">
        <ele>798.031738</ele>
        <time>2015-03-08T16:27:50Z</time>
      </trkpt>
      <trkpt lat="44.44711" lon="5.16066">
        <ele>798.512207</ele>
        <time>2015-03-08T16:28:42Z</time>
      </trkpt>
      <trkpt lat="44.44711" lon="5.16069">
        <ele>799.473633</ele>
        <time>2015-03-08T16:30:01Z</time>
      </trkpt>
      <trkpt lat="44.4471" lon="5.16069">
        <ele>799.954346</ele>
        <time>2015-03-08T16:30:21Z</time>
      </trkpt>
      <trkpt lat="44.44708" lon="5.16065">
        <ele>799.473633</ele>
        <time>2015-03-08T16:30:32Z</time>
      </trkpt>
      <trkpt lat="44.44714" lon="5.16064">
        <ele>798.99292</ele>
        <time>2015-03-08T16:30:42Z</time>
      </trkpt>
      <trkpt lat="44.44719" lon="5.16063">
        <ele>797.551025</ele>
        <time>2015-03-08T16:30:50Z</time>
      </trkpt>
      <trkpt lat="44.44723" lon="5.16062">
        <ele>797.070313</ele>
        <time>2015-03-08T16:31:02Z</time>
      </trkpt>
      <trkpt lat="44.4473" lon="5.16056">
        <ele>794.666748</ele>
        <time>2015-03-08T16:31:14Z</time>
      </trkpt>
      <trkpt lat="44.44733" lon="5.16052">
        <ele>794.186279</ele>
        <time>2015-03-08T16:31:19Z</time>
      </trkpt>
      <trkpt lat="44.44741" lon="5.1604">
        <ele>792.744385</ele>
        <time>2015-03-08T16:31:33Z</time>
      </trkpt>
      <trkpt lat="44.44751" lon="5.16026">
        <ele>790.341064</ele>
        <time>2015-03-08T16:31:49Z</time>
      </trkpt>
      <trkpt lat="44.44763" lon="5.16014">
        <ele>788.89917</ele>
        <time>2015-03-08T16:32:03Z</time>
      </trkpt>
      <trkpt lat="44.44769" lon="5.1601">
        <ele>787.457031</ele>
        <time>2015-03-08T16:32:12Z</time>
      </trkpt>
      <trkpt lat="44.44775" lon="5.16008">
        <ele>786.015137</ele>
        <time>2015-03-08T16:32:19Z</time>
      </trkpt>
      <trkpt lat="44.44783" lon="5.16002">
        <ele>784.573242</ele>
        <time>2015-03-08T16:32:29Z</time>
      </trkpt>
      <trkpt lat="44.44792" lon="5.15997">
        <ele>782.650635</ele>
        <time>2015-03-08T16:32:39Z</time>
      </trkpt>
      <trkpt lat="44.44797" lon="5.15997">
        <ele>781.689209</ele>
        <time>2015-03-08T16:32:44Z</time>
      </trkpt>
      <trkpt lat="44.44801" lon="5.16">
        <ele>780.728027</ele>
        <time>2015-03-08T16:32:51Z</time>
      </trkpt>
      <trkpt lat="44.44808" lon="5.16005">
        <ele>779.285645</ele>
        <time>2015-03-08T16:32:59Z</time>
      </trkpt>
      <trkpt lat="44.44819" lon="5.16013">
        <ele>776.882568</ele>
        <time>2015-03-08T16:33:12Z</time>
      </trkpt>
      <trkpt lat="44.4482" lon="5.16014">
        <ele>776.882568</ele>
        <time>2015-03-08T16:33:20Z</time>
      </trkpt>
      <trkpt lat="44.44824" lon="5.16014">
        <ele>774.479248</ele>
        <time>2015-03-08T16:33:35Z</time>
      </trkpt>
      <trkpt lat="44.44831" lon="5.16016">
        <ele>773.518066</ele>
        <time>2015-03-08T16:33:41Z</time>
      </trkpt>
      <trkpt lat="44.44839" lon="5.16029">
        <ele>770.634033</ele>
        <time>2015-03-08T16:33:52Z</time>
      </trkpt>
      <trkpt lat="44.44844" lon="5.16039">
        <ele>769.192139</ele>
        <time>2015-03-08T16:34:01Z</time>
      </trkpt>
      <trkpt lat="44.44849" lon="5.16045">
        <ele>768.230713</ele>
        <time>2015-03-08T16:34:08Z</time>
      </trkpt>
      <trkpt lat="44.44859" lon="5.16055">
        <ele>765.827637</ele>
        <time>2015-03-08T16:34:19Z</time>
      </trkpt>
      <trkpt lat="44.4486" lon="5.16055">
        <ele>765.346924</ele>
        <time>2015-03-08T16:34:21Z</time>
      </trkpt>
      <trkpt lat="44.44866" lon="5.16051">
        <ele>763.904541</ele>
        <time>2015-03-08T16:34:28Z</time>
      </trkpt>
      <trkpt lat="44.44867" lon="5.16048">
        <ele>763.424072</ele>
        <time>2015-03-08T16:34:30Z</time>
      </trkpt>
      <trkpt lat="44.44873" lon="5.16029">
        <ele>760.059326</ele>
        <time>2015-03-08T16:34:43Z</time>
      </trkpt>
      <trkpt lat="44.44879" lon="5.16019">
        <ele>759.098145</ele>
        <time>2015-03-08T16:34:51Z</time>
      </trkpt>
      <trkpt lat="44.44882" lon="5.16009">
        <ele>758.136963</ele>
        <time>2015-03-08T16:34:58Z</time>
      </trkpt>
      <trkpt lat="44.44889" lon="5.16005">
        <ele>756.694824</ele>
        <time>2015-03-08T16:35:04Z</time>
      </trkpt>
      <trkpt lat="44.44904" lon="5.16006">
        <ele>756.694824</ele>
        <time>2015-03-08T16:35:15Z</time>
      </trkpt>
      <trkpt lat="44.44909" lon="5.16005">
        <ele>756.214111</ele>
        <time>2015-03-08T16:35:21Z</time>
      </trkpt>
      <trkpt lat="44.44913" lon="5.16001">
        <ele>754.772217</ele>
        <time>2015-03-08T16:35:26Z</time>
      </trkpt>
      <trkpt lat="44.44918" lon="5.15992">
        <ele>753.811035</ele>
        <time>2015-03-08T16:35:34Z</time>
      </trkpt>
      <trkpt lat="44.4492" lon="5.15988">
        <ele>753.330322</ele>
        <time>2015-03-08T16:35:38Z</time>
      </trkpt>
      <trkpt lat="44.4492" lon="5.15986">
        <ele>752.849609</ele>
        <time>2015-03-08T16:35:40Z</time>
      </trkpt>
      <trkpt lat="44.4492" lon="5.15977">
        <ele>751.888428</ele>
        <time>2015-03-08T16:35:47Z</time>
      </trkpt>
      <trkpt lat="44.44926" lon="5.15967">
        <ele>749.485107</ele>
        <time>2015-03-08T16:35:57Z</time>
      </trkpt>
      <trkpt lat="44.44932" lon="5.15958">
        <ele>748.043213</ele>
        <time>2015-03-08T16:36:07Z</time>
      </trkpt>
      <trkpt lat="44.44937" lon="5.15953">
        <ele>746.601074</ele>
        <time>2015-03-08T16:36:15Z</time>
      </trkpt>
      <trkpt lat="44.44945" lon="5.15951">
        <ele>745.158936</ele>
        <time>2015-03-08T16:36:24Z</time>
      </trkpt>
      <trkpt lat="44.44951" lon="5.15945">
        <ele>744.197754</ele>
        <time>2015-03-08T16:36:32Z</time>
      </trkpt>
      <trkpt lat="44.44959" lon="5.15938">
        <ele>743.236328</ele>
        <time>2015-03-08T16:36:42Z</time>
      </trkpt>
      <trkpt lat="44.44964" lon="5.15929">
        <ele>741.313721</ele>
        <time>2015-03-08T16:36:51Z</time>
      </trkpt>
      <trkpt lat="44.44971" lon="5.15919">
        <ele>740.352539</ele>
        <time>2015-03-08T16:37:00Z</time>
      </trkpt>
      <trkpt lat="44.44977" lon="5.15911">
        <ele>738.429932</ele>
        <time>2015-03-08T16:37:09Z</time>
      </trkpt>
      <trkpt lat="44.44985" lon="5.15902">
        <ele>736.987793</ele>
        <time>2015-03-08T16:37:21Z</time>
      </trkpt>
      <trkpt lat="44.44994" lon="5.15897">
        <ele>736.026611</ele>
        <time>2015-03-08T16:37:30Z</time>
      </trkpt>
      <trkpt lat="44.44995" lon="5.15898">
        <ele>735.545898</ele>
        <time>2015-03-08T16:37:49Z</time>
      </trkpt>
      <trkpt lat="44.45002" lon="5.15898">
        <ele>734.104004</ele>
        <time>2015-03-08T16:38:47Z</time>
      </trkpt>
      <trkpt lat="44.45009" lon="5.15902">
        <ele>733.142578</ele>
        <time>2015-03-08T16:38:57Z</time>
      </trkpt>
      <trkpt lat="44.45014" lon="5.15903">
        <ele>732.181396</ele>
        <time>2015-03-08T16:39:02Z</time>
      </trkpt>
      <trkpt lat="44.45016" lon="5.15903">
        <ele>732.181396</ele>
        <time>2015-03-08T16:39:04Z</time>
      </trkpt>
      <trkpt lat="44.45023" lon="5.15901">
        <ele>731.219971</ele>
        <time>2015-03-08T16:39:11Z</time>
      </trkpt>
      <trkpt lat="44.45028" lon="5.15899">
        <ele>730.739258</ele>
        <time>2015-03-08T16:39:16Z</time>
      </trkpt>
      <trkpt lat="44.45036" lon="5.15897">
        <ele>729.297119</ele>
        <time>2015-03-08T16:39:26Z</time>
      </trkpt>
      <trkpt lat="44.45044" lon="5.1589">
        <ele>727.855225</ele>
        <time>2015-03-08T16:39:37Z</time>
      </trkpt>
      <trkpt lat="44.45049" lon="5.15886">
        <ele>726.894043</ele>
        <time>2015-03-08T16:39:44Z</time>
      </trkpt>
      <trkpt lat="44.45059" lon="5.15876">
        <ele>724.490723</ele>
        <time>2015-03-08T16:39:57Z</time>
      </trkpt>
      <trkpt lat="44.4507" lon="5.15866">
        <ele>723.048828</ele>
        <time>2015-03-08T16:40:09Z</time>
      </trkpt>
      <trkpt lat="44.45081" lon="5.15855">
        <ele>721.126221</ele>
        <time>2015-03-08T16:40:22Z</time>
      </trkpt>
      <trkpt lat="44.45081" lon="5.15854">
        <ele>721.126221</ele>
        <time>2015-03-08T16:40:23Z</time>
      </trkpt>
      <trkpt lat="44.45084" lon="5.1585">
        <ele>720.645508</ele>
        <time>2015-03-08T16:40:27Z</time>
      </trkpt>
      <trkpt lat="44.45086" lon="5.15846">
        <ele>720.164795</ele>
        <time>2015-03-08T16:40:30Z</time>
      </trkpt>
      <trkpt lat="44.45094" lon="5.15834">
        <ele>718.7229</ele>
        <time>2015-03-08T16:40:41Z</time>
      </trkpt>
      <trkpt lat="44.451" lon="5.1582">
        <ele>717.281006</ele>
        <time>2015-03-08T16:40:54Z</time>
      </trkpt>
      <trkpt lat="44.45108" lon="5.1581">
        <ele>715.838867</ele>
        <time>2015-03-08T16:41:04Z</time>
      </trkpt>
      <trkpt lat="44.45116" lon="5.15806">
        <ele>714.877441</ele>
        <time>2015-03-08T16:41:13Z</time>
      </trkpt>
      <trkpt lat="44.45123" lon="5.15803">
        <ele>713.435547</ele>
        <time>2015-03-08T16:41:21Z</time>
      </trkpt>
      <trkpt lat="44.45131" lon="5.15801">
        <ele>711.993652</ele>
        <time>2015-03-08T16:41:31Z</time>
      </trkpt>
      <trkpt lat="44.45142" lon="5.15798">
        <ele>711.032227</ele>
        <time>2015-03-08T16:41:40Z</time>
      </trkpt>
      <trkpt lat="44.4515" lon="5.15799">
        <ele>710.070801</ele>
        <time>2015-03-08T16:41:49Z</time>
      </trkpt>
      <trkpt lat="44.45161" lon="5.15796">
        <ele>709.109619</ele>
        <time>2015-03-08T16:41:58Z</time>
      </trkpt>
      <trkpt lat="44.45163" lon="5.15796">
        <ele>708.628906</ele>
        <time>2015-03-08T16:42:00Z</time>
      </trkpt>
      <trkpt lat="44.45175" lon="5.1579">
        <ele>708.148438</ele>
        <time>2015-03-08T16:42:09Z</time>
      </trkpt>
      <trkpt lat="44.45182" lon="5.15787">
        <ele>707.667725</ele>
        <time>2015-03-08T16:42:17Z</time>
      </trkpt>
      <trkpt lat="44.45189" lon="5.15784">
        <ele>706.225586</ele>
        <time>2015-03-08T16:42:25Z</time>
      </trkpt>
      <trkpt lat="44.45197" lon="5.15784">
        <ele>704.783691</ele>
        <time>2015-03-08T16:42:36Z</time>
      </trkpt>
      <trkpt lat="44.45205" lon="5.15783">
        <ele>702.861084</ele>
        <time>2015-03-08T16:42:46Z</time>
      </trkpt>
      <trkpt lat="44.45209" lon="5.15781">
        <ele>701.899902</ele>
        <time>2015-03-08T16:42:50Z</time>
      </trkpt>
      <trkpt lat="44.45216" lon="5.1578">
        <ele>700.458008</ele>
        <time>2015-03-08T16:42:59Z</time>
      </trkpt>
      <trkpt lat="44.45224" lon="5.15778">
        <ele>698.534912</ele>
        <time>2015-03-08T16:43:07Z</time>
      </trkpt>
      <trkpt lat="44.45231" lon="5.15775">
        <ele>697.093018</ele>
        <time>2015-03-08T16:43:18Z</time>
      </trkpt>
      <trkpt lat="44.4524" lon="5.15768">
        <ele>695.17041</ele>
        <time>2015-03-08T16:43:29Z</time>
      </trkpt>
      <trkpt lat="44.45244" lon="5.15768">
        <ele>693.728516</ele>
        <time>2015-03-08T16:43:36Z</time>
      </trkpt>
      <trkpt lat="44.4525" lon="5.15765">
        <ele>692.286621</ele>
        <time>2015-03-08T16:43:44Z</time>
      </trkpt>
      <trkpt lat="44.45255" lon="5.15761">
        <ele>691.805908</ele>
        <time>2015-03-08T16:43:50Z</time>
      </trkpt>
      <trkpt lat="44.45259" lon="5.15759">
        <ele>690.364014</ele>
        <time>2015-03-08T16:43:58Z</time>
      </trkpt>
      <trkpt lat="44.45267" lon="5.15754">
        <ele>688.441406</ele>
        <time>2015-03-08T16:44:07Z</time>
      </trkpt>
      <trkpt lat="44.45271" lon="5.15749">
        <ele>687.47998</ele>
        <time>2015-03-08T16:44:13Z</time>
      </trkpt>
      <trkpt lat="44.45278" lon="5.15741">
        <ele>686.518799</ele>
        <time>2015-03-08T16:44:22Z</time>
      </trkpt>
      <trkpt lat="44.45287" lon="5.15738">
        <ele>684.596191</ele>
        <time>2015-03-08T16:44:33Z</time>
      </trkpt>
      <trkpt lat="44.45293" lon="5.15734">
        <ele>683.153809</ele>
        <time>2015-03-08T16:44:43Z</time>
      </trkpt>
      <trkpt lat="44.45299" lon="5.15731">
        <ele>682.192627</ele>
        <time>2015-03-08T16:44:49Z</time>
      </trkpt>
      <trkpt lat="44.45307" lon="5.15723">
        <ele>680.750732</ele>
        <time>2015-03-08T16:44:58Z</time>
      </trkpt>
      <trkpt lat="44.45315" lon="5.15715">
        <ele>678.828125</ele>
        <time>2015-03-08T16:45:09Z</time>
      </trkpt>
      <trkpt lat="44.4532" lon="5.15708">
        <ele>677.38623</ele>
        <time>2015-03-08T16:45:17Z</time>
      </trkpt>
      <trkpt lat="44.45328" lon="5.157">
        <ele>674.502197</ele>
        <time>2015-03-08T16:45:30Z</time>
      </trkpt>
      <trkpt lat="44.45336" lon="5.15687">
        <ele>671.618164</ele>
        <time>2015-03-08T16:45:43Z</time>
      </trkpt>
      <trkpt lat="44.4534" lon="5.15672">
        <ele>668.253662</ele>
        <time>2015-03-08T16:45:57Z</time>
      </trkpt>
      <trkpt lat="44.45346" lon="5.15653">
        <ele>664.888916</ele>
        <time>2015-03-08T16:46:11Z</time>
      </trkpt>
      <trkpt lat="44.45347" lon="5.15643">
        <ele>664.408203</ele>
        <time>2015-03-08T16:46:18Z</time>
      </trkpt>
      <trkpt lat="44.45341" lon="5.15632">
        <ele>662.005127</ele>
        <time>2015-03-08T16:46:29Z</time>
      </trkpt>
      <trkpt lat="44.45341" lon="5.15617">
        <ele>659.121094</ele>
        <time>2015-03-08T16:46:40Z</time>
      </trkpt>
      <trkpt lat="44.45347" lon="5.15605">
        <ele>656.717773</ele>
        <time>2015-03-08T16:46:51Z</time>
      </trkpt>
      <trkpt lat="44.45348" lon="5.15604">
        <ele>656.717773</ele>
        <time>2015-03-08T16:46:52Z</time>
      </trkpt>
      <trkpt lat="44.45358" lon="5.15597">
        <ele>653.833984</ele>
        <time>2015-03-08T16:47:04Z</time>
      </trkpt>
      <trkpt lat="44.45367" lon="5.15588">
        <ele>651.911133</ele>
        <time>2015-03-08T16:47:16Z</time>
      </trkpt>
      <trkpt lat="44.45369" lon="5.15578">
        <ele>649.988525</ele>
        <time>2015-03-08T16:47:24Z</time>
      </trkpt>
      <trkpt lat="44.45365" lon="5.15574">
        <ele>648.546387</ele>
        <time>2015-03-08T16:47:32Z</time>
      </trkpt>
      <trkpt lat="44.45364" lon="5.15574">
        <ele>648.546387</ele>
        <time>2015-03-08T16:47:34Z</time>
      </trkpt>
      <trkpt lat="44.4536" lon="5.15574">
        <ele>647.585205</ele>
        <time>2015-03-08T16:47:38Z</time>
      </trkpt>
      <trkpt lat="44.45351" lon="5.15573">
        <ele>645.181885</ele>
        <time>2015-03-08T16:47:47Z</time>
      </trkpt>
      <trkpt lat="44.45344" lon="5.15571">
        <ele>643.259277</ele>
        <time>2015-03-08T16:47:56Z</time>
      </trkpt>
      <trkpt lat="44.45338" lon="5.15565">
        <ele>642.298096</ele>
        <time>2015-03-08T16:48:04Z</time>
      </trkpt>
      <trkpt lat="44.45333" lon="5.15558">
        <ele>640.855957</ele>
        <time>2015-03-08T16:48:12Z</time>
      </trkpt>
      <trkpt lat="44.4533" lon="5.1555">
        <ele>639.414063</ele>
        <time>2015-03-08T16:48:22Z</time>
      </trkpt>
      <trkpt lat="44.45326" lon="5.15543">
        <ele>637.972168</ele>
        <time>2015-03-08T16:48:31Z</time>
      </trkpt>
      <trkpt lat="44.45322" lon="5.15537">
        <ele>637.972168</ele>
        <time>2015-03-08T16:48:40Z</time>
      </trkpt>
      <trkpt lat="44.45323" lon="5.15535">
        <ele>637.972168</ele>
        <time>2015-03-08T16:48:50Z</time>
      </trkpt>
      <trkpt lat="44.45321" lon="5.15535">
        <ele>637.491455</ele>
        <time>2015-03-08T16:49:05Z</time>
      </trkpt>
      <trkpt lat="44.45317" lon="5.15534">
        <ele>637.010742</ele>
        <time>2015-03-08T16:49:30Z</time>
      </trkpt>
      <trkpt lat="44.45316" lon="5.15534">
        <ele>637.010742</ele>
        <time>2015-03-08T16:50:30Z</time>
      </trkpt>
      <trkpt lat="44.45317" lon="5.15537">
        <ele>636.530273</ele>
        <time>2015-03-08T16:50:52Z</time>
      </trkpt>
      <trkpt lat="44.45317" lon="5.15537">
        <ele>636.530273</ele>
        <time>2015-03-08T16:51:48Z</time>
      </trkpt>
      <trkpt lat="44.45317" lon="5.15537">
        <ele>636.049561</ele>
        <time>2015-03-08T16:52:47Z</time>
      </trkpt>
      <trkpt lat="44.45317" lon="5.15536">
        <ele>636.049561</ele>
        <time>2015-03-08T16:53:05Z</time>
      </trkpt>
      <trkpt lat="44.45317" lon="5.15535">
        <ele>636.049561</ele>
        <time>2015-03-08T16:53:16Z</time>
      </trkpt>
      <trkpt lat="44.45317" lon="5.15539">
        <ele>636.049561</ele>
        <time>2015-03-08T16:53:37Z</time>
      </trkpt>
      <trkpt lat="44.45317" lon="5.15538">
        <ele>636.049561</ele>
        <time>2015-03-08T16:53:51Z</time>
      </trkpt>
      <trkpt lat="44.45316" lon="5.15538">
        <ele>635.568604</ele>
        <time>2015-03-08T16:54:09Z</time>
      </trkpt>
      <trkpt lat="44.45316" lon="5.15538">
        <ele>635.568604</ele>
        <time>2015-03-08T16:54:24Z</time>
      </trkpt>
      <trkpt lat="44.45316" lon="5.15538">
        <ele>635.088135</ele>
        <time>2015-03-08T16:55:39Z</time>
      </trkpt>
    </trkseg>
  </trk>
</gpx>